[[{"header":{"parameterUnit":"m.s-1","parameterCategory":1,"la1":30.6,"la2":28.766,"lo1":-90.7593,"lo2":-88.6598,"dy":0.0162,"dx":0.0183,"nx":116,"ny":114,"refTime":"2023-07-22T06:00:00:Z","depth":0,"parameterNumber":2,"parameterNumberName":"U-component_of_WINDS"},"data":[0.0,0.0,0.0,0.0,0.0,0.0,0.0,0.0,0.0,0.0,0.0,0.0,0.0,0.0,0.0,0.0,0.0,0.0,0.0,0.0,0.0,0.0,0.0,0.0,0.0,0.0,0.0,0.0,0.0,0.0,0.0,0.0,0.0,0.0,0.0,0.0,0.0,0.0,0.0,0.0,0.0,0.0,0.0,0.0,0.0,0.0,0.0,0.0,0.0,0.0,0.0,0.0,0.0,0.0,0.0,0.0,0.0,0.0,0.0,0.0,0.0,0.0,0.0,0.0,0.0,0.0,0.0,0.0,0.0,0.0,0.0,0.0,0.0,0.0,0.0,0.0,0.0,0.0,0.0,0.0,0.0,0.0,0.0,0.0,0.0,0.0,0.0,0.0,0.0,0.0,0.0,0.0,0.0,0.0,0.0,0.0,0.0,0.0,0.0,0.0,0.0,0.0,0.0,0.0,0.0,0.0,0.0,0.0,0.0,0.0,0.0,0.0,0.0,0.0,0.0,0.0,0.0,0.0,0.0,0.0,0.0,0.0,0.0,0.0,0.0,0.0,0.0,0.0,0.0,0.0,0.0,0.0,0.0,0.0,0.0,0.0,0.0,0.0,0.0,0.0,0.0,0.0,0.0,0.0,0.0,0.0,0.0,0.0,0.0,0.0,0.0,0.0,0.0,0.0,0.0,0.0,0.0,0.0,0.0,0.0,0.0,0.0,0.0,0.0,0.0,0.0,0.0,0.0,0.0,0.0,0.0,0.0,0.0,0.0,0.0,0.0,0.0,0.0,0.0,0.0,0.0,0.0,0.0,0.0,0.0,0.0,0.0,0.0,0.0,0.0,0.0,0.0,0.0,0.0,0.0,0.0,0.0,0.0,0.0,0.0,0.0,0.0,0.0,0.0,0.0,0.0,0.0,0.0,0.0,0.0,0.0,0.0,0.0,0.0,0.0,0.0,0.0,0.0,0.0,0.0,0.0,0.0,0.0,0.0,0.0,0.0,0.0,0.0,0.0,0.0,0.0,0.0,0.0,0.0,0.0,0.0,0.0,0.0,0.0,0.0,0.0,0.0,0.0,0.0,0.0,0.0,0.0,0.0,0.0,0.0,0.0,0.0,0.0,0.0,0.0,0.0,0.0,0.0,0.0,0.0,0.0,0.0,0.0,0.0,0.0,0.0,0.0,0.0,0.0,0.0,0.0,0.0,0.0,0.0,0.0,0.0,0.0,0.0,0.0,0.0,0.0,0.0,0.0,0.0,0.0,0.0,0.0,0.0,0.0,0.0,0.0,0.0,0.0,0.0,0.0,0.0,0.0,0.0,0.0,0.0,0.0,0.0,0.0,0.0,0.0,0.0,0.0,0.0,0.0,0.0,0.0,0.0,0.0,0.0,0.0,0.0,0.0,0.0,0.0,0.0,0.0,0.0,0.0,0.0,0.0,0.0,0.0,0.0,0.0,0.0,0.0,0.0,0.0,0.0,0.0,0.0,0.0,0.0,0.0,0.0,0.0,0.0,0.0,0.0,0.0,0.0,0.0,0.0,0.0,0.0,0.0,0.0,0.0,0.0,0.0,0.0,0.0,0.0,0.0,0.0,0.0,0.0,0.0,0.0,0.0,0.0,0.0,0.0,0.0,0.0,0.0,0.0,0.0,0.0,0.0,0.0,0.0,0.0,0.0,0.0,0.0,0.0,0.0,0.0,0.0,0.0,0.0,0.0,0.0,0.0,0.0,0.0,0.0,0.0,0.0,0.0,0.0,0.0,0.0,0.0,0.0,0.0,0.0,0.0,0.0,0.0,0.0,0.0,0.0,0.0,0.0,0.0,0.0,0.0,0.0,0.0,0.0,0.0,0.0,0.0,0.0,0.0,0.0,0.0,0.0,0.0,0.0,0.0,0.0,0.0,0.0,0.0,0.0,0.0,0.0,0.0,0.0,0.0,0.0,0.0,0.0,0.0,0.0,0.0,0.0,0.0,0.0,0.0,0.0,0.0,0.0,0.0,0.0,0.0,0.0,0.0,0.0,0.0,0.0,0.0,0.0,0.0,0.0,0.0,0.0,0.0,0.0,0.0,0.0,0.0,0.0,0.0,0.0,0.0,0.0,0.0,0.0,0.0,0.0,0.0,0.0,0.0,0.0,0.0,0.0,0.0,0.0,0.0,0.0,0.0,0.0,0.0,0.0,0.0,0.0,0.0,0.0,0.0,0.0,0.0,0.0,0.0,0.0,0.0,0.0,0.0,0.0,0.0,0.0,0.0,0.0,0.0,0.0,0.0,0.0,0.0,0.0,0.0,0.0,0.0,0.0,0.0,0.0,0.0,0.0,0.0,0.0,0.0,0.0,0.0,0.0,0.0,0.0,0.0,0.0,0.0,0.0,0.0,0.0,0.0,0.0,0.0,0.0,0.0,0.0,0.0,0.0,0.0,0.0,0.0,0.0,0.0,0.0,0.0,0.0,0.0,0.0,0.0,0.0,0.0,0.0,0.0,0.0,0.0,0.0,0.0,0.0,0.0,0.0,0.0,0.0,0.0,0.0,0.0,0.0,0.0,0.0,0.0,0.0,0.0,0.0,0.0,0.0,0.0,0.0,0.0,0.0,0.0,0.0,0.0,0.0,0.0,0.0,0.0,0.0,0.0,0.0,0.0,0.0,0.0,0.0,0.0,0.0,0.0,0.0,0.0,0.0,0.0,0.0,0.0,0.0,0.0,0.0,0.0,0.0,0.0,0.0,0.0,0.0,0.0,0.0,0.0,0.0,0.0,0.0,0.0,0.0,0.0,0.0,0.0,0.0,0.0,0.0,0.0,0.0,0.0,0.0,0.0,0.0,0.0,0.0,0.0,0.0,0.0,0.0,0.0,0.0,0.0,0.0,0.0,0.0,0.0,0.0,0.0,0.0,0.0,0.0,0.0,0.0,0.0,0.0,0.0,0.0,0.0,0.0,0.0,0.0,0.0,0.0,0.0,0.0,0.0,0.0,0.0,0.0,0.0,0.0,0.0,0.0,0.0,0.0,0.0,0.0,0.0,0.0,0.0,0.0,0.0,0.0,0.0,0.0,0.0,0.0,0.0,0.0,0.0,0.0,0.0,0.0,0.0,0.0,0.0,0.0,0.0,0.0,0.0,0.0,0.0,0.0,0.0,0.0,0.0,0.0,0.0,0.0,0.0,0.0,0.0,0.0,0.0,0.0,0.0,0.0,0.0,0.0,0.0,0.0,0.0,0.0,0.0,0.0,0.0,0.0,0.0,0.0,0.0,0.0,0.0,0.0,0.0,0.0,0.0,0.0,0.0,0.0,0.0,0.0,0.0,0.0,0.0,0.0,0.0,0.0,0.0,0.0,0.0,0.0,0.0,0.0,0.0,0.0,0.0,0.0,0.0,0.0,0.0,0.0,0.0,0.0,0.0,0.0,0.0,0.0,0.0,0.0,0.0,0.0,0.0,0.0,0.0,0.0,0.0,0.0,0.0,0.0,0.0,0.0,0.0,0.0,0.0,0.0,0.0,0.0,0.0,0.0,0.0,0.0,0.0,0.0,0.0,0.0,0.0,0.0,0.0,0.0,0.0,0.0,0.0,0.0,0.0,0.0,0.0,0.0,0.0,0.0,0.0,0.0,0.0,0.0,0.0,0.0,0.0,0.0,0.0,0.0,0.0,0.0,0.0,0.0,0.0,0.0,0.0,0.0,0.0,0.0,0.0,0.0,0.0,0.0,0.0,0.0,0.0,0.0,0.0,0.0,0.0,0.0,0.0,0.0,0.0,0.0,0.0,0.0,0.0,0.0,0.0,0.0,0.0,0.0,0.0,0.0,0.0,0.0,0.0,0.0,0.0,0.0,0.0,0.0,0.0,0.0,0.0,0.0,0.0,0.0,0.0,0.0,0.0,0.0,0.0,0.0,0.0,0.0,0.0,0.0,0.0,0.0,0.0,0.0,0.0,0.0,0.0,0.0,0.0,0.0,0.0,0.0,0.0,0.0,0.0,0.0,0.0,0.0,0.0,0.0,0.0,0.0,0.0,0.0,0.0,0.0,0.0,0.0,0.0,0.0,0.0,0.0,0.0,0.0,0.0,0.0,0.0,0.0,0.0,0.0,0.0,0.0,0.0,0.0,0.0,0.0,0.0,0.0,0.0,0.0,0.0,0.0,0.0,0.0,0.0,0.0,0.0,0.0,0.0,0.0,0.0,0.0,0.0,0.0,0.0,0.0,0.0,0.0,0.0,0.0,0.0,0.0,0.0,0.0,0.0,0.0,0.0,0.0,0.0,0.0,0.0,0.0,0.0,0.0,0.0,0.0,0.0,0.0,0.0,0.0,0.0,0.0,0.0,0.0,0.0,0.0,0.0,0.0,0.0,0.0,0.0,0.0,0.0,0.0,0.0,0.0,0.0,0.0,0.0,0.0,0.0,0.0,0.0,0.0,0.0,0.0,0.0,0.0,0.0,0.0,0.0,0.0,0.0,0.0,0.0,0.0,0.0,0.0,0.0,0.0,0.0,0.0,0.0,0.0,0.0,0.0,0.0,0.0,0.0,0.0,0.0,0.0,0.0,0.0,0.0,0.0,0.0,0.0,0.0,0.0,0.0,0.0,0.0,0.0,0.0,0.0,0.0,0.0,0.0,0.0,0.0,0.0,0.0,0.0,0.0,0.0,0.0,0.0,0.0,0.0,0.0,0.0,0.0,0.0,0.0,0.0,0.0,0.0,0.0,0.0,0.0,0.0,0.0,0.0,0.0,0.0,0.0,0.0,0.0,0.0,0.0,0.0,0.0,0.0,0.0,0.0,0.0,0.0,0.0,0.0,0.0,0.0,0.0,0.0,0.0,0.0,0.0,0.0,0.0,0.0,0.0,0.0,0.0,0.0,0.0,0.0,0.0,0.0,0.0,0.0,0.0,0.0,0.0,0.0,0.0,0.0,0.0,0.0,0.0,0.0,0.0,0.0,0.0,0.0,0.0,0.0,0.0,0.0,0.0,0.0,0.0,0.0,0.0,0.0,0.0,0.0,0.0,0.0,0.0,0.0,0.0,0.0,0.0,0.0,0.0,0.0,0.0,0.0,0.0,0.0,0.0,0.0,0.0,0.0,0.0,0.0,0.0,0.0,0.0,0.0,0.0,0.0,0.0,0.0,0.0,0.0,0.0,0.0,0.0,0.0,0.0,0.0,0.0,0.0,0.0,0.0,0.0,0.0,0.0,0.0,0.0,0.0,0.0,0.0,0.0,0.0,0.0,0.0,0.0,0.0,0.0,0.0,0.0,0.0,0.0,0.0,0.0,0.0,0.0,0.0,0.0,0.0,0.0,0.0,0.0,0.0,0.0,0.0,0.0,0.0,0.0,0.0,0.0,0.0,0.0,0.0,0.0,0.0,0.0,0.0,0.0,0.0,0.0,0.0,0.0,0.0,0.0,0.0,0.0,0.0,0.0,0.0,0.0,0.0,0.0,0.0,0.0,0.0,0.0,0.0,0.0,0.0,0.0,0.0,0.0,0.0,0.0,0.0,0.0,0.0,0.0,0.0,0.0,0.0,0.0,0.0,0.0,0.0,0.0,0.0,0.0,0.0,0.0,0.0,0.0,0.0,0.0,0.0,0.0,0.0,0.0,0.0,0.0,0.0,0.0,0.0,0.0,0.0,0.0,0.0,0.0,0.0,0.0,0.0,0.0,0.0,0.0,0.0,0.0,0.0,0.0,0.0,0.0,0.0,0.0,0.0,0.0,0.0,0.0,0.0,0.0,0.0,0.0,0.0,0.0,0.0,0.0,0.0,0.0,0.0,0.0,0.0,0.0,0.0,0.0,0.0,0.0,0.0,0.0,0.0,0.0,0.0,0.0,0.0,0.0,0.0,0.0,0.0,0.0,0.0,0.0,0.0,0.0,0.0,0.0,0.0,0.0,0.0,0.0,0.0,0.0,0.0,0.0,0.0,0.0,0.0,0.0,0.0,0.0,0.0,0.0,0.0,0.0,0.0,0.0,0.0,0.0,0.0,0.0,0.0,0.0,0.0,0.0,0.0,0.0,0.0,0.0,0.0,0.0,0.0,0.0,0.0,0.0,0.0,0.0,0.0,0.0,0.0,0.0,0.0,0.0,0.0,0.0,0.0,0.0,-1.0288,0.0,0.0,0.0,0.0,0.0,0.0,0.0,0.0,0.0,0.0,0.0,0.0,0.0,0.0,0.0,0.0,0.0,0.0,0.0,0.0,0.0,0.0,0.0,0.0,0.0,0.0,0.0,0.0,0.0,0.0,0.0,0.0,0.0,0.0,0.0,0.0,0.0,0.0,0.0,0.0,0.0,0.0,0.0,0.0,0.0,0.0,0.0,0.0,0.0,0.0,0.0,0.0,0.0,0.0,0.0,0.0,0.0,0.0,0.0,0.0,0.0,0.0,0.0,0.0,0.0,0.0,0.0,0.0,0.0,0.0,0.0,0.0,0.0,0.0,0.0,0.0,0.0,0.0,0.0,0.0,0.0,0.0,0.0,0.0,0.0,0.0,0.0,0.0,0.0,0.0,0.0,0.0,0.0,0.0,0.0,0.0,0.0,0.0,0.0,0.0,0.0,0.0,0.0,0.0,0.0,0.0,0.0,0.0,0.0,0.0,0.0,0.0,0.0,0.0,0.0,0.0,-1.1792,0.0,0.0,0.0,0.0,0.0,0.0,0.0,0.0,0.0,0.0,0.0,0.0,0.0,0.0,0.0,0.0,0.0,0.0,0.0,0.0,0.0,0.0,0.0,0.0,0.0,0.0,0.0,0.0,0.0,0.0,0.0,0.0,0.0,0.0,0.0,0.0,0.0,0.0,0.0,0.0,0.0,0.0,0.0,0.0,0.0,0.0,0.0,0.0,0.0,0.0,0.0,0.0,0.0,0.0,0.0,0.0,0.0,0.0,0.0,0.0,0.0,0.0,0.0,0.0,0.0,0.0,0.0,0.0,0.0,0.0,0.0,0.0,0.0,0.0,0.0,0.0,0.0,0.0,0.0,0.0,0.0,0.0,0.0,0.0,0.0,0.0,0.0,0.0,0.0,0.0,0.0,0.0,0.0,0.0,0.0,0.0,0.0,0.0,0.0,0.0,0.0,0.0,0.0,0.0,0.0,0.0,0.0,0.0,-1.4542,-1.4267,-1.4164,-1.3763,-1.3445,-1.3195,-1.3096,-1.2733,-1.2209,0.0,0.0,0.0,0.0,0.0,0.0,0.0,0.0,0.0,0.0,0.0,0.0,0.0,0.0,0.0,0.0,0.0,0.0,0.0,0.0,0.0,0.0,0.0,0.0,0.0,0.0,0.0,0.0,0.0,0.0,0.0,0.0,0.0,0.0,0.0,0.0,0.0,0.0,0.0,-2.1432,-2.129,-2.1239,-2.1228,0.0,0.0,0.0,0.0,0.0,0.0,0.0,0.0,0.0,0.0,0.0,0.0,0.0,0.0,0.0,0.0,0.0,0.0,0.0,0.0,0.0,0.0,0.0,0.0,0.0,0.0,0.0,0.0,0.0,0.0,0.0,0.0,0.0,0.0,0.0,0.0,0.0,0.0,0.0,0.0,0.0,0.0,0.0,0.0,-1.4816,-1.6419,0.0,0.0,0.0,0.0,0.0,0.0,0.0,0.0,0.0,0.0,0.0,0.0,0.0,-1.5833,-1.5954,-1.651,-1.6543,-1.6088,-1.6073,-1.5678,-1.4894,-1.4785,-1.4656,-1.4385,-1.4499,0.0,-1.3016,-1.2414,0.0,0.0,0.0,0.0,0.0,0.0,0.0,0.0,0.0,0.0,0.0,0.0,0.0,0.0,0.0,0.0,0.0,0.0,0.0,0.0,0.0,0.0,0.0,0.0,0.0,0.0,0.0,0.0,0.0,0.0,0.0,0.0,0.0,0.0,0.0,0.0,-2.1242,-2.1372,-2.1951,-2.184,-2.1877,-2.1935,-2.1641,-2.1175,-2.0579,-2.0444,0.0,0.0,0.0,0.0,0.0,0.0,0.0,0.0,0.0,0.0,0.0,0.0,0.0,0.0,0.0,0.0,0.0,0.0,0.0,0.0,0.0,0.0,0.0,0.0,0.0,0.0,0.0,0.0,0.0,0.0,0.0,0.0,0.0,0.0,0.0,0.0,0.0,0.0,0.0,-1.4411,-1.5274,-1.4903,-1.5736,-1.6032,0.0,0.0,0.0,0.0,0.0,0.0,0.0,0.0,0.0,-1.7571,-1.7972,-1.8375,-1.8698,-1.8677,-1.8657,-1.8663,-1.777,-1.7138,-1.6798,-1.6201,-1.5733,-1.5467,-1.5267,-1.4983,-1.4522,-1.3641,-1.2879,-1.2316,0.0,0.0,0.0,0.0,-1.1366,-1.1366,0.0,0.0,0.0,0.0,0.0,0.0,0.0,0.0,0.0,0.0,0.0,0.0,0.0,0.0,0.0,0.0,0.0,0.0,0.0,0.0,0.0,0.0,0.0,0.0,0.0,0.0,0.0,0.0,-2.1608,-2.1879,-2.2624,-2.257,-2.2755,-2.3094,-2.3094,-2.2222,-2.0793,-2.0793,-2.0785,0.0,0.0,0.0,0.0,0.0,0.0,0.0,0.0,0.0,0.0,0.0,0.0,0.0,0.0,0.0,0.0,0.0,0.0,0.0,0.0,0.0,0.0,0.0,0.0,0.0,0.0,0.0,0.0,0.0,0.0,0.0,0.0,0.0,0.0,0.0,0.0,0.0,0.0,-1.4718,-1.513,-1.4089,-1.5175,-1.5768,0.0,0.0,0.0,0.0,0.0,0.0,-1.7368,-1.8101,-1.897,-1.9883,-2.0094,-2.0461,-2.0986,-2.0398,-2.0284,-2.0572,-1.9188,-1.847,-1.8354,-1.7513,-1.6941,-1.6578,-1.6181,-1.6023,-1.5949,-1.48,-1.3791,-1.2978,-1.2871,-1.2508,-1.203,-1.2181,-1.2153,-1.2129,0.0,0.0,0.0,0.0,0.0,0.0,0.0,0.0,0.0,0.0,0.0,0.0,0.0,0.0,0.0,0.0,0.0,0.0,0.0,0.0,0.0,0.0,0.0,0.0,0.0,0.0,0.0,-2.1419,-2.1342,-2.2149,-2.37,-2.3608,-2.403,-2.4871,-2.4871,-2.3733,-2.1837,-2.1837,-2.1442,-2.0794,0.0,0.0,0.0,0.0,0.0,0.0,0.0,0.0,0.0,0.0,0.0,0.0,0.0,0.0,0.0,0.0,0.0,0.0,0.0,0.0,0.0,0.0,0.0,0.0,0.0,0.0,0.0,0.0,0.0,0.0,0.0,0.0,0.0,0.0,0.0,0.0,0.0,0.0,0.0,-1.5971,-1.6058,0.0,0.0,0.0,0.0,-1.6596,-1.797,-1.8988,-1.9238,-2.002,-2.0754,-2.1308,-2.1237,-2.1475,-2.205,-2.145,-2.1005,-2.0839,-2.0323,-1.9619,-1.8736,-1.8716,-1.8301,-1.7595,-1.7585,-1.7317,-1.6811,-1.5525,-1.4584,-1.4012,-1.4012,-1.3639,-1.3172,-1.375,-1.3689,-1.3375,0.0,0.0,0.0,0.0,0.0,0.0,0.0,0.0,0.0,0.0,0.0,0.0,0.0,0.0,0.0,0.0,0.0,0.0,0.0,0.0,0.0,0.0,0.0,0.0,0.0,0.0,0.0,-2.2103,-2.2876,-2.3794,-2.4849,-2.5155,-2.5536,-2.5983,-2.5983,-2.5425,-2.4476,-2.3575,-2.2785,-2.2106,-2.1679,-2.1536,0.0,0.0,0.0,0.0,0.0,0.0,0.0,0.0,0.0,0.0,0.0,0.0,0.0,0.0,0.0,0.0,0.0,0.0,0.0,0.0,0.0,0.0,0.0,0.0,0.0,0.0,0.0,0.0,0.0,0.0,0.0,0.0,0.0,0.0,0.0,0.0,0.0,-1.7066,-1.7897,0.0,-1.8271,-1.8761,-1.909,-1.9202,-2.0161,-2.0928,-2.1284,-2.2384,-2.3252,-2.3737,-2.3649,-2.3582,-2.3758,-2.2704,-2.2158,-2.2028,-2.1207,-2.0606,-2.0237,-1.9939,-1.9545,-1.9023,-1.8723,-1.833,-1.7843,-1.7077,-1.6079,-1.5141,-1.5141,-1.48,-1.4328,-1.4245,-1.4286,-1.4388,0.0,0.0,0.0,0.0,0.0,0.0,0.0,0.0,0.0,0.0,0.0,0.0,0.0,0.0,0.0,0.0,0.0,0.0,0.0,0.0,0.0,0.0,0.0,0.0,0.0,0.0,0.0,0.0,0.0,-2.4791,-2.5549,-2.5978,-2.6595,-2.7287,-2.7427,-2.7469,-2.7292,-2.6125,-2.4729,-2.3164,-2.2643,-2.2392,-2.2256,0.0,0.0,0.0,0.0,0.0,0.0,0.0,0.0,0.0,0.0,0.0,0.0,0.0,0.0,0.0,0.0,0.0,0.0,0.0,0.0,0.0,0.0,0.0,0.0,0.0,0.0,0.0,0.0,0.0,0.0,0.0,0.0,0.0,0.0,0.0,-1.7969,-1.8283,-1.9631,-2.0491,-2.0435,-2.1158,-2.1715,-2.1873,-2.2494,-2.3118,-2.3863,-2.4347,-2.4909,-2.5382,-2.478,-2.4357,-2.4164,-2.3069,-2.2476,-2.2402,-2.1647,-2.1186,-2.0866,-2.0565,-2.0089,-1.9578,-1.9266,-1.8889,-1.8589,-1.8299,-1.7471,-1.6363,-1.6208,-1.5773,-1.5214,-1.5059,-1.4997,-1.4914,0.0,0.0,0.0,0.0,0.0,0.0,0.0,0.0,0.0,0.0,0.0,0.0,0.0,0.0,0.0,0.0,0.0,0.0,0.0,0.0,0.0,0.0,0.0,0.0,0.0,0.0,0.0,0.0,0.0,0.0,0.0,-2.6194,-2.7205,-2.8858,-2.9346,-2.9726,-2.9988,-2.9391,-2.7209,-2.4018,-2.3622,-2.3479,-2.3404,0.0,0.0,0.0,0.0,0.0,0.0,0.0,0.0,0.0,0.0,0.0,0.0,0.0,0.0,0.0,0.0,0.0,0.0,0.0,0.0,0.0,0.0,0.0,0.0,0.0,0.0,0.0,0.0,0.0,0.0,0.0,0.0,0.0,-1.7654,-1.8289,-1.9062,-1.9812,-2.1244,-2.2061,-2.1883,-2.2973,-2.3949,-2.448,-2.4908,-2.5672,-2.6744,-2.5983,-2.5604,-2.5854,-2.4478,-2.3483,-2.3006,-2.2381,-2.2009,-2.1807,-2.1807,-2.1331,-2.0441,-2.0441,-1.9955,-1.9085,-1.9085,-1.9085,-1.9075,-1.9075,-1.8557,-1.7729,-1.7203,-1.6529,-1.5784,-1.6218,-1.5794,-1.4997,0.0,0.0,0.0,0.0,0.0,0.0,0.0,0.0,0.0,0.0,0.0,0.0,0.0,0.0,0.0,0.0,0.0,0.0,0.0,0.0,0.0,0.0,0.0,0.0,0.0,0.0,0.0,0.0,0.0,0.0,0.0,0.0,-2.8967,-3.0058,-3.0176,-3.046,-3.0874,-3.0669,-2.9501,-2.7494,-2.5667,-2.4463,-2.3654,0.0,0.0,0.0,0.0,0.0,0.0,0.0,0.0,0.0,0.0,0.0,0.0,0.0,0.0,0.0,0.0,0.0,0.0,0.0,0.0,0.0,0.0,0.0,0.0,0.0,0.0,0.0,0.0,0.0,0.0,0.0,0.0,-1.8524,-1.8487,-1.9916,-2.1408,-2.2504,-2.3934,-2.4994,-2.5333,-2.5926,-2.6237,-2.6383,-2.6686,-2.6664,-2.6348,-2.678,-2.6571,-2.5647,-2.4714,-2.4013,-2.3536,-2.2447,-2.1855,-2.1807,-2.1807,-2.1497,-2.0928,-2.0928,-2.0431,-1.964,-1.964,-1.9375,-1.9075,-1.9075,-1.892,-1.8661,-1.8195,-1.746,-1.6643,-1.6446,-1.5794,-1.5049,0.0,0.0,0.0,0.0,0.0,0.0,0.0,0.0,0.0,0.0,0.0,0.0,0.0,0.0,0.0,0.0,0.0,0.0,0.0,0.0,0.0,0.0,0.0,0.0,0.0,0.0,0.0,0.0,0.0,0.0,0.0,0.0,0.0,-3.1287,-3.1741,-3.2106,-3.2384,-3.2167,-3.146,-3.0259,-2.8057,-2.6442,-2.5236,-2.4494,-2.4205,-2.4139,-2.363,-2.3221,-2.292,-2.2836,0.0,0.0,0.0,0.0,0.0,0.0,0.0,0.0,0.0,0.0,0.0,0.0,0.0,0.0,0.0,0.0,0.0,0.0,0.0,0.0,0.0,0.0,0.0,0.0,-1.9716,-2.0794,-2.1256,-2.2359,-2.3604,-2.4868,-2.6186,-2.7162,-2.7422,-2.7551,-2.756,-2.756,-2.7191,-2.6848,-2.6581,-2.6493,-2.6086,-2.525,-2.4659,-2.3956,-2.3006,-2.2673,-2.2298,-2.1807,-2.2004,-2.1745,-2.1114,-2.1114,-2.0721,0.0,-1.9841,-1.9682,-1.9344,-1.9147,-1.8951,0.0,0.0,0.0,0.0,0.0,-1.6322,-1.5866,0.0,0.0,0.0,0.0,0.0,0.0,0.0,0.0,0.0,0.0,0.0,0.0,0.0,0.0,0.0,0.0,0.0,0.0,0.0,0.0,0.0,0.0,0.0,0.0,0.0,0.0,0.0,0.0,0.0,0.0,0.0,0.0,0.0,0.0,-3.3547,-3.4075,-3.4219,-3.3745,-3.3087,-3.2269,-3.0592,-2.8954,-2.738,-2.6035,-2.5865,-2.6166,-2.5118,-2.4296,-2.3701,-2.3575,0.0,0.0,0.0,0.0,0.0,0.0,0.0,0.0,0.0,0.0,0.0,0.0,0.0,0.0,0.0,0.0,0.0,0.0,0.0,0.0,0.0,0.0,0.0,0.0,-2.1943,-2.3828,-2.5021,-2.5247,-2.569,-2.6937,-2.7953,-2.856,-2.8494,-2.8355,-2.8223,-2.8131,-2.7137,-2.66,-2.6883,0.0,0.0,0.0,0.0,-2.3523,-2.2257,-2.2992,-2.2848,-2.189,-2.2242,-2.1963,-2.1114,-2.1114,-2.0866,-2.04,-2.0006,-1.99,-1.9869,-1.9396,-1.8951,-1.8568,-1.8878,-1.8744,-1.8288,-1.7481,-1.7069,-1.6935,0.0,0.0,0.0,0.0,0.0,0.0,0.0,0.0,0.0,0.0,0.0,0.0,0.0,0.0,0.0,0.0,0.0,0.0,0.0,0.0,0.0,0.0,0.0,0.0,0.0,0.0,0.0,0.0,0.0,0.0,0.0,0.0,0.0,0.0,0.0,-3.4674,-3.5117,-3.5047,-3.4257,-3.3072,-3.2593,-3.0783,-2.8259,-2.7321,-2.6751,-2.6302,-2.5693,-2.5399,-2.5178,-2.4447,-2.4235,-2.4113,-2.3354,0.0,0.0,0.0,0.0,0.0,0.0,0.0,0.0,0.0,0.0,0.0,0.0,0.0,0.0,0.0,0.0,0.0,0.0,0.0,0.0,-2.267,-2.4205,-2.5674,-2.7243,-2.7846,-2.8174,-2.8499,-2.8725,-2.9038,-2.9501,-2.9291,-2.8858,-2.8143,-2.7877,-2.7221,-2.5852,-2.5753,0.0,-2.4116,-2.4044,-2.3619,-2.2979,-2.2773,-2.2546,-2.2356,0.0,0.0,-2.1114,-2.1114,-2.0866,-2.042,-2.0338,-2.0296,-2.0296,-2.0203,-1.9893,-1.9427,-1.8775,-1.8464,-1.8361,-1.8185,-1.7667,-1.7018,0.0,0.0,0.0,0.0,0.0,0.0,0.0,0.0,0.0,0.0,0.0,0.0,0.0,0.0,0.0,0.0,0.0,0.0,0.0,0.0,0.0,0.0,0.0,0.0,0.0,0.0,0.0,0.0,0.0,0.0,0.0,0.0,0.0,0.0,0.0,0.0,-3.6274,-3.5943,-3.5449,-3.4723,-3.3396,-3.184,-3.0226,-2.8801,-2.8208,-2.7921,-2.6814,-2.6303,-2.6064,-2.5225,-2.4768,-2.4411,-2.3883,-2.3526,-2.3169,0.0,0.0,0.0,0.0,0.0,0.0,0.0,0.0,0.0,0.0,0.0,0.0,0.0,0.0,-2.0815,0.0,0.0,-2.3167,-2.4881,-2.6138,-2.7243,-2.836,-2.9001,-2.9365,-2.9365,-2.9263,-2.9133,-2.8937,-2.845,-2.7718,-2.6835,-2.6505,-2.5935,-2.5041,-2.5105,-2.4735,-2.3888,-2.3877,-2.3546,-2.2853,-2.307,-2.2956,-2.2501,-2.2729,-2.2604,-2.2149,-2.1911,-2.1683,-2.1435,-2.0969,-2.0845,-2.0876,-2.0498,-2.0243,-1.997,-1.9267,-1.8919,-1.8702,-1.8464,-1.8092,-1.7719,0.0,0.0,0.0,0.0,0.0,0.0,0.0,0.0,0.0,0.0,0.0,0.0,0.0,0.0,0.0,0.0,0.0,0.0,0.0,0.0,0.0,0.0,0.0,0.0,0.0,0.0,0.0,0.0,0.0,0.0,0.0,0.0,0.0,0.0,0.0,0.0,-3.7103,-3.6629,-3.6373,-3.6075,-3.3877,-3.2757,-3.2181,-3.0116,-2.9441,-2.9351,-2.7811,-2.7021,-2.6556,-2.5596,-2.489,-2.4368,-2.4043,-2.3512,-2.3012,-2.2801,-2.2077,0.0,0.0,0.0,0.0,0.0,0.0,0.0,0.0,0.0,-2.1932,-2.2621,-2.3155,-2.3769,-2.4465,-2.4962,-2.5661,-2.6753,-2.7783,-2.8586,-2.9038,-2.9503,-2.9754,-2.9641,-2.9369,-2.8937,-2.8223,-2.7395,-2.6494,-2.56,-2.5031,-2.47,-2.454,-2.4457,-2.4209,-2.3764,-2.3836,-2.3474,-2.2635,-2.3463,-2.3505,-2.277,-2.3432,-2.3557,-2.3163,-2.2708,-2.2501,-2.2449,-2.1686,-2.1397,-2.1555,-2.096,-2.0669,-2.0552,-2.0158,-1.9822,-1.9396,-1.8854,-1.8583,-1.8468,0.0,0.0,0.0,0.0,0.0,0.0,0.0,0.0,0.0,0.0,0.0,0.0,0.0,0.0,0.0,0.0,0.0,0.0,0.0,0.0,0.0,0.0,0.0,0.0,0.0,0.0,0.0,0.0,0.0,0.0,0.0,0.0,0.0,0.0,0.0,0.0,0.0,-3.7071,-3.6664,-3.5861,-3.4845,-3.4115,-3.327,-3.0817,-2.9523,-2.8885,-2.8039,-2.7299,-2.6438,-2.4893,-2.445,-2.4418,-2.356,-2.3261,-2.3106,-2.2404,0.0,-2.1589,-2.1589,-2.123,-2.087,-2.1029,-2.1303,-2.1724,0.0,0.0,-2.4359,-2.4371,-2.4929,-2.562,-2.6011,-2.6578,-2.7369,-2.8473,-2.9189,-2.9628,-2.9691,-2.9754,-2.9603,-2.9089,-2.8733,-2.8542,-2.8462,-2.7637,-2.6741,-2.583,-2.5663,-2.5348,-2.454,-2.4167,-2.3743,-2.3277,-2.366,-2.3629,-2.3111,-2.3619,-2.3826,-2.3722,-2.3412,-2.3236,-2.3163,-2.2708,-2.2501,-2.247,-2.2105,-2.2103,-2.2317,-2.2211,-2.1924,-2.1541,-2.1477,-2.12,-2.0652,-1.9783,-1.92,-1.8892,0.0,0.0,0.0,0.0,0.0,0.0,0.0,0.0,0.0,0.0,0.0,0.0,0.0,0.0,0.0,0.0,0.0,0.0,0.0,0.0,0.0,0.0,0.0,0.0,0.0,0.0,0.0,0.0,0.0,0.0,0.0,0.0,0.0,0.0,0.0,0.0,0.0,-3.7134,-3.6742,-3.5892,-3.5015,-3.3851,-3.2338,-3.0481,-2.8794,-2.7405,-2.6912,-2.6436,0.0,0.0,-2.4257,-2.4238,-2.3811,-2.3379,-2.3009,-2.2662,-2.2021,0.0,-2.1103,-2.1613,0.0,0.0,-2.3203,-2.4488,-2.5063,-2.617,-2.7238,-2.7954,-2.8227,-2.8514,-2.9012,-2.8898,-2.89,0.0,-2.9641,-2.9792,-2.9792,-2.9503,-2.9089,-2.8511,-2.7291,-2.6576,-2.6792,-2.6029,-2.5242,-2.437,-2.4554,-2.4556,-2.4157,-2.4219,-2.4178,-2.3981,-2.3908,-2.3784,-2.3588,-2.3784,-2.3877,-2.3877,-2.3939,-2.3836,-2.3588,-2.3391,-2.3008,-2.247,-2.231,-2.2327,-2.2381,-2.2348,-2.2258,-2.2053,-2.1772,-2.1534,-2.1204,-2.0332,-1.9892,-1.9711,0.0,0.0,0.0,0.0,0.0,0.0,0.0,0.0,0.0,0.0,0.0,0.0,0.0,0.0,0.0,0.0,0.0,0.0,0.0,0.0,0.0,0.0,0.0,0.0,0.0,0.0,0.0,0.0,0.0,0.0,0.0,0.0,0.0,0.0,0.0,0.0,0.0,0.0,-3.6416,-3.5552,-3.4534,-3.3005,-3.1166,-2.9621,-2.7634,-2.5676,-2.5595,-2.528,0.0,0.0,-2.3529,-2.3466,-2.3419,-2.3023,-2.2592,-2.2592,-2.1935,-2.1231,-2.1268,0.0,0.0,-2.3848,-2.5468,-2.7144,-2.7744,-2.8811,-2.9927,-3.0611,-3.0627,-3.0481,-3.0485,-2.9864,-2.9377,-2.9528,-2.9553,-2.9616,-2.9767,-2.9026,-2.8323,-2.7921,-2.578,-2.4526,-2.4958,-2.4349,-2.3673,-2.3078,-2.3546,-2.3877,-2.3877,-2.4188,-2.4364,-2.4364,-2.4043,-2.3877,-2.3877,-2.4002,-2.4064,-2.4064,-2.4385,-2.4374,-2.4053,-2.4013,-2.3606,-2.2972,-2.273,-2.268,-2.2713,-2.2548,-2.251,-2.2466,-2.2116,-2.1985,-2.192,-2.1161,-2.0679,-2.0422,0.0,0.0,0.0,0.0,0.0,0.0,0.0,0.0,0.0,0.0,0.0,0.0,0.0,0.0,0.0,0.0,0.0,0.0,0.0,0.0,0.0,0.0,0.0,0.0,0.0,0.0,0.0,0.0,0.0,0.0,0.0,0.0,0.0,0.0,0.0,0.0,0.0,0.0,-3.5654,-3.4601,-3.3237,-3.1782,-3.0202,-2.8291,-2.603,-2.3935,-2.4315,0.0,0.0,0.0,-2.1965,-2.1965,-2.1877,-2.1847,0.0,-2.1814,-2.1448,0.0,0.0,0.0,-2.4238,-2.65,-2.7915,-2.9053,-3.0235,-3.1467,-3.2105,-3.1267,-3.1208,-3.0824,-2.9287,-2.8511,-2.8335,-2.8863,-2.895,-2.9151,-2.9716,-2.8373,-2.7318,-2.7306,-2.4572,-2.2868,0.0,-2.2864,-2.2511,-2.2511,-2.336,-2.3877,-2.3877,-2.3888,-2.3898,-2.3898,-2.3888,-2.3877,-2.3877,-2.4312,-2.4519,-2.4519,-2.4444,-2.4444,-2.4509,-2.4242,-2.4182,-2.4162,-2.3608,-2.348,-2.3591,-2.3187,-2.2979,-2.2979,-2.2968,-2.2957,-2.2903,-2.2444,-2.1669,-2.0926,0.0,0.0,0.0,0.0,0.0,0.0,0.0,0.0,0.0,0.0,0.0,0.0,0.0,0.0,0.0,0.0,0.0,0.0,0.0,0.0,0.0,0.0,0.0,0.0,0.0,0.0,0.0,0.0,0.0,0.0,0.0,0.0,0.0,0.0,0.0,0.0,0.0,0.0,-3.381,-3.3175,-3.1331,-3.001,-2.8784,-2.6073,-2.4261,-2.3054,0.0,0.0,0.0,0.0,0.0,0.0,-2.1827,-2.1797,-2.1721,-2.1354,-2.1999,-2.2938,0.0,0.0,-2.6952,-2.8451,-3.0002,-3.15,-3.2295,-3.3166,-3.3307,-3.1755,-3.0455,-2.9118,-2.7287,-2.6362,-2.6226,-2.7143,-2.7908,-2.8574,-2.9139,-2.8737,-2.7833,-2.6339,-2.4716,0.0,0.0,0.0,0.0,-2.2014,-2.2904,-2.3422,-2.3422,-2.3991,-2.4322,-2.4322,-2.4322,-2.4322,-2.4322,-2.4467,-2.454,-2.454,-2.4324,-2.4493,-2.4925,-2.4228,-2.4115,-2.4373,-2.3681,-2.3675,-2.4013,-2.3602,-2.3482,-2.3482,-2.3482,-2.3285,-2.2979,-2.2826,-2.2368,-2.1811,0.0,0.0,0.0,0.0,0.0,0.0,0.0,0.0,0.0,0.0,0.0,0.0,0.0,0.0,0.0,0.0,0.0,0.0,0.0,0.0,0.0,0.0,0.0,0.0,0.0,0.0,0.0,0.0,0.0,0.0,0.0,0.0,0.0,0.0,0.0,0.0,0.0,0.0,0.0,-3.0375,-2.8792,-2.752,-2.6363,-2.4257,-2.276,0.0,0.0,0.0,0.0,0.0,0.0,0.0,-2.1678,-2.1673,-2.1778,-2.1779,-2.2942,-2.439,-2.53,-2.7262,-2.9356,-3.0717,-3.2106,-3.3296,-3.3703,-3.3775,-3.3157,-3.1059,-2.9135,-2.7141,-2.5053,-2.4109,-2.3991,-2.5096,-2.6038,-2.7042,-2.8185,-2.7996,-2.7276,-2.6148,-2.4779,-2.3486,0.0,0.0,0.0,-2.1549,-2.2573,-2.3184,-2.3184,-2.4053,-2.454,-2.454,-2.454,-2.454,-2.454,-2.454,-2.454,-2.454,-2.4503,-2.4672,-2.5179,-2.4655,-2.463,-2.4959,-2.4346,-2.4165,-2.4263,-2.3852,-2.3733,-2.3733,-2.3733,-2.3646,-2.3504,-2.3329,-2.3078,-2.275,0.0,0.0,0.0,0.0,0.0,0.0,0.0,0.0,0.0,0.0,0.0,0.0,0.0,0.0,0.0,0.0,0.0,0.0,0.0,0.0,0.0,0.0,0.0,0.0,-2.4327,-2.6639,-2.7646,-2.7347,0.0,0.0,0.0,0.0,0.0,0.0,0.0,0.0,0.0,0.0,0.0,-2.658,-2.5761,-2.4565,-2.3249,-2.2833,0.0,0.0,0.0,0.0,0.0,0.0,0.0,0.0,0.0,-2.163,-2.2106,-2.3079,-2.4216,-2.5803,-2.8657,-3.0146,-3.136,-3.3323,-3.4083,-3.4356,-3.4327,-3.3311,-3.166,-2.9127,-2.7133,-2.502,0.0,0.0,-2.1782,-2.2949,-2.369,-2.4883,-2.7067,-2.6477,-2.6077,0.0,0.0,0.0,0.0,0.0,0.0,-2.1248,0.0,-2.3194,-2.3215,-2.4064,-2.454,-2.454,-2.454,-2.454,-2.454,-2.454,-2.454,-2.454,-2.4786,-2.5031,-2.52,-2.5475,-2.5728,-2.5874,-2.5382,-2.4934,-2.4519,-2.4017,-2.3809,-2.3809,-2.3809,-2.4082,-2.4432,-2.3919,-2.3733,-2.3667,0.0,0.0,0.0,0.0,0.0,0.0,0.0,0.0,0.0,0.0,0.0,0.0,0.0,0.0,0.0,0.0,0.0,0.0,0.0,0.0,0.0,0.0,0.0,0.0,0.0,-2.3465,-2.4021,-2.3881,0.0,0.0,0.0,0.0,0.0,0.0,0.0,0.0,0.0,0.0,0.0,-2.5625,0.0,-2.3203,-2.3117,0.0,0.0,0.0,0.0,0.0,0.0,0.0,0.0,0.0,0.0,-2.3406,-2.478,-2.5229,-2.6868,-2.8988,-3.0919,-3.2284,-3.3515,-3.4971,-3.4736,-3.3965,-3.348,-3.1874,-2.9739,-2.6856,-2.4407,-2.2005,0.0,0.0,0.0,-2.2824,-2.4708,0.0,-2.826,-2.8637,0.0,-2.6394,0.0,-2.5088,-2.3504,-2.3019,0.0,0.0,-2.2987,-2.3339,-2.3681,-2.424,-2.454,-2.454,-2.454,-2.454,-2.454,-2.454,-2.47,-2.5031,-2.5115,-2.5285,-2.5728,-2.5812,-2.5812,-2.5874,-2.5382,-2.5306,-2.5502,-2.5011,-2.4803,-2.4803,-2.4803,-2.4672,-2.4432,-2.3919,-2.3733,-2.3711,0.0,0.0,0.0,0.0,0.0,0.0,0.0,0.0,0.0,0.0,0.0,0.0,0.0,0.0,0.0,0.0,0.0,0.0,0.0,0.0,0.0,0.0,0.0,0.0,0.0,0.0,0.0,0.0,0.0,0.0,0.0,0.0,0.0,0.0,0.0,0.0,0.0,0.0,0.0,0.0,0.0,0.0,0.0,0.0,0.0,0.0,0.0,0.0,0.0,0.0,0.0,-2.346,-2.4011,-2.5453,-2.7086,-2.7803,0.0,-3.1657,-3.3212,-3.4243,-3.506,-3.5851,-3.4779,-3.3299,-3.2294,-3.0105,-2.7434,-2.4396,-2.1997,0.0,0.0,0.0,0.0,0.0,0.0,0.0,-2.7193,-2.8447,-2.8473,0.0,-2.6788,0.0,-2.3876,-2.3573,-2.3494,0.0,-2.3494,-2.3598,-2.3867,-2.4302,-2.454,-2.454,-2.454,-2.454,-2.47,-2.47,-2.4861,-2.52,-2.5295,-2.5549,-2.5738,-2.5822,-2.5895,-2.5884,0.0,-2.5524,-2.5557,-2.5284,-2.5175,-2.5175,-2.5175,-2.5142,-2.5043,-2.4552,-2.4366,-2.4301,0.0,0.0,0.0,0.0,0.0,0.0,0.0,0.0,0.0,0.0,0.0,0.0,0.0,0.0,0.0,0.0,0.0,0.0,0.0,0.0,0.0,0.0,0.0,0.0,0.0,0.0,0.0,0.0,0.0,0.0,0.0,0.0,0.0,0.0,0.0,0.0,0.0,0.0,0.0,0.0,0.0,0.0,0.0,0.0,0.0,0.0,0.0,0.0,0.0,0.0,-2.3534,-2.4655,-2.5986,-2.7659,-2.9355,-3.0552,-3.2124,-3.3835,-3.523,-3.5829,-3.6043,-3.6193,-3.4451,-3.2281,-3.0866,-2.8045,-2.4858,-2.1911,0.0,-1.8362,-1.6771,0.0,-1.7949,-1.9158,0.0,-2.3238,-2.5665,-2.7379,-2.8102,-2.7428,-2.7395,-2.6572,-2.4398,-2.4044,-2.4044,-2.4044,-2.4044,-2.4044,-2.4044,-2.4418,-2.4625,-2.4625,-2.4625,-2.47,-2.4946,-2.4946,-2.5031,-2.5285,-2.5475,-2.5644,-2.5654,-2.5812,-2.5895,-2.5895,0.0,0.0,-2.5273,-2.5273,-2.5273,-2.5273,-2.5273,-2.5524,-2.5841,-2.5349,-2.5175,-2.5054,0.0,0.0,0.0,0.0,0.0,0.0,0.0,0.0,0.0,0.0,0.0,0.0,0.0,0.0,0.0,0.0,0.0,0.0,0.0,0.0,0.0,0.0,0.0,0.0,0.0,0.0,0.0,0.0,0.0,0.0,0.0,0.0,0.0,0.0,0.0,0.0,0.0,0.0,0.0,0.0,0.0,0.0,0.0,0.0,0.0,0.0,0.0,0.0,0.0,0.0,-2.4297,-2.5693,-2.7585,-2.9858,-3.1988,-3.2751,-3.4008,-3.526,-3.6103,-3.6335,-3.641,-3.641,-3.3677,-3.0651,-2.943,-2.5799,0.0,0.0,0.0,-1.7395,-1.6633,-1.7453,0.0,-2.074,0.0,0.0,0.0,0.0,-2.8276,0.0,0.0,0.0,0.0,0.0,0.0,0.0,0.0,-2.4914,-2.4756,-2.4988,-2.5115,-2.5115,-2.5115,-2.5115,-2.5115,-2.5115,-2.5295,-2.5559,-2.5559,-2.5644,-2.5812,-2.5895,-2.5895,-2.5895,-2.5895,0.0,-2.5775,-2.5775,-2.5775,-2.5775,-2.5775,-2.583,-2.5841,-2.5349,-2.5175,-2.5153,0.0,0.0,0.0,0.0,0.0,0.0,0.0,0.0,0.0,0.0,-2.2605,0.0,0.0,0.0,0.0,0.0,0.0,0.0,0.0,0.0,0.0,0.0,0.0,0.0,0.0,0.0,0.0,0.0,0.0,0.0,0.0,0.0,0.0,0.0,0.0,0.0,0.0,0.0,0.0,0.0,0.0,0.0,0.0,0.0,0.0,0.0,0.0,0.0,0.0,0.0,-2.3759,-2.5091,-2.8143,-3.0672,-3.2647,-3.3305,-3.4457,-3.5654,-3.6312,-3.6179,-3.579,-3.5383,-3.2105,-2.854,-2.6983,0.0,0.0,0.0,-1.7552,-1.6837,-1.6663,0.0,0.0,0.0,0.0,0.0,0.0,0.0,0.0,0.0,0.0,0.0,0.0,0.0,0.0,0.0,0.0,-2.5295,-2.5031,-2.5115,-2.52,-2.52,-2.52,-2.5285,-2.538,-2.538,-2.5559,-2.5738,-2.5738,-2.5812,-2.5895,-2.5895,-2.5895,-2.5895,-2.5895,0.0,-2.5895,-2.5895,-2.5895,-2.5895,-2.5895,-2.5895,-2.5874,-2.5633,-2.5546,-2.5513,0.0,0.0,0.0,0.0,0.0,0.0,0.0,-2.2579,-2.2515,-2.2515,-2.246,-2.2432,-2.2487,-2.246,0.0,0.0,0.0,0.0,0.0,0.0,0.0,0.0,0.0,0.0,0.0,0.0,0.0,0.0,0.0,0.0,0.0,0.0,0.0,0.0,0.0,0.0,0.0,0.0,0.0,0.0,0.0,0.0,0.0,0.0,0.0,0.0,0.0,0.0,0.0,0.0,-2.2787,-2.3789,-2.7215,-2.9953,-3.2048,-3.2841,-3.3988,-3.5219,-3.5874,-3.5541,-3.4831,-3.3854,-3.0338,-2.6665,-2.4733,-2.1512,0.0,0.0,-1.6947,-1.662,-1.6675,0.0,0.0,0.0,0.0,0.0,0.0,0.0,0.0,0.0,0.0,0.0,0.0,0.0,0.0,0.0,0.0,0.0,-2.5369,-2.5369,-2.5369,-2.5369,-2.5369,-2.5464,-2.5644,-2.5644,-2.5728,-2.5895,-2.5895,-2.5895,-2.5895,-2.5895,-2.5895,-2.5895,-2.5895,0.0,0.0,-2.5895,-2.5895,-2.5895,-2.5895,-2.5895,-2.5895,-2.5895,-2.5812,-2.5589,0.0,0.0,0.0,0.0,0.0,0.0,0.0,-2.2825,-2.2515,-2.2515,-2.2487,-2.246,-2.2422,-2.2349,0.0,0.0,0.0,0.0,0.0,0.0,0.0,0.0,0.0,0.0,0.0,0.0,0.0,0.0,0.0,0.0,0.0,0.0,0.0,0.0,0.0,0.0,0.0,0.0,0.0,0.0,0.0,0.0,0.0,0.0,0.0,0.0,0.0,0.0,0.0,0.0,0.0,-2.2143,-2.367,-2.6767,-3.0103,-3.1345,0.0,0.0,-3.4307,-3.4407,-3.3861,-3.2058,-2.8699,-2.5397,-2.3619,0.0,0.0,-1.7057,-1.6918,-1.6833,-1.6718,-1.63,0.0,0.0,0.0,0.0,0.0,0.0,0.0,0.0,0.0,0.0,0.0,0.0,0.0,0.0,0.0,0.0,-2.5812,-2.5812,-2.5812,-2.5812,-2.5812,-2.5812,-2.5895,-2.5895,-2.5895,-2.5895,-2.5895,-2.5895,-2.5895,-2.5895,-2.5895,-2.5895,-2.5895,0.0,0.0,-2.5895,-2.5895,-2.5895,-2.5895,-2.5895,-2.5895,-2.5895,-2.5549,-2.5031,0.0,0.0,0.0,0.0,0.0,0.0,0.0,-2.2314,-2.2394,-2.2394,-2.2394,-2.2366,-2.2338,-2.231,0.0,0.0,0.0,0.0,0.0,0.0,0.0,0.0,0.0,0.0,0.0,0.0,0.0,0.0,0.0,0.0,0.0,0.0,0.0,0.0,0.0,0.0,0.0,0.0,0.0,0.0,0.0,0.0,0.0,0.0,0.0,0.0,0.0,0.0,0.0,0.0,0.0,0.0,-2.0809,-2.2723,0.0,0.0,-2.9477,-3.1123,-3.1861,-3.2258,-3.1969,-3.031,-2.702,-2.3752,-2.218,0.0,0.0,-1.7002,-1.6846,-1.6675,-1.6349,-1.602,-1.5888,0.0,0.0,0.0,0.0,0.0,0.0,0.0,0.0,0.0,0.0,0.0,0.0,0.0,0.0,0.0,-2.5895,-2.5895,-2.5895,-2.5895,-2.5895,-2.5895,-2.5895,-2.5895,-2.5895,-2.5895,-2.5895,-2.5895,-2.5895,-2.5895,-2.5895,-2.5895,-2.5895,0.0,0.0,-2.5895,-2.5895,-2.5895,-2.5895,-2.5895,-2.5895,-2.5895,-2.5464,-2.4861,0.0,0.0,0.0,0.0,0.0,0.0,-2.1562,-2.1993,-2.231,-2.231,-2.231,-2.2254,-2.2152,-2.2152,-2.2106,-2.202,0.0,0.0,0.0,0.0,0.0,0.0,0.0,0.0,0.0,0.0,0.0,0.0,0.0,0.0,0.0,0.0,0.0,0.0,0.0,0.0,0.0,0.0,0.0,0.0,0.0,0.0,0.0,0.0,0.0,0.0,0.0,0.0,0.0,0.0,0.0,0.0,0.0,0.0,0.0,0.0,-2.6381,-2.8197,-2.9012,-2.9416,-2.9228,-2.7588,-2.4872,-2.2169,0.0,0.0,0.0,-1.7002,-1.6748,-1.6436,-1.6076,-1.5668,-1.5344,0.0,0.0,-1.5649,0.0,0.0,0.0,0.0,0.0,0.0,0.0,0.0,0.0,0.0,0.0,0.0,0.0,-2.5895,-2.5841,-2.5688,-2.583,-2.583,-2.5688,-2.583,-2.5895,-2.5895,-2.5895,-2.5895,-2.5895,-2.5895,-2.5895,-2.5895,0.0,0.0,0.0,-2.5895,-2.5895,-2.5895,-2.5895,-2.5812,-2.5644,-2.5644,-2.5031,-2.4262,0.0,0.0,0.0,0.0,0.0,0.0,0.0,-2.2125,-2.231,-2.231,-2.231,-2.218,-2.1857,-2.1827,-2.1661,-2.1339,0.0,0.0,0.0,0.0,0.0,0.0,0.0,0.0,0.0,0.0,0.0,0.0,0.0,0.0,0.0,0.0,0.0,0.0,0.0,0.0,0.0,0.0,0.0,0.0,0.0,0.0,0.0,0.0,0.0,0.0,0.0,0.0,0.0,0.0,0.0,0.0,0.0,0.0,0.0,0.0,-2.354,-2.4966,-2.5876,-2.6015,-2.5383,-2.3373,-2.2115,-2.0849,0.0,0.0,-1.7002,-1.7002,-1.6527,-1.6083,-1.602,-1.5187,-1.4501,-1.4501,-1.4362,0.0,-1.6303,0.0,0.0,0.0,0.0,0.0,0.0,0.0,0.0,0.0,0.0,0.0,0.0,-2.5895,-2.5677,-2.5196,-2.5644,-2.5666,-2.5185,-2.5666,-2.5895,-2.5895,-2.5895,-2.5895,-2.5895,-2.5895,-2.5895,0.0,0.0,0.0,0.0,-2.5895,-2.5895,-2.5895,-2.5895,-2.5464,-2.4946,-2.4946,-2.4003,-2.2803,0.0,0.0,0.0,0.0,0.0,0.0,0.0,-2.2125,-2.231,-2.231,-2.231,-2.218,-2.1827,-2.1797,-2.1661,-2.1339,0.0,0.0,0.0,0.0,0.0,0.0,0.0,0.0,0.0,0.0,0.0,0.0,0.0,0.0,0.0,0.0,0.0,0.0,0.0,0.0,0.0,0.0,0.0,0.0,0.0,0.0,0.0,0.0,0.0,0.0,0.0,0.0,0.0,0.0,0.0,0.0,0.0,0.0,0.0,0.0,0.0,0.0,-2.2858,-2.3471,-2.3754,-2.2605,-2.1276,-1.9989,-1.89,0.0,-1.6976,-1.6484,-1.6244,-1.5852,-1.5119,-1.472,-1.4565,-1.4751,-1.4634,-1.4849,0.0,0.0,0.0,0.0,0.0,0.0,0.0,0.0,0.0,0.0,0.0,0.0,0.0,-2.559,-2.548,-2.5666,-2.5491,-2.5327,-2.5175,-2.5327,-2.5404,-2.5404,-2.5742,-2.5895,-2.5895,-2.5895,0.0,0.0,0.0,0.0,0.0,-2.5895,-2.5895,-2.5895,-2.5895,-2.5464,-2.4861,-2.4861,-2.4003,-2.2803,0.0,0.0,0.0,0.0,0.0,0.0,0.0,-2.1747,-2.2209,-2.1921,-2.2141,-2.2123,-2.1661,-2.1615,-2.1432,-2.0958,0.0,0.0,0.0,0.0,0.0,0.0,0.0,0.0,0.0,0.0,0.0,0.0,0.0,0.0,0.0,0.0,0.0,0.0,0.0,0.0,0.0,0.0,0.0,0.0,0.0,0.0,-1.9346,0.0,0.0,0.0,0.0,0.0,0.0,0.0,0.0,0.0,0.0,0.0,0.0,0.0,-1.8394,0.0,0.0,-2.0884,-2.1407,-2.0681,-1.9846,0.0,0.0,0.0,-1.6765,-1.6201,-1.5796,-1.5365,-1.4628,-1.4419,-1.4378,-1.4623,-1.4741,-1.5131,-1.5902,0.0,0.0,0.0,0.0,0.0,0.0,0.0,0.0,0.0,0.0,0.0,0.0,-2.5338,-2.5229,-2.536,-2.5076,-2.4825,-2.4628,-2.4989,-2.5175,-2.5175,-2.5666,-2.5895,-2.5895,-2.5895,0.0,0.0,0.0,0.0,0.0,-2.5549,-2.5549,-2.5464,-2.52,-2.468,-2.409,-2.409,-2.3396,-2.2353,0.0,0.0,0.0,0.0,0.0,0.0,0.0,0.0,0.0,0.0,-2.1843,-2.202,-2.137,-2.1276,0.0,0.0,0.0,0.0,0.0,0.0,0.0,0.0,0.0,0.0,0.0,0.0,0.0,-2.0304,-2.0304,-2.0304,-2.0304,0.0,0.0,0.0,0.0,0.0,0.0,0.0,0.0,0.0,0.0,0.0,0.0,0.0,0.0,0.0,0.0,0.0,0.0,0.0,0.0,0.0,0.0,0.0,0.0,0.0,0.0,0.0,0.0,0.0,0.0,0.0,0.0,0.0,0.0,0.0,0.0,-1.6071,-1.532,-1.4674,-1.4545,-1.4266,-1.4078,-1.4273,-1.479,-1.5576,0.0,0.0,0.0,0.0,0.0,0.0,0.0,0.0,0.0,0.0,0.0,0.0,0.0,-2.5142,-2.4912,-2.4454,-2.4399,-2.4192,-2.3787,-2.4672,-2.5142,-2.5175,-2.5666,-2.5895,-2.5895,-2.5812,0.0,0.0,0.0,0.0,0.0,-2.4861,-2.4861,-2.4765,-2.4059,-2.3387,-2.2803,-2.2803,-2.2353,-2.1741,0.0,0.0,0.0,0.0,0.0,0.0,0.0,0.0,0.0,0.0,0.0,-2.1751,-2.1339,-2.1071,0.0,0.0,0.0,0.0,0.0,0.0,0.0,0.0,0.0,0.0,0.0,0.0,0.0,-2.0304,-2.0304,-2.0304,-2.0304,-2.0304,0.0,0.0,0.0,0.0,0.0,0.0,0.0,0.0,0.0,0.0,0.0,0.0,0.0,0.0,-1.8389,-1.8496,0.0,0.0,0.0,0.0,0.0,0.0,0.0,0.0,-1.7044,-1.707,-1.7213,0.0,-1.7565,-1.7392,-1.7408,0.0,0.0,0.0,0.0,0.0,0.0,0.0,0.0,-1.4376,-1.4424,-1.5267,-1.5747,-1.6276,-1.7026,0.0,0.0,0.0,0.0,0.0,0.0,0.0,0.0,0.0,0.0,0.0,0.0,-2.4836,-2.4421,-2.3919,-2.3547,-2.3656,-2.4301,-2.4541,-2.4825,-2.5175,-2.5666,-2.5895,-2.5895,-2.538,0.0,0.0,0.0,0.0,-2.4059,-2.4059,-2.4059,-2.4059,-2.3887,-2.3387,-2.2803,-2.2803,-2.2353,-2.1741,0.0,0.0,0.0,0.0,0.0,0.0,0.0,0.0,0.0,0.0,0.0,0.0,0.0,0.0,0.0,0.0,0.0,0.0,0.0,0.0,0.0,0.0,0.0,0.0,0.0,0.0,0.0,0.0,0.0,-2.0166,0.0,0.0,0.0,0.0,0.0,0.0,0.0,0.0,0.0,0.0,-1.9031,0.0,0.0,0.0,0.0,0.0,-1.7605,-1.7735,0.0,-1.7746,-1.7679,-1.7475,0.0,0.0,0.0,0.0,-1.7073,-1.7031,-1.682,-1.682,-1.6947,-1.7157,-1.7031,-1.6808,0.0,0.0,0.0,0.0,0.0,0.0,0.0,0.0,0.0,0.0,-1.6045,0.0,0.0,0.0,0.0,0.0,0.0,0.0,0.0,0.0,0.0,0.0,0.0,0.0,0.0,-2.4399,-2.3908,-2.3405,-2.3143,-2.3263,-2.3798,-2.4028,-2.4377,-2.4858,-2.5338,-2.5677,-2.5895,-2.5211,-2.468,0.0,0.0,0.0,-2.3387,-2.3387,-2.3387,-2.3299,-2.294,-2.2599,-2.2274,-2.2274,-2.1998,-2.1741,0.0,0.0,0.0,0.0,0.0,0.0,0.0,0.0,0.0,0.0,0.0,0.0,0.0,0.0,0.0,0.0,0.0,0.0,0.0,0.0,0.0,0.0,0.0,0.0,0.0,0.0,0.0,0.0,0.0,0.0,0.0,0.0,-2.0111,0.0,0.0,0.0,0.0,0.0,0.0,0.0,-1.8189,0.0,0.0,0.0,0.0,0.0,0.0,0.0,0.0,-1.7411,-1.7475,-1.7199,-1.7199,0.0,0.0,0.0,0.0,0.0,-1.665,-1.6479,-1.6509,-1.6892,-1.6723,-1.6423,0.0,0.0,0.0,0.0,0.0,0.0,0.0,0.0,0.0,0.0,0.0,0.0,0.0,0.0,0.0,0.0,0.0,0.0,0.0,0.0,0.0,0.0,0.0,0.0,0.0,-2.3962,-2.3504,-2.3012,-2.3001,-2.3001,-2.3001,-2.3482,-2.3984,-2.4497,-2.488,-2.5317,-2.5608,-2.4925,-2.4265,0.0,0.0,0.0,-2.2618,-2.2618,-2.2618,-2.2539,-2.1909,-2.1741,-2.1741,-2.1741,-2.1741,-2.1741,0.0,0.0,0.0,0.0,0.0,0.0,0.0,0.0,0.0,0.0,0.0,0.0,0.0,0.0,0.0,0.0,0.0,0.0,0.0,0.0,0.0,0.0,0.0,0.0,0.0,0.0,0.0,0.0,0.0,0.0,-1.9515,-1.9848,-2.0005,-2.0041,0.0,0.0,-1.9762,-1.9295,-1.9126,-1.9103,-1.8035,0.0,0.0,0.0,0.0,0.0,0.0,0.0,0.0,-1.7098,-1.724,-1.7199,-1.7086,0.0,0.0,0.0,0.0,0.0,-1.682,-1.6423,-1.592,-1.6008,-1.6182,-1.6139,0.0,0.0,0.0,0.0,0.0,0.0,0.0,0.0,0.0,0.0,0.0,0.0,0.0,0.0,0.0,0.0,0.0,0.0,0.0,0.0,0.0,0.0,0.0,0.0,0.0,-2.3766,-2.3504,-2.3012,-2.3001,-2.3001,-2.3001,-2.3482,-2.3984,-2.4486,-2.4563,-2.4492,-2.4324,-2.3678,-2.3222,0.0,0.0,-2.1998,-2.183,-2.183,-2.183,-2.182,-2.1741,-2.1741,-2.1741,-2.1741,-2.1741,-2.1741,0.0,0.0,0.0,0.0,0.0,0.0,0.0,0.0,0.0,0.0,0.0,0.0,0.0,0.0,0.0,0.0,0.0,0.0,0.0,0.0,0.0,0.0,0.0,0.0,0.0,0.0,0.0,0.0,0.0,-1.9435,-1.9281,-1.9566,-1.9617,-1.9508,0.0,-1.9184,-1.9072,-1.886,-1.8784,-1.8688,0.0,0.0,0.0,0.0,0.0,0.0,0.0,0.0,0.0,0.0,-1.7157,-1.7073,-1.7002,0.0,0.0,0.0,0.0,0.0,-1.6324,-1.6107,-1.5744,-1.549,-1.5932,-1.6238,0.0,0.0,0.0,0.0,0.0,0.0,0.0,0.0,0.0,0.0,0.0,0.0,0.0,0.0,0.0,0.0,0.0,0.0,0.0,0.0,0.0,0.0,0.0,0.0,0.0,0.0,-2.323,-2.3012,-2.3001,-2.3001,-2.3001,-2.322,-2.3591,-2.4082,-2.4082,-2.3996,-2.378,-2.3296,-2.2853,-2.2457,0.0,-2.1741,-2.1741,-2.1741,-2.1741,-2.1741,-2.1741,-2.1741,-2.1741,-2.1741,-2.1741,-2.1741,0.0,0.0,0.0,0.0,0.0,0.0,0.0,0.0,0.0,0.0,0.0,0.0,0.0,0.0,0.0,0.0,0.0,0.0,0.0,0.0,0.0,0.0,0.0,0.0,0.0,0.0,-1.895,-1.895,-1.895,-1.8974,-1.902,-1.8945,-1.8921,0.0,0.0,0.0,-1.85,-1.8383,-1.8344,-1.8249,0.0,0.0,0.0,0.0,0.0,0.0,0.0,0.0,0.0,0.0,0.0,0.0,0.0,0.0,0.0,-1.6765,-1.6411,-1.5964,-1.5976,-1.5788,-1.5579,0.0,0.0,0.0,0.0,0.0,0.0,0.0,0.0,0.0,0.0,0.0,0.0,0.0,0.0,0.0,0.0,0.0,0.0,0.0,0.0,0.0,0.0,0.0,0.0,0.0,0.0,0.0,0.0,0.0,-2.3001,-2.3001,-2.3001,-2.3001,-2.3001,-2.3001,-2.3187,-2.3558,-2.3406,-2.3257,-2.3078,-2.2804,-2.2477,-2.1902,-2.1734,-2.1741,-2.1741,-2.1741,-2.1741,-2.1741,-2.1741,-2.1741,-2.1741,-2.1741,-2.1741,-2.1741,0.0,0.0,0.0,0.0,0.0,0.0,0.0,0.0,0.0,0.0,0.0,0.0,0.0,0.0,0.0,0.0,0.0,0.0,0.0,0.0,0.0,0.0,0.0,0.0,0.0,-1.8539,-1.8553,-1.8553,-1.8553,-1.8553,-1.8539,-1.7747,-1.7787,-1.85,0.0,0.0,-1.8461,-1.8028,-1.7828,-1.7787,-1.6837,0.0,0.0,0.0,0.0,0.0,0.0,0.0,0.0,0.0,0.0,0.0,0.0,0.0,-1.6157,-1.6157,-1.5599,-1.522,-1.6207,-1.5812,-1.5232,-1.5668,0.0,0.0,0.0,0.0,0.0,0.0,0.0,0.0,0.0,0.0,0.0,0.0,0.0,0.0,0.0,0.0,0.0,0.0,0.0,0.0,0.0,0.0,0.0,0.0,0.0,0.0,0.0,0.0,0.0,-2.3001,-2.3001,-2.3001,-2.3001,-2.3001,-2.3023,-2.3045,-2.2456,-2.2087,-2.1919,-2.1709,-2.1447,-2.1213,-2.1557,-2.1741,-2.1741,-2.1741,-2.1741,-2.1741,-2.1741,-2.1741,-2.1741,-2.1741,-2.1741,-2.1741,0.0,0.0,0.0,0.0,0.0,0.0,0.0,0.0,0.0,0.0,0.0,0.0,0.0,0.0,0.0,0.0,0.0,0.0,0.0,0.0,0.0,0.0,0.0,-1.7557,-1.7516,-1.7868,-1.8028,-1.7988,-1.8028,-1.8068,-1.8068,-1.772,0.0,0.0,0.0,0.0,-1.7679,-1.7393,-1.7352,-1.738,-1.7059,-1.6689,0.0,0.0,0.0,0.0,0.0,0.0,0.0,0.0,-1.6223,-1.6312,0.0,0.0,-1.5478,-1.5644,-1.5242,-1.4892,-1.5457,-1.5379,-1.5153,-1.5322,0.0,0.0,0.0,0.0,0.0,0.0,0.0,0.0,0.0,0.0,0.0,0.0,0.0,0.0,0.0,0.0,0.0,0.0,0.0,0.0,0.0,0.0,0.0,0.0,0.0,0.0,0.0,0.0,0.0,-2.2564,-2.2575,-2.2717,-2.3001,-2.3001,-2.2777,-2.2478,-2.2628,-2.226,-2.1446,-2.1858,-2.1601,-2.0778,-2.1447,-2.1741,-2.1741,-2.1741,-2.1741,-2.1741,-2.1741,-2.1741,-2.1741,-2.1741,-2.1741,-2.1741,0.0,0.0,0.0,0.0,0.0,0.0,0.0,0.0,0.0,0.0,0.0,0.0,0.0,0.0,0.0,0.0,0.0,0.0,0.0,0.0,0.0,0.0,0.0,-1.7086,-1.6846,-1.7282,-1.7475,-1.7434,-1.7475,-1.7516,-1.7557,0.0,0.0,0.0,0.0,0.0,0.0,-1.7044,-1.7044,-1.7157,-1.7199,-1.6977,0.0,0.0,0.0,0.0,0.0,0.0,0.0,0.0,0.0,0.0,0.0,0.0,0.0,0.0,-1.4926,-1.4801,-1.522,-1.5187,-1.5153,0.0,0.0,0.0,0.0,0.0,0.0,0.0,0.0,0.0,0.0,0.0,0.0,0.0,0.0,0.0,0.0,0.0,0.0,0.0,0.0,0.0,0.0,0.0,0.0,0.0,0.0,0.0,0.0,0.0,0.0,0.0,-2.2084,-2.2313,-2.2783,-2.2783,-2.2563,-2.2101,-2.2553,-2.209,-2.0886,-2.1526,-2.1339,-2.0567,-2.1383,-2.1741,-2.1741,-2.1741,-2.1741,-2.1741,-2.1741,-2.1741,-2.1741,-2.1741,-2.1741,-2.1741,0.0,0.0,0.0,0.0,0.0,0.0,0.0,0.0,0.0,0.0,0.0,0.0,0.0,0.0,0.0,0.0,0.0,0.0,0.0,0.0,0.0,0.0,0.0,-1.724,-1.6718,-1.6846,-1.6876,-1.6876,-1.6876,-1.6918,-1.7002,-1.7002,0.0,0.0,0.0,0.0,0.0,0.0,-1.7002,-1.7002,-1.7157,-1.7199,-1.7133,0.0,0.0,0.0,0.0,0.0,0.0,0.0,0.0,0.0,0.0,0.0,0.0,0.0,-1.4698,-1.4835,-1.5611,-1.5445,0.0,0.0,0.0,0.0,0.0,0.0,0.0,0.0,0.0,0.0,0.0,0.0,0.0,0.0,0.0,0.0,0.0,0.0,0.0,0.0,0.0,0.0,0.0,0.0,0.0,0.0,0.0,0.0,0.0,0.0,0.0,0.0,-2.1581,-2.1811,-2.2302,-2.2313,-2.225,-2.2101,-2.209,-2.1395,-2.0196,-2.0393,-2.0521,-2.0567,-2.1383,-2.1741,-2.1741,-2.1741,-2.1741,-2.1741,-2.1741,-2.1741,-2.1741,-2.1741,-2.1741,-2.1741,0.0,0.0,0.0,0.0,0.0,0.0,0.0,0.0,0.0,0.0,0.0,0.0,0.0,0.0,0.0,0.0,0.0,0.0,0.0,0.0,0.0,0.0,0.0,0.0,0.0,0.0,-1.6693,-1.6876,-1.6876,-1.6918,0.0,0.0,0.0,-1.6918,0.0,0.0,0.0,0.0,-1.696,-1.7002,-1.7157,-1.7199,-1.7186,0.0,0.0,0.0,0.0,0.0,0.0,0.0,0.0,0.0,0.0,0.0,0.0,-1.414,-1.4269,-1.4398,-1.4731,0.0,0.0,0.0,0.0,0.0,0.0,0.0,0.0,0.0,0.0,0.0,0.0,0.0,0.0,0.0,0.0,0.0,0.0,0.0,0.0,0.0,0.0,0.0,0.0,0.0,0.0,0.0,0.0,0.0,0.0,0.0,0.0,0.0,-2.1079,-2.1308,-2.18,-2.1811,-2.1528,-2.0927,-2.0602,-2.0402,-2.0196,-2.0895,-2.095,-2.0567,-2.1383,-2.1741,-2.1741,-2.1741,-2.1741,-2.1741,-2.1741,-2.1741,-2.1741,-2.1741,-2.1741,-2.1741,0.0,0.0,0.0,0.0,0.0,0.0,0.0,0.0,0.0,0.0,0.0,0.0,0.0,0.0,0.0,0.0,0.0,0.0,0.0,0.0,0.0,0.0,0.0,0.0,0.0,-1.6522,-1.6565,0.0,0.0,0.0,0.0,0.0,0.0,-1.6803,0.0,-1.6791,0.0,0.0,-1.6876,-1.6876,-1.7115,-1.7157,-1.7115,0.0,0.0,0.0,0.0,0.0,0.0,0.0,0.0,0.0,0.0,0.0,0.0,-1.4186,-1.449,-1.4801,-1.4903,0.0,0.0,0.0,0.0,0.0,0.0,0.0,0.0,0.0,0.0,0.0,0.0,0.0,0.0,0.0,0.0,0.0,0.0,0.0,0.0,0.0,0.0,0.0,0.0,0.0,0.0,0.0,0.0,0.0,0.0,0.0,0.0,0.0,-2.0478,-2.0806,-2.1297,-2.1297,-2.0956,-2.0156,-1.9958,-1.9757,-1.9627,-2.0306,-2.0466,-2.0328,-2.1135,-2.1575,-2.1741,-2.1741,-2.1741,-2.1741,-2.1741,-2.1741,-2.1741,-2.1741,-2.1741,-2.1741,0.0,0.0,0.0,0.0,0.0,0.0,0.0,0.0,0.0,0.0,0.0,0.0,0.0,0.0,0.0,0.0,0.0,0.0,0.0,0.0,0.0,0.0,0.0,0.0,0.0,0.0,0.0,0.0,0.0,0.0,0.0,0.0,-1.6633,-1.6675,0.0,-1.6577,0.0,-1.6791,-1.6803,-1.6718,-1.7044,-1.7115,-1.7002,-1.7157,0.0,0.0,0.0,0.0,0.0,0.0,0.0,0.0,0.0,0.0,0.0,-1.449,-1.5062,-1.5555,0.0,0.0,0.0,0.0,0.0,0.0,0.0,0.0,0.0,0.0,0.0,0.0,0.0,0.0,0.0,0.0,0.0,0.0,0.0,0.0,0.0,0.0,0.0,0.0,0.0,0.0,0.0,0.0,0.0,0.0,0.0,0.0,0.0,-1.9353,-1.9759,-2.0293,-2.0785,-2.0773,-2.0466,0.0,-1.9716,-1.9331,-1.8724,-1.9118,-1.9549,-2.0026,-2.0778,-2.1319,-2.1686,-2.1722,-2.1741,-2.1741,-2.1741,-2.1741,-2.1741,-2.1741,-2.1741,-2.1741,0.0,0.0,0.0,0.0,0.0,0.0,0.0,0.0,0.0,0.0,0.0,0.0,0.0,0.0,0.0,0.0,0.0,0.0,0.0,0.0,0.0,0.0,0.0,0.0,0.0,0.0,0.0,0.0,0.0,0.0,0.0,0.0,0.0,-1.6522,0.0,-1.6306,-1.6522,-1.6663,-1.6718,-1.6718,-1.6876,-1.696,-1.7002,-1.7044,-1.7115,0.0,0.0,0.0,0.0,0.0,0.0,0.0,-1.3752,-1.3763,-1.3962,-1.4104,-1.464,0.0,0.0,0.0,0.0,0.0,0.0,0.0,0.0,0.0,0.0,0.0,0.0,0.0,0.0,0.0,0.0,0.0,0.0,0.0,0.0,0.0,0.0,0.0,0.0,0.0,0.0,0.0,0.0,0.0,0.0,0.0,0.0,0.0,0.0,-1.8851,-1.9321,-1.9626,-1.9725,-2.0107,-1.9921,0.0,-1.8962,-1.8757,-1.8724,-1.9118,-1.9696,-2.042,-2.0897,-2.1163,-2.1273,-2.1603,-2.1741,-2.1741,-2.1741,-2.1741,-2.1741,-2.1741,-2.1741,-2.1741,0.0,0.0,0.0,0.0,0.0,0.0,0.0,0.0,0.0,0.0,0.0,0.0,0.0,0.0,0.0,0.0,0.0,0.0,0.0,0.0,0.0,0.0,0.0,0.0,0.0,0.0,0.0,0.0,0.0,0.0,0.0,0.0,0.0,-1.6466,0.0,-1.612,-1.6522,-1.6633,-1.6675,-1.6718,-1.6846,-1.6918,-1.696,-1.696,-1.7002,-1.6989,-1.665,0.0,0.0,0.0,0.0,0.0,0.0,0.0,-1.4057,-1.428,-1.464,-1.496,0.0,0.0,0.0,0.0,0.0,0.0,0.0,0.0,0.0,0.0,0.0,0.0,0.0,0.0,0.0,0.0,0.0,0.0,0.0,0.0,0.0,0.0,0.0,0.0,0.0,0.0,0.0,0.0,0.0,0.0,0.0,-1.8239,-1.8359,-1.8359,-1.8829,-1.9069,-1.9069,-1.9321,-1.9104,-1.8492,-1.8251,-1.8173,-1.8155,-1.8944,-1.9641,-2.0246,-2.0457,-2.0759,-2.1126,-2.1346,-2.1557,-2.1741,-2.1741,-2.1741,-2.1741,-2.1741,-2.1741,-2.1741,0.0,0.0,0.0,0.0,0.0,0.0,0.0,0.0,0.0,0.0,0.0,0.0,0.0,0.0,0.0,0.0,0.0,0.0,0.0,0.0,0.0,0.0,0.0,0.0,0.0,0.0,0.0,0.0,0.0,0.0,0.0,0.0,0.0,-1.638,0.0,0.0,-1.6522,-1.6633,-1.6675,-1.6675,-1.6791,-1.6876,-1.6876,-1.6876,-1.6876,-1.6833,-1.6306,-1.6088,-1.5856,-1.4869,0.0,0.0,0.0,0.0,-1.4057,-1.449,-1.4766,-1.496,0.0,0.0,0.0,0.0,0.0,0.0,0.0,0.0,0.0,0.0,0.0,0.0,0.0,0.0,0.0,0.0,0.0,0.0,0.0,0.0,0.0,0.0,0.0,0.0,0.0,0.0,0.0,0.0,0.0,0.0,-1.7278,-1.766,-1.7879,-1.7879,-1.8327,-1.8578,-1.8578,-1.8643,-1.833,-1.77,-1.7655,-1.76,-1.7532,-1.8678,-1.9393,-1.9732,-1.987,-2.0301,-2.0906,-2.0979,-2.1255,-2.163,-2.163,-2.1676,-2.1741,-2.1741,-2.1741,-2.1741,0.0,0.0,0.0,0.0,0.0,0.0,0.0,0.0,0.0,0.0,0.0,0.0,0.0,0.0,0.0,0.0,0.0,0.0,-1.5896,0.0,0.0,-1.5988,-1.5623,0.0,0.0,0.0,0.0,0.0,0.0,0.0,0.0,0.0,0.0,-1.5876,0.0,0.0,0.0,-1.6633,-1.662,-1.6522,-1.6663,-1.6718,-1.6718,-1.6718,-1.6803,-1.6876,-1.6675,-1.6362,-1.5901,-1.5232,-1.4743,0.0,0.0,0.0,-1.402,-1.4067,-1.4558,0.0,0.0,0.0,0.0,0.0,0.0,0.0,0.0,0.0,0.0,0.0,0.0,0.0,0.0,0.0,0.0,0.0,0.0,0.0,0.0,0.0,0.0,0.0,0.0,0.0,0.0,0.0,0.0,0.0,0.0,0.0,-1.7278,-1.7333,-1.7376,-1.7376,-1.7846,-1.8097,-1.8097,-1.849,-1.8222,-1.7292,-1.7083,-1.7195,-1.7523,-1.8394,-1.8825,-1.8916,-1.9622,-1.9989,-2.0118,-2.0457,-2.0833,-2.119,-2.119,-2.142,-2.1741,-2.1741,-2.1741,-2.1741,0.0,0.0,0.0,0.0,0.0,0.0,0.0,0.0,0.0,0.0,0.0,0.0,0.0,0.0,0.0,-1.724,-1.6892,-1.6312,-1.5389,-1.4903,-1.4903,-1.5457,-1.4994,-1.4937,0.0,0.0,0.0,0.0,0.0,0.0,0.0,-1.4834,-1.5198,0.0,0.0,0.0,0.0,0.0,-1.6392,-1.6705,-1.662,-1.6663,-1.6803,-1.6718,-1.6718,-1.6803,-1.6803,-1.6262,-1.5501,-1.5611,-1.4892,-1.3988,-1.4165,0.0,0.0,0.0,-1.428,0.0,0.0,0.0,0.0,0.0,0.0,0.0,0.0,0.0,0.0,0.0,0.0,0.0,0.0,0.0,0.0,0.0,0.0,0.0,0.0,0.0,0.0,0.0,0.0,0.0,0.0,0.0,0.0,0.0,0.0,-1.7278,-1.7278,-1.7278,-1.7278,-1.7278,-1.7486,-1.7595,-1.7595,-1.7802,-1.7679,-1.7149,-1.6751,-1.678,-1.7183,-1.7761,-1.8275,-1.8742,-1.932,-1.9714,-1.9943,-2.0118,-2.042,-2.0796,-2.1016,-2.1218,-2.141,-2.1649,-2.1741,-2.1741,0.0,0.0,0.0,0.0,0.0,0.0,0.0,0.0,0.0,0.0,0.0,0.0,0.0,0.0,0.0,0.0,-1.6497,-1.5964,-1.5153,-1.449,-1.4351,-1.4869,-1.4398,-1.4351,-1.4903,0.0,0.0,0.0,0.0,0.0,-1.38,-1.4547,-1.4834,0.0,-1.4605,0.0,0.0,0.0,0.0,0.0,-1.665,-1.6693,0.0,0.0,-1.6761,-1.6761,-1.6846,-1.6306,-1.5591,-1.582,-1.5096,-1.4118,-1.4444,-1.4326,0.0,0.0,0.0,0.0,0.0,0.0,0.0,0.0,0.0,0.0,0.0,0.0,0.0,0.0,0.0,0.0,0.0,0.0,0.0,0.0,0.0,0.0,0.0,0.0,0.0,0.0,0.0,0.0,0.0,0.0,0.0,0.0,0.0,-1.7278,-1.7278,-1.7278,-1.7278,-1.7278,-1.7278,-1.7278,-1.7278,-1.7043,-1.6863,-1.674,-1.6346,-1.6367,-1.6771,-1.7266,-1.7825,-1.843,-1.8825,-1.9292,-1.976,-1.9659,-1.9916,-2.0411,-2.0805,-2.1016,-2.1163,-2.1575,-2.1741,-2.1741,0.0,0.0,0.0,0.0,0.0,0.0,0.0,0.0,0.0,0.0,0.0,0.0,0.0,-1.6863,-1.6607,-1.5925,-1.6107,-1.5964,-1.5153,-1.4176,-1.3847,-1.4305,-1.3894,0.0,-1.3858,0.0,0.0,0.0,0.0,0.0,-1.4384,-1.4419,-1.4186,-1.3705,-1.464,-1.5322,-1.5832,0.0,0.0,0.0,0.0,0.0,0.0,0.0,0.0,0.0,0.0,0.0,-1.665,-1.5744,-1.5389,-1.5164,-1.428,-1.4104,-1.4176,0.0,0.0,0.0,0.0,0.0,0.0,0.0,0.0,0.0,0.0,0.0,0.0,0.0,0.0,0.0,0.0,0.0,0.0,0.0,0.0,0.0,0.0,0.0,0.0,0.0,0.0,0.0,0.0,0.0,0.0,0.0,0.0,-1.7278,-1.7278,-1.7278,-1.7278,-1.7278,-1.7278,-1.7278,-1.7278,-1.64,-1.5939,-1.5869,-1.5778,-1.5936,-1.6376,-1.7138,-1.7513,-1.7578,-1.8009,-1.8623,-1.9301,-1.8935,-1.9237,-1.9998,-2.0393,-2.0778,-2.1163,-2.1575,-2.1741,-2.1741,0.0,0.0,0.0,0.0,0.0,0.0,0.0,0.0,0.0,0.0,0.0,0.0,0.0,-1.602,-1.5712,-1.5379,-1.4846,-1.4433,-1.4176,-1.3525,-1.3344,-1.3847,-1.3382,-1.3296,-1.3668,0.0,0.0,0.0,0.0,-1.3905,-1.3905,-1.4233,-1.4093,-1.361,-1.4326,-1.4766,-1.5005,-1.5611,0.0,0.0,0.0,0.0,0.0,0.0,0.0,0.0,0.0,0.0,0.0,-1.6539,-1.582,-1.4983,-1.5119,-1.472,-1.4176,-1.414,-1.4233,-1.4326,-1.428,0.0,0.0,0.0,0.0,0.0,0.0,0.0,0.0,0.0,0.0,0.0,0.0,0.0,0.0,0.0,0.0,0.0,0.0,0.0,0.0,0.0,0.0,0.0,0.0,0.0,0.0,0.0,0.0,0.0,-1.7278,-1.7278,-1.7278,-1.7278,-1.7278,-1.7155,-1.6864,-1.6228,-1.587,-1.5779,-1.5489,-1.5661,-1.6331,-1.6615,-1.7009,-1.7486,-1.7385,-1.7944,-1.8907,-1.877,-1.9036,-1.9567,-1.998,-2.0228,-2.0402,-2.0805,-2.0952,-2.0952,0.0,0.0,0.0,0.0,0.0,0.0,0.0,0.0,0.0,0.0,0.0,0.0,0.0,0.0,-1.504,-1.4915,-1.4129,-1.3668,-1.3621,-1.3152,-1.3065,-1.344,-1.3113,-1.3113,-1.3467,0.0,0.0,0.0,0.0,0.0,0.0,0.0,-1.3952,-1.3621,-1.414,0.0,0.0,0.0,0.0,-1.6083,0.0,0.0,-1.7002,0.0,0.0,0.0,0.0,0.0,0.0,0.0,0.0,0.0,-1.5534,-1.4949,-1.4222,-1.4269,-1.4326,-1.4326,-1.428,0.0,0.0,0.0,0.0,0.0,0.0,0.0,0.0,0.0,0.0,0.0,0.0,0.0,0.0,0.0,0.0,0.0,0.0,0.0,0.0,0.0,0.0,0.0,0.0,0.0,0.0,0.0,0.0,0.0,-1.7278,-1.7278,-1.7222,-1.7043,-1.7043,-1.6751,-1.6171,-1.5816,-1.5557,-1.5387,-1.5161,-1.5386,-1.5918,-1.6046,-1.6468,-1.7082,-1.6817,-1.7394,-1.8513,-1.8513,-1.8751,-1.9164,-1.9714,-1.9934,-1.998,-2.0374,-2.0604,-2.0714,0.0,0.0,0.0,0.0,0.0,0.0,0.0,0.0,0.0,0.0,0.0,0.0,0.0,0.0,0.0,-1.4455,-1.4046,-1.3716,-1.3621,-1.3152,-1.2978,-1.3085,-1.3075,-1.3104,-1.3218,0.0,0.0,0.0,0.0,0.0,0.0,0.0,-1.3621,0.0,-1.414,-1.4373,-1.4419,0.0,-1.5468,-1.6032,0.0,-1.6918,-1.7002,0.0,0.0,0.0,-1.7199,-1.7199,0.0,0.0,0.0,0.0,0.0,0.0,-1.4222,-1.4373,-1.4326,-1.4222,0.0,0.0,0.0,0.0,0.0,0.0,0.0,0.0,0.0,0.0,0.0,0.0,0.0,0.0,0.0,0.0,0.0,0.0,0.0,0.0,0.0,0.0,0.0,0.0,0.0,0.0,0.0,0.0,0.0,-1.7278,-1.7278,-1.7278,-1.7043,-1.6627,-1.6581,-1.6171,-1.5225,-1.5167,-1.4951,-1.4515,-1.49,-1.5093,-1.5111,-1.5496,-1.5909,-1.6321,-1.6321,-1.6991,-1.8091,-1.81,-1.8348,-1.8788,-1.9586,-1.9907,-1.9962,-2.0338,-2.0723,-2.1053,0.0,0.0,0.0,0.0,0.0,0.0,0.0,0.0,0.0,0.0,0.0,0.0,0.0,0.0,-1.4014,-1.3589,-1.3457,-1.3362,-1.3314,-1.318,-1.3132,-1.318,-1.318,-1.318,0.0,0.0,0.0,0.0,0.0,0.0,0.0,0.0,0.0,0.0,-1.3763,-1.3905,-1.4046,-1.522,0.0,0.0,-1.6466,-1.682,0.0,0.0,0.0,0.0,0.0,-1.7199,0.0,0.0,-1.6281,-1.5844,0.0,0.0,0.0,-1.4384,-1.4373,-1.4373,-1.4384,0.0,0.0,0.0,0.0,0.0,0.0,0.0,0.0,0.0,0.0,0.0,0.0,0.0,0.0,0.0,0.0,0.0,0.0,0.0,0.0,0.0,0.0,0.0,0.0,0.0,0.0,0.0,-1.7278,-1.7278,-1.7278,-1.6987,-1.6751,-1.657,-1.6285,-1.5816,-1.5235,-1.5167,-1.4951,-1.4515,-1.4625,-1.4827,-1.5102,-1.5212,-1.5643,-1.6321,-1.6321,-1.667,-1.7266,-1.755,-1.8082,-1.8733,-1.8962,-1.9219,-1.9494,-1.9595,-1.9705,-1.9797,0.0,0.0,0.0,0.0,0.0,0.0,0.0,0.0,0.0,0.0,0.0,0.0,0.0,0.0,0.0,-1.3314,-1.3266,-1.3266,-1.3218,-1.3218,-1.3218,-1.3266,-1.3266,-1.3314,0.0,0.0,0.0,0.0,0.0,0.0,0.0,0.0,0.0,0.0,0.0,0.0,0.0,0.0,0.0,0.0,-1.6182,0.0,0.0,-1.6976,-1.7199,0.0,0.0,0.0,-1.6863,-1.638,-1.5888,0.0,0.0,0.0,0.0,0.0,0.0,-1.4373,0.0,0.0,0.0,0.0,0.0,0.0,0.0,-1.4242,0.0,0.0,0.0,0.0,0.0,0.0,0.0,0.0,0.0,0.0,0.0,0.0,0.0,0.0,0.0,0.0,0.0,0.0,0.0,-1.7278,-1.7278,-1.7211,-1.7043,-1.6751,-1.64,-1.6046,-1.5758,-1.5352,-1.4902,-1.4902,-1.4793,-1.4515,-1.4515,-1.4634,-1.4854,-1.4854,-1.5294,-1.6056,-1.6056,-1.6376,-1.6927,-1.7156,-1.7734,-1.8485,-1.865,-1.8953,-1.9301,-1.9301,-1.9412,-1.9567,0.0,0.0,0.0,0.0,0.0,0.0,0.0,0.0,0.0,0.0,0.0,0.0,0.0,0.0,0.0,0.0,-1.3314,-1.3266,-1.3074,-1.3112,-1.3218,-1.3314,-1.3409,-1.3467,0.0,0.0,0.0,0.0,0.0,0.0,0.0,0.0,0.0,0.0,0.0,0.0,0.0,0.0,0.0,-1.4709,-1.5864,-1.6269,0.0,0.0,-1.7199,0.0,-1.6693,-1.6522,-1.6436,-1.5949,-1.5529,0.0,0.0,0.0,0.0,0.0,-1.4373,0.0,0.0,0.0,0.0,0.0,0.0,0.0,-1.386,-1.4089,-1.3847,0.0,0.0,0.0,0.0,0.0,0.0,0.0,0.0,0.0,0.0,0.0,0.0,0.0,0.0,0.0,0.0,-1.6929,-1.7213,-1.7278,-1.7278,-1.7099,-1.6637,-1.657,-1.6104,-1.5225,-1.5177,-1.4893,-1.4515,-1.4515,-1.4515,-1.4515,-1.4515,-1.4515,-1.4515,-1.4515,-1.4937,-1.5689,-1.5689,-1.6147,-1.6908,-1.6908,-1.7385,-1.8164,-1.8513,-1.8916,-1.9301,-1.9301,-1.954,-1.9861,-1.572,0.0,0.0,0.0,0.0,0.0,0.0,0.0,0.0,0.0,0.0,0.0,0.0,0.0,0.0,0.0,-1.2909,-1.2725,-1.2246,-1.2628,-1.2871,-1.2909,-1.3314,-1.3563,-1.3621,0.0,0.0,0.0,0.0,0.0,0.0,0.0,0.0,0.0,0.0,0.0,0.0,0.0,0.0,-1.428,-1.5744,0.0,-1.6008,-1.6892,-1.7199,-1.7157,-1.6693,-1.6522,-1.6442,0.0,-1.5728,-1.5576,0.0,0.0,0.0,0.0,0.0,0.0,0.0,0.0,0.0,0.0,0.0,0.0,-1.4218,-1.4075,-1.3903,0.0,0.0,0.0,0.0,0.0,0.0,0.0,0.0,0.0,0.0,0.0,0.0,0.0,0.0,0.0,0.0,-1.6601,-1.6841,-1.7245,-1.7278,-1.7099,-1.6637,-1.6218,-1.5758,-1.5235,-1.4843,-1.4565,-1.4515,-1.4515,-1.4515,-1.4515,-1.4515,-1.4515,-1.4515,-1.4515,-1.4937,-1.5689,-1.5689,-1.6147,-1.6908,-1.6908,-1.7385,-1.8128,-1.821,-1.8678,-1.9301,-1.9301,-1.9356,-1.9421,-1.5107,0.0,0.0,0.0,0.0,0.0,0.0,0.0,0.0,0.0,0.0,0.0,0.0,0.0,0.0,0.0,0.0,0.0,0.0,0.0,0.0,-1.317,-1.3467,-1.3621,-1.3621,-1.3621,0.0,0.0,0.0,0.0,0.0,0.0,0.0,0.0,0.0,0.0,0.0,0.0,-1.4279,-1.4627,-1.537,0.0,-1.5513,-1.681,-1.6964,-1.6491,-1.6559,-1.6254,-1.5788,-1.5525,-1.5609,0.0,0.0,-1.5465,-1.5421,0.0,-1.5105,-1.505,0.0,0.0,0.0,-1.4446,0.0,0.0,0.0,-1.3642,-1.3305,0.0,0.0,0.0,0.0,0.0,0.0,0.0,0.0,0.0,0.0,0.0,0.0,0.0,0.0,0.0,0.0,-1.6383,-1.6613,-1.6944,-1.6931,-1.6627,-1.5931,-1.57,-1.5352,-1.4843,-1.4625,-1.4515,-1.4515,-1.4515,-1.4515,-1.4515,-1.4515,-1.4515,-1.4515,-1.4717,-1.5129,-1.5698,-1.5909,-1.6349,-1.6927,-1.7119,-1.7568,-1.8128,-1.8128,-1.8605,-1.9301,-1.9301,-1.9301,-1.9301,-1.4582,0.0,0.0,0.0,0.0,0.0,0.0,0.0,0.0,0.0,0.0,0.0,0.0,0.0,0.0,0.0,0.0,0.0,0.0,0.0,0.0,0.0,-1.3573,-1.3621,-1.3621,-1.3668,0.0,0.0,0.0,0.0,0.0,0.0,0.0,0.0,0.0,0.0,0.0,0.0,0.0,-1.5072,0.0,-1.5153,-1.5223,-1.6699,-1.6618,-1.586,-1.6368,-1.6028,-1.5378,-1.5378,0.0,-1.6099,-1.5949,-1.5916,0.0,0.0,0.0,0.0,0.0,0.0,0.0,0.0,0.0,-1.3711,0.0,0.0,0.0,0.0,0.0,0.0,0.0,0.0,0.0,0.0,0.0,0.0,0.0,0.0,0.0,0.0,0.0,0.0,0.0,-1.5987,-1.6341,-1.6595,-1.6513,-1.6104,-1.5225,-1.5167,-1.501,-1.4506,-1.4515,-1.4515,-1.4515,-1.4515,-1.4515,-1.4515,-1.4515,-1.4515,-1.4524,-1.4845,-1.5249,-1.5707,-1.6046,-1.6468,-1.6936,-1.7248,-1.7678,-1.8128,-1.821,-1.8678,-1.9301,-1.9301,-1.9301,-1.9301,-1.415,-1.3915,0.0,0.0,0.0,0.0,0.0,0.0,0.0,0.0,0.0,0.0,0.0,0.0,0.0,0.0,0.0,0.0,-1.1519,0.0,0.0,0.0,0.0,0.0,-1.3773,-1.3868,-1.3962,0.0,0.0,0.0,0.0,0.0,0.0,0.0,-1.402,0.0,0.0,0.0,-1.4844,0.0,-1.5509,-1.5735,0.0,-1.6372,-1.6257,-1.5816,-1.5881,-1.607,-1.6361,0.0,-1.6688,-1.7038,0.0,-1.6437,0.0,0.0,0.0,0.0,0.0,0.0,0.0,0.0,-1.445,0.0,0.0,0.0,0.0,0.0,0.0,0.0,0.0,0.0,0.0,0.0,0.0,0.0,0.0,0.0,0.0,0.0,0.0,0.0,0.0,0.0,-1.5745,-1.6539,-1.6218,-1.5748,-1.5225,-1.5167,-1.501,-1.4506,-1.4515,-1.4515,-1.4515,-1.4515,-1.4515,-1.4515,-1.4515,-1.4515,-1.4515,-1.4561,-1.4983,-1.5689,-1.5744,-1.6193,-1.6908,-1.6954,-1.7431,-1.8155,-1.8513,-1.8916,-1.9301,-1.9301,-1.9301,-1.9301,-1.4197,0.0,0.0,0.0,0.0,0.0,0.0,0.0,0.0,0.0,0.0,0.0,0.0,0.0,0.0,0.0,0.0,-1.146,0.0,0.0,0.0,0.0,0.0,0.0,0.0,-1.3868,-1.3915,-1.402,-1.402,0.0,0.0,0.0,0.0,0.0,-1.4559,0.0,-1.5126,0.0,0.0,0.0,0.0,0.0,0.0,-1.6492,-1.649,-1.6244,-1.5638,-1.5846,-1.6514,0.0,-1.6852,0.0,0.0,0.0,0.0,0.0,0.0,0.0,0.0,0.0,0.0,0.0,0.0,0.0,-1.3192,0.0,-1.2372,0.0,0.0,0.0,0.0,0.0,0.0,0.0,0.0,0.0,0.0,0.0,0.0,0.0,0.0,0.0,0.0,0.0,0.0,0.0,0.0,-1.5042,-1.4834,-1.4784,-1.4675,-1.4515,-1.4515,-1.4515,-1.4515,-1.4515,-1.4515,-1.4515,-1.4515,-1.4634,-1.4864,-1.5093,-1.5505,-1.6065,-1.6294,-1.6587,-1.6927,-1.7156,-1.7449,-1.7825,-1.8467,-1.8953,-1.9301,-1.9301,-1.9301,-1.9301,-1.3988,0.0,0.0,0.0,0.0,0.0,0.0,0.0,0.0,0.0,0.0,0.0,-1.0718,-1.0667,0.0,0.0,0.0,-1.1418,0.0,0.0,-1.2304,0.0,0.0,0.0,0.0,0.0,-1.3668,-1.3773,0.0,0.0,0.0,0.0,0.0,0.0,0.0,-1.5191,-1.56,0.0,0.0,-1.6525,-1.6667,-1.6568,-1.6273,-1.6249,-1.6348,-1.6378,-1.5571,-1.5924,-1.6721,-1.6721,-1.6972,0.0,-1.7278,0.0,0.0,0.0,0.0,0.0,-1.5774,0.0,0.0,0.0,0.0,0.0,0.0,0.0,0.0,0.0,0.0,0.0,0.0,0.0,0.0,0.0,0.0,0.0,0.0,0.0,0.0,0.0,0.0,0.0,0.0,0.0,0.0,-1.4569,-1.4495,-1.4468,-1.4488,-1.4515,-1.4515,-1.4515,-1.4515,-1.4515,-1.4515,-1.4616,-1.4671,-1.4671,-1.4781,-1.4983,-1.5267,-1.556,-1.5787,-1.5986,-1.6342,-1.6522,-1.6639,-1.6919,-1.7251,-1.7568,-1.8275,-1.8788,-1.9155,-1.9265,-1.9301,-1.9301,-1.3266,-1.3112,0.0,0.0,0.0,0.0,0.0,0.0,0.0,0.0,0.0,0.0,0.0,0.0,0.0,0.0,0.0,-1.2166,-1.2076,0.0,-1.2939,0.0,0.0,-1.3016,0.0,0.0,0.0,-1.3218,-1.3621,0.0,0.0,0.0,0.0,0.0,0.0,-1.5116,-1.5192,-1.611,-1.6503,-1.6557,-1.706,-1.6688,-1.5753,0.0,-1.5421,-1.5836,-1.5763,0.0,0.0,-1.7245,-1.7267,0.0,0.0,0.0,0.0,0.0,0.0,0.0,0.0,0.0,0.0,-1.5244,0.0,0.0,0.0,0.0,-1.303,0.0,0.0,0.0,0.0,0.0,0.0,0.0,0.0,0.0,0.0,0.0,0.0,0.0,0.0,0.0,0.0,0.0,0.0,-1.4494,-1.4166,-1.4066,-1.4488,-1.4515,-1.4515,-1.4515,-1.4515,-1.4515,-1.4515,-1.4891,-1.5084,-1.5084,-1.5469,-1.5661,-1.567,-1.568,-1.5516,-1.5215,-1.5232,-1.5506,-1.5833,-1.585,-1.6493,-1.7541,-1.7972,-1.8385,-1.8779,-1.9164,-1.9301,-1.9301,0.0,0.0,0.0,0.0,0.0,0.0,0.0,-1.1069,0.0,0.0,0.0,0.0,0.0,0.0,-1.1688,0.0,0.0,-1.1868,-1.1828,-1.2255,0.0,0.0,0.0,-1.2967,0.0,0.0,0.0,-1.3621,-1.3999,-1.4348,0.0,0.0,0.0,0.0,0.0,-1.576,0.0,0.0,0.0,0.0,0.0,-1.6874,-1.6197,0.0,0.0,-1.5829,-1.6123,-1.671,0.0,-1.7278,-1.7278,-1.7278,-1.7278,-1.7278,-1.7213,-1.6874,-1.6885,0.0,0.0,0.0,-1.6063,-1.5076,0.0,0.0,0.0,0.0,0.0,0.0,0.0,0.0,0.0,0.0,0.0,0.0,0.0,0.0,0.0,0.0,0.0,0.0,0.0,0.0,0.0,0.0,0.0,-1.3296,-1.3442,-1.3671,-1.4075,-1.4359,-1.4515,-1.4515,-1.4515,-1.4515,-1.4515,-1.4643,-1.4845,-1.5102,-1.5239,-1.5588,-1.6101,-1.6101,-1.5909,-1.5574,-1.5574,-1.5362,-1.5037,-1.5037,-1.5539,-1.6448,-1.7107,-1.7743,-1.8403,-1.9063,-1.9301,-1.9301,-1.248,0.0,0.0,0.0,0.0,0.0,0.0,0.0,0.0,0.0,-1.2449,0.0,-1.2716,0.0,-1.2245,0.0,-1.2169,-1.1971,-1.1837,-1.2017,0.0,-1.2384,-1.2589,0.0,0.0,0.0,0.0,-1.3392,-1.3905,-1.4434,0.0,0.0,0.0,0.0,0.0,0.0,0.0,0.0,-1.7278,0.0,0.0,-1.658,0.0,0.0,-1.5392,-1.5837,0.0,-1.6502,-1.6807,-1.6807,-1.692,-1.7043,-1.7043,-1.7043,-1.7034,-1.683,-1.6784,-1.6676,-1.6015,-1.5992,0.0,-1.4792,-1.4563,0.0,-1.3654,0.0,0.0,0.0,0.0,0.0,0.0,0.0,0.0,0.0,0.0,0.0,0.0,-1.2076,0.0,0.0,0.0,0.0,0.0,0.0,-1.2291,-1.2687,-1.3057,-1.347,0.0,0.0,-1.4515,-1.4515,-1.4515,-1.4515,-1.4515,-1.4538,-1.4675,-1.4926,-1.4936,-1.5199,-1.5687,-1.5687,-1.5462,-1.4974,-1.4974,-1.4681,-1.4178,-1.4178,-1.4753,-1.5588,-1.6271,-1.7054,-1.7948,-1.8906,-1.9301,-1.9301,0.0,0.0,0.0,0.0,-1.1904,0.0,0.0,0.0,-1.2655,0.0,-1.3154,-1.3162,-1.3162,-1.3049,-1.2779,-1.2387,-1.2595,0.0,-1.2181,-1.2162,0.0,0.0,-1.2499,-1.2558,-1.2162,0.0,0.0,0.0,0.0,0.0,0.0,0.0,0.0,0.0,-1.5539,0.0,-1.5878,-1.6828,-1.7278,-1.7179,-1.6231,-1.5823,-1.5779,-1.5371,-1.5471,-1.5769,-1.5823,-1.5838,-1.5874,-1.5874,-1.6218,-1.657,-1.657,-1.657,-1.6627,-1.7099,-1.657,-1.5874,-1.5874,-1.5584,-1.5118,-1.4675,0.0,0.0,0.0,0.0,-1.4286,0.0,0.0,0.0,0.0,0.0,0.0,0.0,0.0,0.0,0.0,0.0,0.0,0.0,0.0,0.0,0.0,-1.2076,-1.2282,-1.266,-1.3039,0.0,0.0,0.0,-1.4515,-1.4515,-1.4515,-1.4455,-1.4446,-1.4501,-1.4541,-1.4567,-1.453,-1.4585,-1.4601,-1.4601,-1.4171,-1.3535,-1.3535,-1.3462,-1.3462,-1.3462,-1.4086,-1.5091,-1.5454,-1.6362,-1.7518,-1.8761,-1.9222,-1.9222,-1.2512,-1.2764,-1.2984,0.0,-1.2111,-1.1549,0.0,0.0,0.0,0.0,-1.3808,-1.4173,-1.4173,-1.3859,-1.3577,-1.3524,-1.3305,0.0,0.0,0.0,0.0,-1.2539,-1.2924,-1.3087,-1.2976,-1.3787,0.0,-1.3138,0.0,0.0,-1.4023,0.0,0.0,0.0,0.0,0.0,-1.5823,-1.6483,-1.6807,-1.674,-1.6501,-1.6213,0.0,0.0,-1.5588,-1.5407,-1.5749,-1.5887,-1.5874,-1.5874,-1.5989,-1.6104,-1.6104,-1.6104,-1.6104,-1.6218,-1.6104,-1.5874,-1.5874,-1.5816,-1.5584,-1.5128,-1.501,-1.4923,0.0,0.0,0.0,0.0,0.0,0.0,0.0,0.0,0.0,0.0,0.0,0.0,0.0,0.0,0.0,0.0,0.0,0.0,-1.2131,-1.2076,-1.2122,-1.2273,-1.2892,0.0,0.0,0.0,0.0,-1.4515,-1.4515,-1.4258,-1.3761,-1.3973,-1.4028,-1.385,-1.409,-1.4285,-1.4601,-1.4601,-1.4171,-1.3535,-1.3535,-1.3171,-1.2592,-1.2592,-1.3209,-1.4268,-1.4612,-1.5637,-1.6984,-1.7963,-1.8327,-1.8327,-1.2855,0.0,0.0,-1.3323,0.0,0.0,-1.299,0.0,0.0,-1.4105,-1.435,0.0,-1.4515,-1.4304,-1.4011,-1.3653,-1.3424,0.0,0.0,0.0,0.0,-1.2704,-1.3074,-1.324,-1.3035,-1.3637,0.0,-1.3032,0.0,0.0,-1.3882,0.0,0.0,0.0,0.0,-1.5139,0.0,-1.6048,-1.6275,-1.6285,-1.6046,0.0,0.0,-1.5362,-1.5128,-1.4961,-1.5186,-1.5303,-1.5303,-1.5303,-1.542,-1.5575,-1.5575,-1.5575,-1.5633,-1.5816,-1.5594,-1.5303,-1.5526,-1.541,-1.5245,-1.4961,-1.4902,-1.4834,-1.4715,-1.4715,-1.4775,0.0,0.0,0.0,0.0,0.0,0.0,0.0,0.0,0.0,0.0,0.0,0.0,0.0,-1.3149,0.0,-1.2271,-1.228,-1.2466,-1.2599,0.0,0.0,0.0,0.0,0.0,-1.407,-1.4178,-1.3943,-1.331,-1.338,-1.3408,-1.3271,-1.3249,-1.3359,-1.36,-1.36,-1.3382,-1.2952,-1.2952,-1.2739,-1.2311,-1.2445,-1.2969,-1.367,-1.4518,-1.5153,-1.5643,-1.6535,-1.735,-1.8023,0.0,0.0,0.0,0.0,0.0,0.0,0.0,-1.4313,0.0,-1.4937,0.0,-1.457,-1.4515,-1.4515,-1.4203,-1.3433,0.0,-1.303,-1.2204,-1.2521,-1.2715,-1.2715,-1.3091,-1.3138,-1.2881,-1.3181,0.0,0.0,0.0,0.0,0.0,0.0,0.0,0.0,0.0,0.0,0.0,-1.569,-1.5874,0.0,-1.5352,-1.5177,-1.5059,-1.4684,-1.4515,-1.4515,-1.4515,-1.4515,-1.4515,-1.4515,-1.4793,-1.5118,-1.5118,-1.5118,-1.5177,-1.5584,-1.5137,-1.4565,-1.501,-1.4784,-1.4515,-1.4515,-1.4506,-1.4575,-1.479,-1.4849,-1.4918,-1.5105,-1.5233,-1.5214,0.0,0.0,0.0,0.0,0.0,0.0,0.0,0.0,0.0,0.0,0.0,0.0,0.0,-1.2547,-1.2733,0.0,0.0,0.0,0.0,0.0,0.0,-1.3511,-1.3675,-1.3515,-1.2915,0.0,-1.2875,-1.2848,-1.2469,-1.2305,-1.2305,-1.2305,-1.2305,-1.2305,-1.2345,-1.2365,-1.2385,-1.2679,-1.2986,-1.34,-1.4674,-1.4741,-1.4173,-1.4992,-1.6288,-1.7725,0.0,0.0,0.0,0.0,0.0,-1.5111,-1.5432,-1.5148,-1.4827,-1.4643,-1.4836,-1.4873,-1.4552,-1.4515,-1.4313,-1.3827,-1.3782,0.0,0.0,0.0,0.0,-1.2715,-1.3109,-1.3451,-1.3662,-1.4143,-1.3943,0.0,0.0,0.0,0.0,0.0,0.0,0.0,0.0,0.0,-1.5225,-1.569,0.0,-1.5342,-1.5225,-1.4951,-1.4625,-1.4515,-1.4515,-1.4515,-1.4515,-1.4515,-1.4515,-1.4515,-1.4565,-1.4625,-1.4625,-1.4625,-1.4625,-1.4743,-1.4625,-1.4515,-1.4625,-1.4565,-1.4515,-1.4515,-1.4556,-1.4809,-1.5326,-1.5533,-1.5655,-1.5897,-1.5776,-1.5559,-1.5214,0.0,0.0,0.0,0.0,0.0,0.0,0.0,0.0,0.0,0.0,0.0,0.0,0.0,0.0,0.0,0.0,0.0,0.0,0.0,0.0,0.0,-1.3301,0.0,0.0,0.0,-1.2699,-1.2371,-1.2352,-1.2305,-1.2305,-1.2305,-1.2305,-1.2318,-1.2559,-1.2741,-1.2692,-1.2999,-1.33,-1.3601,-1.4115,-1.425,-1.4088,-1.425,-1.4992,-1.5891,0.0,0.0,0.0,0.0,0.0,0.0,0.0,-1.5588,0.0,-1.49,-1.4616,-1.4396,-1.4203,-1.4378,-1.4258,-1.3635,-1.358,-1.3231,-1.2466,-1.2604,-1.2715,-1.2715,-1.3066,0.0,-1.3571,-1.3793,-1.37,-1.3296,0.0,0.0,0.0,0.0,0.0,0.0,0.0,-1.4625,0.0,0.0,0.0,-1.4843,-1.4843,-1.4675,-1.4515,-1.4515,-1.4515,-1.4515,-1.4515,-1.4565,-1.4616,-1.4616,-1.4616,-1.4616,-1.4616,-1.4616,-1.4616,-1.4616,-1.4616,-1.4616,-1.4734,-1.4743,-1.479,-1.5004,-1.5102,-1.5326,-1.5937,-1.6095,-1.622,-1.6406,-1.6344,-1.6172,-1.5908,-1.5626,0.0,0.0,0.0,0.0,0.0,0.0,0.0,0.0,0.0,0.0,0.0,0.0,0.0,0.0,0.0,0.0,0.0,0.0,0.0,0.0,0.0,0.0,0.0,0.0,0.0,-1.2305,-1.2305,-1.2305,-1.2305,-1.2305,-1.2305,-1.2311,-1.2452,-1.2681,-1.2856,-1.3247,-1.3607,-1.3888,-1.4035,-1.4088,-1.4108,-1.4255,-1.4559,-1.5,0.0,-1.5762,0.0,0.0,-1.6037,0.0,-1.546,-1.5909,-1.5991,-1.5093,-1.4488,-1.4075,-1.3901,-1.4185,-1.4047,-1.3231,-1.3158,-1.2855,-1.2172,-1.242,-1.2632,-1.2715,-1.2984,-1.3241,-1.3415,-1.3332,-1.3332,0.0,0.0,0.0,0.0,0.0,0.0,0.0,0.0,0.0,0.0,0.0,-1.4515,-1.4515,-1.4515,-1.4515,-1.4515,-1.4515,-1.4515,-1.4515,-1.4515,-1.4616,-1.4715,-1.4715,-1.4715,-1.4715,-1.4775,-1.4715,-1.4656,-1.4715,-1.4656,-1.4666,-1.4852,-1.4911,-1.4987,-1.5308,-1.551,-1.5813,-1.6369,-1.6606,-1.6738,-1.6801,-1.6797,-1.6694,-1.6718,-1.6336,0.0,0.0,0.0,0.0,0.0,0.0,0.0,0.0,0.0,0.0,0.0,0.0,0.0,0.0,0.0,0.0,0.0,0.0,0.0,0.0,0.0,-1.2144,-1.1957,0.0,-1.2338,-1.2398,-1.2331,-1.2305,-1.2305,-1.2305,-1.2338,-1.2405,-1.2465,-1.2699,-1.3144,-1.354,-1.3915,-1.4182,-1.4182,-1.4215,-1.4302,-1.4529,-1.4576,-1.4643,0.0,0.0,0.0,0.0,0.0,0.0,0.0,-1.6266,-1.59,-1.4717,-1.4808,-1.4708,-1.3965,-1.3919,-1.3607,-1.2853,-1.2779,-1.2595,-1.2153,-1.2162,-1.2337,-1.2696,-1.2752,-1.3129,-1.3809,-1.3479,-1.347,0.0,0.0,0.0,0.0,0.0,0.0,0.0,0.0,0.0,0.0,-1.4515,-1.4515,-1.4515,-1.4515,-1.4515,-1.4515,-1.4515,-1.4515,-1.4515,-1.4515,-1.4616,-1.4715,-1.4715,-1.4715,-1.4715,-1.4911,-1.4734,-1.4565,-1.4656,-1.4606,-1.4506,-1.4565,-1.4616,-1.4725,-1.4762,-1.5292,-1.5884,-1.6369,-1.6902,-1.7324,-1.7324,-1.7012,-1.6855,-1.7246,-1.6963,-1.6743,0.0,0.0,0.0,0.0,0.0,0.0,0.0,0.0,0.0,0.0,0.0,0.0,0.0,0.0,0.0,0.0,0.0,0.0,-1.1956,0.0,-1.176,-1.2258,-1.2285,-1.2438,-1.2775,-1.2432,-1.2305,-1.2305,-1.2305,-1.2452,-1.2795,-1.2999,-1.3447,-1.3968,-1.4021,-1.4215,-1.4482,-1.4482,-1.4643,-1.4883,-1.491,-1.475,-1.4563,0.0,0.0,0.0,0.0,0.0,0.0,0.0,-1.6431,-1.6095,-1.5115,-1.5063,-1.4891,-1.4323,-1.4029,-1.3653,-1.3094,-1.2862,-1.265,-1.2494,-1.2536,-1.272,-1.302,-1.3377,-1.3719,-1.3996,-1.4031,-1.4151,0.0,0.0,0.0,0.0,0.0,0.0,0.0,0.0,-1.4515,-1.4515,-1.4515,-1.4515,-1.4515,-1.4515,-1.4515,-1.4515,-1.4515,-1.4515,-1.4506,-1.4616,-1.4725,-1.4902,-1.4902,-1.4902,-1.4843,-1.4843,-1.4725,-1.4606,-1.4656,-1.4656,-1.4721,-1.5153,-1.534,-1.5514,-1.6008,-1.6465,-1.6834,-1.7119,-1.7494,-1.7764,-1.7764,-1.7627,-1.7549,-1.7734,-1.7617,-1.7559,0.0,0.0,0.0,0.0,0.0,0.0,0.0,0.0,0.0,0.0,0.0,0.0,0.0,0.0,0.0,0.0,0.0,0.0,-1.1646,0.0,-1.1891,-1.2298,-1.2305,-1.2365,-1.2478,-1.2358,-1.2398,-1.2565,-1.2565,-1.2732,-1.3046,-1.334,-1.3707,-1.4102,-1.4275,-1.4516,-1.4783,-1.4783,-1.4863,-1.4983,-1.5157,-1.515,-1.5064,-1.7102,0.0,-1.6714,0.0,-1.6816,-1.6591,-1.6487,-1.6609,-1.6412,-1.5408,-1.5265,-1.5029,-1.4455,-1.4066,-1.3727,-1.3332,-1.302,-1.2899,-1.2899,-1.2961,-1.3143,-1.3332,-1.3728,0.0,-1.4176,-1.4359,-1.4563,-1.4775,-1.4436,0.0,0.0,0.0,0.0,0.0,-1.4625,-1.4625,-1.4556,-1.4556,-1.4565,-1.4515,-1.4515,-1.4515,-1.4515,-1.4515,-1.4506,-1.4556,-1.4656,-1.4834,-1.5039,-1.497,-1.497,-1.497,-1.4843,-1.4715,-1.4666,-1.4715,-1.4656,-1.4781,-1.5321,-1.5613,-1.5913,-1.6571,-1.7048,-1.7461,-1.761,-1.7842,-1.8008,-1.8008,-1.8008,-1.8008,-1.8008,-1.8008,-1.8008,-1.8008,0.0,0.0,0.0,0.0,0.0,0.0,-1.4298,-1.3457,-1.1849,0.0,0.0,0.0,0.0,0.0,0.0,0.0,0.0,0.0,0.0,0.0,0.0,-1.2305,-1.2345,-1.2432,-1.2201,-1.2201,-1.2492,-1.257,-1.2732,-1.2946,-1.3484,-1.3941,-1.4229,-1.4436,-1.4743,-1.509,-1.509,-1.5144,-1.5244,-1.5444,-1.5471,-1.5398,-1.747,-1.747,-1.7461,-1.747,-1.747,-1.7328,-1.6845,-1.7041,-1.6728,-1.5445,-1.5504,-1.5284,-1.4192,-1.4005,-1.3727,-1.3332,-1.3286,-1.3286,-1.3286,-1.3286,-1.335,0.0,0.0,-1.3773,-1.4355,-1.443,-1.463,-1.497,0.0,0.0,-1.497,0.0,-1.497,-1.497,-1.497,-1.4902,-1.4715,-1.4715,-1.4606,-1.4515,-1.4515,-1.4515,-1.4515,-1.4515,-1.4556,-1.4715,-1.4715,-1.4902,-1.5156,-1.4834,-1.4843,-1.497,-1.497,-1.4743,-1.4506,-1.4656,-1.4606,-1.4506,-1.4666,-1.5144,-1.5647,-1.5779,-1.6612,-1.7383,-1.7393,-1.7715,-1.8008,-1.8008,-1.8008,-1.8008,-1.8008,-1.8008,-1.8008,-1.8008,0.0,0.0,0.0,0.0,0.0,0.0,-1.3894,-1.3145,-1.2422,0.0,0.0,0.0,0.0,0.0,0.0,0.0,0.0,-1.1844,-1.1864,0.0,-1.2298,-1.2305,-1.2452,-1.2815,-1.1877,-1.1558,-1.184,-1.218,-1.2306,-1.2407,-1.3613,-1.4249,-1.4516,-1.4522,-1.4863,-1.5391,-1.5391,-1.5565,-1.5818,-1.5818,-1.5645,-1.5398,-1.7527,-1.747,-1.747,-1.751,-1.7529,-1.7423,-1.733,-1.7415,-1.7331,-1.6653,-1.637,-1.6008,-1.5324,-1.4513,-1.4007,0.0,-1.3717,-1.368,0.0,-1.3989,-1.4063,-1.4169,-1.4285,-1.4389,-1.4587,-1.4587,-1.4711,-1.497,0.0,0.0,0.0,-1.497,-1.497,-1.497,-1.497,-1.4902,-1.4715,-1.4715,-1.4606,-1.4515,-1.4515,-1.4515,-1.4515,-1.4515,-1.4556,-1.4715,-1.4843,-1.5029,-1.5088,-1.4529,-1.4341,-1.4222,-1.3683,-1.3941,-1.4506,-1.4565,-1.4506,-1.463,-1.5191,-1.5482,-1.578,-1.6478,-1.7038,-1.7451,-1.759,-1.7833,-1.8008,-1.8008,-1.8008,-1.8008,-1.8008,-1.8008,-1.8008,-1.8008,-1.7364,0.0,0.0,0.0,0.0,0.0,-1.3982,-1.3255,0.0,-1.185,0.0,0.0,0.0,0.0,0.0,0.0,0.0,0.0,-1.155,0.0,-1.2599,-1.1453,-1.1278,-1.2103,-1.1307,-1.1111,-1.1516,-1.176,-1.1888,-1.2054,-1.32,-1.3746,-1.4085,-1.4832,-1.5344,-1.5691,-1.5691,-1.5745,-1.5832,-1.5832,-1.5772,-1.5665,-1.7724,-1.7676,-1.7666,-1.7716,-1.7657,-1.7619,-1.7514,-1.7504,-1.7272,-1.6687,-1.6325,-1.5999,-1.5518,-1.4885,0.0,-1.4458,-1.4336,-1.4298,-1.4448,-1.4534,-1.4657,-1.4734,-1.4852,-1.4893,-1.4942,0.0,0.0,-1.5137,-1.5137,-1.5137,-1.5137,-1.5137,-1.5137,-1.5137,-1.5088,-1.497,-1.4834,-1.4715,-1.4606,-1.4455,-1.4198,-1.4318,-1.4497,-1.407,-1.4112,-1.4529,-1.4419,-1.4428,-1.4478,-1.3914,-1.3666,-1.3554,-1.2948,-1.3268,-1.3881,-1.3881,-1.3881,-1.409,-1.5087,-1.5442,-1.5848,-1.6927,-1.7424,-1.7686,-1.7794,-1.793,-1.8008,-1.8008,-1.8008,-1.8008,-1.8008,-1.8008,-1.8008,-1.8008,-1.7157,-1.6446,-1.6446,0.0,0.0,0.0,0.0,0.0,0.0,-1.1998,-1.1968,0.0,0.0,0.0,0.0,0.0,0.0,-1.1501,-1.1187,0.0,-1.1727,-1.0762,-1.0712,-1.1546,-1.0952,-1.0553,-1.0553,-1.0995,-1.1257,-1.139,-1.2387,-1.317,-1.387,-1.4532,-1.4991,-1.5255,-1.5635,-1.554,-1.5255,-1.5642,-1.5832,-1.5805,-1.8008,-1.8008,0.0,0.0,-1.8008,0.0,-1.749,-1.7266,-1.684,-1.6004,-1.5747,-1.5495,-1.5115,-1.5166,-1.5147,-1.5029,0.0,0.0,0.0,-1.5029,-1.5098,-1.5156,-1.5215,-1.5264,-1.5352,-1.5362,-1.541,-1.541,-1.541,-1.541,-1.541,-1.541,-1.541,-1.5362,-1.5264,-1.5098,-1.497,-1.4775,-1.4606,-1.4387,-1.3761,-1.3923,-1.4469,-1.3252,-1.3373,-1.4034,-1.3502,-1.339,-1.3442,-1.307,-1.2948,-1.2887,-1.2704,-1.2642,-1.2704,-1.2765,-1.2826,-1.3083,-1.4418,-1.5133,-1.5744,-1.6956,-1.7676,-1.8008,-1.8008,-1.794,-1.794,-1.8008,-1.794,-1.794,-1.8008,-1.794,-1.794,-1.794,-1.6664,-1.5596,-1.5596,0.0,0.0,0.0,0.0,0.0,0.0,-1.2599,-1.2459,0.0,0.0,0.0,0.0,0.0,-1.1121,-1.0821,-1.0843,-1.0536,-0.997,-1.0179,-1.0481,-1.0952,-1.0562,-0.9939,-0.9133,-1.0041,-1.0413,-1.052,-1.1436,-1.2477,-1.3614,-1.3707,-1.3868,-1.4292,-1.5255,-1.5159,-1.4394,-1.5445,-1.5832,-1.5832,0.0,0.0,-1.8008,-1.8008,-1.8008,-1.7978,-1.7881,-1.7546,-1.7233,-1.7015,-1.6422,-1.5965,-1.5867,-1.5556,-1.5362,-1.5303,-1.5303,-1.5245,-1.5156,-1.5156,-1.5098,-1.5029,-1.5039,-1.5088,-1.5088,-1.5205,-1.5313,-1.541,-1.541,-1.541,-1.541,-1.5313,-1.5264,-1.5264,-1.5215,-1.5029,-1.4775,-1.446,-1.4172,-1.389,-1.3329,-1.3252,-1.3373,-1.307,-1.3191,-1.3502,-1.3329,-1.339,-1.3381,-1.2704,-1.2389,-1.2143,-1.167,-1.1428,-1.1483,-1.2642,-1.2948,-1.3033,-1.3553,-1.4347,-1.5241,-1.5974,-1.7101,-1.8008,-1.8008,-1.7579,-1.7295,-1.7862,-1.7579,-1.7364,-1.7872,-1.751,-1.7148,-1.7148,-1.5877,-1.4887,-1.4887,-1.4049,0.0,0.0,-1.3419,-1.3193,-1.2893,-1.2305,-1.1864,0.0,0.0,0.0,0.0,-1.0346,-1.0439,-1.1223,-1.0682,-1.0426,-1.0637,-0.9587,-0.9296,-0.9814,-0.9579,-0.9428,-0.9498,-0.964,-0.9748,-0.9888,-1.0936,-1.1535,-1.1869,-1.2641,-1.2967,-1.3216,-1.419,-1.449,-1.4394,-1.5445,-1.5832,-1.5832,-1.8008,-1.8008,-1.8008,-1.8008,-1.8008,-1.793,-1.7745,-1.7337,-1.7051,-1.7077,-1.6315,-1.584,-1.6105,-1.5674,-1.541,-1.541,-1.541,-1.5362,-1.5313,-1.5313,-1.5254,-1.5196,-1.5196,-1.5196,-1.5196,-1.5254,-1.5303,-1.541,-1.541,-1.541,-1.541,-1.5303,-1.5313,-1.5313,-1.5205,-1.5088,-1.4902,-1.435,-1.3992,-1.383,-1.2895,-1.2773,-1.3078,-1.2466,-1.252,-1.2895,-1.2597,-1.2597,-1.2536,-1.2035,-1.1779,-1.1593,-1.1303,-1.1213,-1.1454,-1.2264,-1.2406,-1.2375,-1.3046,-1.379,-1.4582,-1.5535,-1.6619,-1.7373,-1.7019,-1.6941,-1.6941,-1.6941,-1.6664,-1.6446,-1.6872,-1.6585,-1.6376,-1.6376,-1.5384,-1.4601,-1.4601,-1.3985,0.0,-1.3492,-1.3241,-1.2898,-1.2539,-1.186,-1.1325,-1.1028,-1.0462,0.0,-1.0327,-1.0131,-1.0025,-1.0171,-0.9833,-0.9705,-0.9714,-0.9246,-0.9072,-0.9356,-0.9344,-0.9441,-0.9624,-0.9527,-0.9535,-0.9628,-1.0207,-1.0788,-1.1268,-1.1755,-1.2047,-1.2145,-1.3709,-1.4004,-1.3709,-1.5248,-1.5832,-1.5832,-1.8008,-1.8008,-1.8008,-1.8008,-1.8008,-1.7842,-1.7474,-1.6999,-1.6689,-1.668,-1.5965,-1.5692,-1.6055,-1.5752,-1.5508,-1.542,-1.541,-1.541,-1.541,-1.541,-1.541,-1.541,-1.541,-1.541,-1.541,-1.541,-1.541,-1.541,-1.541,-1.541,-1.541,-1.5362,-1.5362,-1.5362,-1.5264,-1.5156,-1.497,-1.4249,-1.383,-1.364,-1.2413,-1.2351,-1.2903,-1.1794,-1.1787,-1.2274,-1.1802,-1.1622,-1.156,-1.1373,-1.1303,-1.1303,-1.1303,-1.1489,-1.1776,-1.1898,-1.1674,-1.1636,-1.2796,-1.3402,-1.4093,-1.5365,-1.6228,-1.6515,-1.5886,-1.6158,-1.6376,-1.5816,-1.5604,-1.5604,-1.5675,-1.5604,-1.5534,-1.5534,-1.4895,-1.4466,-1.4466,0.0,-1.3514,-1.3565,-1.3037,-1.2494,-1.2153,-1.1402,-1.0787,-1.0458,-1.0269,-1.0131,-1.0162,-1.0162,-0.9672,-0.87,-0.894,-0.8914,-0.841,-0.9039,-0.9368,-0.9397,-0.9555,-0.9628,-0.9628,-0.9628,-0.9628,-0.9628,-0.9628,-1.0113,-1.0979,-1.0979,-1.0979,-1.1175,-1.3125,-1.3414,-1.292,-1.486,-1.5635,-1.5832,-1.8008,-1.8008,-1.8008,-1.8008,-1.8008,-1.7842,-1.7474,-1.6991,-1.6719,-1.6677,-1.6305,-1.604,-1.6117,-1.603,-1.5797,-1.5449,-1.541,-1.541,-1.541,-1.541,-1.541,-1.541,-1.541,-1.541,-1.541,-1.541,-1.541,-1.541,-1.541,-1.541,-1.541,-1.5254,-1.5205,-1.5205,-1.5215,-1.4793,-1.413,-1.3752,-1.3216,-1.249,-1.1934,-1.1747,-1.1872,-1.1622,-1.1622,-1.174,-1.1622,-1.1622,-1.156,-1.1247,-1.1185,-1.1303,-1.1185,-1.1213,-1.1445,-1.1633,-1.1787,-1.2028,-1.2491,-1.3278,-1.4308,-1.5424,-1.5807,-1.5877,-1.5745,-1.5313,-1.51,-1.5604,-1.5171,-1.4958,-1.5604,-1.5171,-1.4744,-1.4744,-1.4122,-1.371,-1.371,0.0,-1.3594,-1.3872,-1.3168,-1.2645,-1.27,-1.1284,-1.0274,-1.0274,-0.949,-0.8908,-0.8901,-0.891,-0.872,-0.8334,-0.9056,-0.9256,-0.897,-0.9226,-0.9433,-0.9587,-0.9616,-0.9628,-0.9628,-0.9628,-0.9628,-0.9628,-0.9628,-0.9723,-0.9821,-0.9821,-0.9821,-1.0015,-1.1175,-1.2145,-1.2829,-1.4094,-1.5064,-1.5832,-1.8008,-1.8008,-1.8008,-1.8008,-1.8008,-1.7842,-1.7474,-1.7211,-1.6981,-1.6718,-1.6374,-1.6075,-1.6086,-1.588,-1.5634,-1.543,-1.541,-1.541,-1.541,-1.541,-1.541,-1.541,-1.541,-1.541,-1.541,-1.541,-1.541,-1.541,-1.541,-1.541,-1.541,-1.5362,-1.5313,-1.5313,-1.5313,-1.5069,-1.4715,-1.3872,-1.3268,-1.2842,-1.1988,-1.1622,-1.1622,-1.1622,-1.1622,-1.1622,-1.1622,-1.1622,-1.156,-1.1435,-1.1435,-1.1435,-1.1373,-1.1488,-1.1688,-1.1816,-1.1919,-1.208,-1.265,-1.3162,-1.3692,-1.4324,-1.4824,-1.5037,-1.4617,-1.4537,-1.4609,-1.4553,-1.4266,-1.4122,-1.4482,-1.4266,-1.3977,-1.3977,-1.3702,0.0,0.0,-1.3645,-1.3657,-1.3258,-1.2778,-1.2154,-1.1644,-1.0507,-0.9817,-0.9728,-0.9155,-0.8777,-0.8776,-0.8694,-0.8566,-0.8572,-0.9025,-0.9254,-0.9234,-0.9413,-0.9543,-0.9628,-0.9628,-0.9628,-0.9628,-0.9628,-0.9628,-0.9628,-0.9628,-0.9628,-0.9628,-0.9628,-0.9628,-0.9727,-1.0788,-1.1463,-1.2047,-1.3709,-1.4586,-1.5064,-1.8008,-1.8008,-1.8008,-1.8008,-1.8008,-1.7842,-1.7474,-1.7396,-1.7255,-1.6921,-1.6594,-1.6411,-1.6401,-1.598,-1.5691,-1.5595,-1.5488,-1.541,-1.541,-1.541,-1.541,-1.541,-1.541,-1.541,-1.541,-1.541,-1.541,-1.541,-1.541,-1.541,-1.541,-1.5235,-1.5294,-1.541,-1.5235,-1.5118,-1.4874,-1.3923,-1.3329,-1.2964,-1.1988,-1.1622,-1.1622,-1.1622,-1.1622,-1.1622,-1.1622,-1.1622,-1.156,-1.156,-1.156,-1.156,-1.156,-1.1728,-1.1926,-1.1926,-1.2036,-1.2277,-1.2848,-1.3067,-1.3184,-1.3433,-1.3912,-1.4186,-1.3637,-1.3912,-1.4186,-1.3637,-1.3492,-1.3492,-1.3492,-1.3492,-1.3492,-1.3492,0.0,0.0,0.0,-1.3737,-1.3564,-1.2926,-1.2289,-1.1603,-1.0859,-1.0172,-0.9722,-0.9616,-0.931,-0.9216,-0.9127,-0.8864,-0.8857,-0.8942,-0.9084,-0.9222,-0.9352,-0.9535,-0.9628,-0.9628,-0.9628,-0.9628,-0.9628,-0.9628,-0.9628,-0.9628,-0.9628,-0.9628,-0.9628,-0.9628,-0.9628,-0.9723,-1.0498,-1.0979,-1.1463,-1.3221,-1.41,-1.449,-1.8008,-1.8008,-1.8008,-1.8008,-1.8008,-1.7842,-1.7474,-1.7378,-1.7379,-1.7369,-1.7316,-1.7307,-1.7293,-1.6908,-1.6476,-1.6097,-1.5654,-1.541,-1.541,-1.541,-1.541,-1.541,-1.541,-1.541,-1.541,-1.541,-1.541,-1.541,-1.541,-1.541,-1.541,-1.4824,-1.4883,-1.5352,-1.4824,-1.4231,-1.3623,-1.3571,-1.2842,-1.1747,-1.1622,-1.1622,-1.1622,-1.1622,-1.1622,-1.1622,-1.1622,-1.1622,-1.156,-1.1365,-1.1435,-1.156,-1.1365,-1.145,-1.1659,-1.1659,-1.2021,-1.2562,-1.2914,-1.3228,-1.347,-1.3492,-1.3564,-1.3564,-1.3492,-1.3564,-1.3564,-1.3492,-1.3492,-1.3492,-1.3492,-1.3492,-1.3492,-1.3492,0.0,0.0,-1.3945,-1.3509,-1.324,-1.3514,-1.1934,-1.1048,-1.146,-1.0751,-1.0324,-1.049,-1.0246,-0.9974,-0.9793,-0.9515,-0.932,-0.9311,-0.9328,-0.934,-0.9356,-0.9535,-0.9628,-0.9628,-0.9628,-0.9628,-0.9628,-0.9628,-0.9628,-0.9628,-0.9628,-0.9628,-0.9628,-0.9628,-0.9628,-0.9628,-0.9723,-1.0301,-1.1365,-1.2436,-1.3414,-1.449,-1.8008,-1.8008,-1.8008,-1.8008,-1.8008,-1.793,-1.7823,-1.7745,-1.7571,-1.703,-1.7251,-1.7096,-1.6256,-1.6242,-1.6122,-1.5713,-1.5498,-1.541,-1.541,-1.541,-1.541,-1.541,-1.541,-1.541,-1.541,-1.541,-1.541,-1.541,-1.541,-1.541,-1.541,-1.5177,-1.5001,-1.4824,-1.4588,-1.4112,-1.3442,-1.307,-1.2581,-1.2158,-1.174,-1.1622,-1.1622,-1.1622,-1.1622,-1.1622,-1.1622,-1.1622,-1.156,-1.1498,-1.156,-1.156,-1.1498,-1.156,-1.1641,-1.2043,-1.2475,-1.2892,-1.3221,-1.3404,-1.3492,-1.3492,-1.3492,-1.3492,-1.3492,-1.3492,-1.3492,-1.3492,-1.366,-1.3799,-1.3799,-1.396,-1.4099,-1.4099,0.0,-1.4509,-1.4311,-1.3996,-1.3507,-1.2943,-1.1992,-1.118,-1.0965,-1.0635,-1.049,-1.057,-1.0389,-1.0111,-0.9833,-0.9571,-0.9473,-0.964,-0.9559,-0.9527,-0.9527,-0.9592,-0.9628,-0.9628,-0.9628,-0.9628,-0.9628,-0.9628,-0.9628,-0.9628,-0.9628,-0.9628,-0.9628,-0.9628,-0.9628,-0.9628,-0.9628,-1.0306,-1.1365,-1.2339,-1.3414,-1.449,-1.8008,-1.8008,-1.8008,-1.8008,-1.8008,-1.8008,-1.8008,-1.791,-1.7571,-1.702,-1.7092,-1.6807,-1.5931,-1.5969,-1.5968,-1.5674,-1.5488,-1.5488,-1.5585,-1.5644,-1.5566,-1.541,-1.541,-1.541,-1.541,-1.541,-1.541,-1.541,-1.541,-1.541,-1.541,-1.5235,-1.5001,-1.4765,-1.435,-1.3923,-1.345,-1.2757,-1.2389,-1.2158,-1.174,-1.1622,-1.1622,-1.1622,-1.1622,-1.1622,-1.1622,-1.1622,-1.1622,-1.1622,-1.1622,-1.1622,-1.1622,-1.1626,-1.1838,-1.2482,-1.2833,-1.3082,-1.3404,-1.3492,-1.3492,-1.3492,-1.3492,-1.3492,-1.3492,-1.3579,-1.3653,-1.3653,-1.3909,-1.4136,-1.4136,-1.4318,-1.4501,-1.4604,-1.464,-1.4554,-1.4515,-1.3847,-1.3114,-1.2412,-1.1682,-1.1156,-1.0748,-1.0674,-1.0702,-1.0764,-1.058,-1.0297,-1.0013,-0.9853,-0.9824,-1.0018,-0.9853,-0.9826,-0.9727,-0.9628,-0.9628,-0.9628,-0.9628,-0.9628,-0.9628,-0.9628,-0.9628,-0.9628,-0.9628,-0.9628,-0.9628,-0.9628,-0.9628,-0.9628,-0.9628,-1.0306,-1.1365,-1.2339,-1.3414,-1.449,-1.8008,-1.8008,-1.8008,-1.8008,-1.8008,-1.8008,-1.8008,-1.7658,-1.7387,-1.7377,-1.6996,-1.6719,-1.6671,-1.6364,-1.6113,-1.6113,-1.5654,-1.5585,-1.6065,-1.6075,-1.5898,-1.543,-1.542,-1.541,-1.541,-1.541,-1.541,-1.541,-1.541,-1.541,-1.541,-1.4765,-1.4824,-1.5352,-1.4043,-1.3511,-1.3459,-1.2765,-1.2158,-1.163,-1.163,-1.163,-1.1622,-1.1622,-1.1622,-1.1622,-1.1622,-1.1622,-1.1622,-1.1622,-1.1622,-1.1622,-1.163,-1.178,-1.2167,-1.2819,-1.3009,-1.3082,-1.3404,-1.3492,-1.3492,-1.3492,-1.3492,-1.3492,-1.3499,-1.3748,-1.3982,-1.3989,-1.4245,-1.4472,-1.4472,-1.4479,-1.4582,-1.4896,-1.4386,-1.3998,-1.4356,-1.295,-1.1946,-1.1946,-1.1124,-1.066,-1.0877,-1.0896,-1.0981,-1.1179,-1.0998,-1.0703,-1.0408,-1.0413,-1.0413,-1.0413,-1.0413,-1.0314,-1.0019,-0.9727,-0.9628,-0.9628,-0.9628,-0.9628,-0.9628,-0.9628,-0.9628,-0.9628,-0.9628,-0.9628,-0.9628,-0.9628,-0.9628,-0.9628,-0.9628,-1.0306,-1.1365,-1.2339,-1.3414,-1.449,-1.8095,-1.8008,-1.8008,-1.8008,-1.8008,-1.8008,-1.8008,-1.792,-1.774,-1.7441,-1.7529,-1.7301,-1.6375,-1.6436,-1.628,-1.5654,-1.5488,-1.5609,-1.6058,-1.6123,-1.6139,-1.6296,-1.5742,-1.541,-1.541,-1.541,-1.541,-1.541,-1.541,-1.541,-1.541,-1.5235,-1.5153,-1.5126,-1.4277,-1.3743,-1.3607,-1.281,-1.229,-1.1889,-1.1889,-1.1758,-1.1622,-1.1622,-1.1622,-1.1622,-1.1622,-1.1622,-1.1622,-1.1622,-1.1622,-1.1604,-1.1823,-1.2116,-1.246,-1.2884,-1.317,-1.3367,-1.347,-1.3492,-1.3492,-1.3492,-1.3492,-1.3558,-1.3784,-1.3916,-1.4048,-1.4275,-1.4575,-1.4801,-1.4801,-1.5174,-1.5511,-1.5613,-1.5182,-1.4834,-1.4708,-1.3312,-1.2186,-1.2181,-1.1353,-1.0882,-1.1085,-1.1104,-1.1132,-1.1189,-1.0998,-1.0806,-1.0998,-1.0609,-1.0511,-1.0703,-1.0511,-1.0314,-1.0314,-1.0019,-0.9821,-0.9628,-0.9628,-0.9628,-0.9628,-0.9628,-0.9628,-0.9628,-0.9628,-0.9628,-0.9628,-0.9628,-0.9628,-0.9628,-0.9628,-1.0694,-1.2242,-1.263,-1.3794,-1.5445,-1.8291,-1.8105,-1.8008,-1.8008,-1.8008,-1.8008,-1.8008,-1.7842,-1.7627,-1.7169,-1.7193,-1.6864,-1.5947,-1.6059,-1.5966,-1.542,-1.5566,-1.5859,-1.6322,-1.6346,-1.6466,-1.6675,-1.6221,-1.5937,-1.5937,-1.5762,-1.5674,-1.5674,-1.5498,-1.5498,-1.5674,-1.5674,-1.5718,-1.5688,-1.4989,-1.4491,-1.3983,-1.3258,-1.2594,-1.1971,-1.1971,-1.1845,-1.1622,-1.1622,-1.1622,-1.1622,-1.1622,-1.1641,-1.175,-1.175,-1.175,-1.1823,-1.2277,-1.2467,-1.2614,-1.3067,-1.3338,-1.3492,-1.3492,-1.3587,-1.3689,-1.3689,-1.3689,-1.3777,-1.4099,-1.4275,-1.4421,-1.4611,-1.5013,-1.5328,-1.5328,-1.5745,-1.614,-1.6265,-1.5402,-1.4679,-1.4622,-1.3085,-1.1955,-1.1859,-1.1389,-1.1061,-1.1184,-1.1194,-1.1194,-1.1194,-1.1096,-1.0998,-1.1194,-1.0904,-1.0801,-1.0998,-1.0801,-1.0703,-1.0609,-1.0314,-1.0019,-0.9727,-0.9628,-0.9628,-0.9628,-0.9628,-0.9628,-0.9628,-0.9628,-0.9628,-0.9628,-0.9628,-0.9628,-0.9628,-0.9628,-1.089,-1.2732,-1.2829,-1.4184,-1.5927,-1.8783,-1.835,-1.8095,-1.8095,-1.8018,-1.8008,-1.8008,-1.7658,-1.73,-1.6856,-1.6468,-1.6035,-1.561,-1.5548,-1.5498,-1.5498,-1.588,-1.6335,-1.6739,-1.6759,-1.6789,-1.6777,-1.6787,-1.6714,-1.6665,-1.6289,-1.6145,-1.6123,-1.5684,-1.5693,-1.6123,-1.6123,-1.6357,-1.6724,-1.6056,-1.5346,-1.4661,-1.3947,-1.3091,-1.2123,-1.2123,-1.1933,-1.1711,-1.1711,-1.1711,-1.1711,-1.1674,-1.1787,-1.1971,-1.1971,-1.1971,-1.2145,-1.2804,-1.2804,-1.2687,-1.3309,-1.3492,-1.3492,-1.3492,-1.3733,-1.3989,-1.4018,-1.4048,-1.415,-1.4443,-1.4735,-1.4962,-1.5013,-1.5504,-1.5921,-1.595,-1.6206,-1.6506,-1.6806,-1.5193,-1.3984,-1.4232,-1.2543,-1.1194,-1.1194,-1.1194,-1.1194,-1.1194,-1.1194,-1.1194,-1.1194,-1.1194,-1.1194,-1.1194,-1.1194,-1.1194,-1.1194,-1.1194,-1.1096,-1.0801,-1.0609,-1.0314,-1.0019,-0.9727,-0.9628,-0.9628,-0.9628,-0.9628,-0.9628,-0.9628,-0.9628,-0.9628,-0.9628,-0.9628,-0.9628,-0.9628,-1.089,-1.2727,-1.3022,-1.4478,-1.6312,-1.9611,-1.9044,-1.8741,-1.8476,-1.8203,-1.8008,-1.8008,-1.792,-1.7833,-1.7736,-1.7346,-1.7052,-1.6971,-1.6614,-1.6437,-1.6437,-1.6495,-1.6737,-1.7244,-1.7282,-1.7253,-1.7246,-1.7246,-1.708,-1.6738,-1.6289,-1.623,-1.6592,-1.6143,-1.6152,-1.6592,-1.6592,-1.6816,-1.7171,-1.5815,-1.53,-1.5358,-1.4128,-1.3238,-1.2797,-1.2797,-1.2606,-1.2314,-1.2314,-1.2314,-1.2277,-1.2028,-1.1977,-1.1971,-1.1971,-1.1971,-1.2145,-1.2804,-1.2958,-1.298,-1.3375,-1.3492,-1.3492,-1.3492,-1.3733,-1.404,-1.4296,-1.4553,-1.475,-1.4823,-1.4889,-1.5087,-1.5599,-1.5818,-1.5987,-1.6228,-1.6535,-1.6867,-1.6934,-1.5365,-1.4201,-1.4262,-1.2543,-1.1194,-1.1194,-1.1194,-1.1194,-1.1194,-1.1194,-1.1194,-1.1194,-1.1194,-1.1194,-1.1194,-1.1194,-1.1194,-1.1194,-1.1194,-1.1194,-1.1096,-1.0806,-1.0511,-1.0019,-0.9727,-0.9628,-0.9628,-0.9628,-0.9628,-0.9628,-0.9628,-0.9727,-0.9924,-0.9727,-0.9727,-0.992,-0.992,-1.1184,-1.3022,-1.3318,-1.4758,-1.6588,-2.0459,-1.9606,-1.8953,-1.8604,-1.8378,-1.8203,-1.8183,-1.8115,-1.8018,-1.7745,-1.7556,-1.7338,-1.7105,-1.6819,-1.6815,-1.7001,-1.6798,-1.6929,-1.7373,-1.7397,-1.7426,-1.7393,-1.7578,-1.7578,-1.7353,-1.6709,-1.6494,-1.6665,-1.6494,-1.6611,-1.7041,-1.7041,-1.7275,-1.7619,-1.6501,-1.5843,-1.5604,-1.4474,-1.3652,-1.3009,-1.3009,-1.2811,-1.2519,-1.2519,-1.2519,-1.2497,-1.2328,-1.2365,-1.2519,-1.268,-1.2628,-1.2584,-1.3082,-1.3133,-1.3075,-1.3397,-1.3492,-1.3528,-1.3689,-1.3967,-1.4296,-1.4611,-1.494,-1.5174,-1.5174,-1.5292,-1.5504,-1.5848,-1.6155,-1.6411,-1.6572,-1.6865,-1.7077,-1.7077,-1.5886,-1.4841,-1.4364,-1.2926,-1.177,-1.1292,-1.1194,-1.1194,-1.1194,-1.1194,-1.1194,-1.1194,-1.1194,-1.1194,-1.1194,-1.1194,-1.1194,-1.1194,-1.1194,-1.1194,-1.1194,-1.09,-1.0708,-1.0413,-1.0117,-1.0019,-1.0019,-1.0019,-1.0019,-1.0019,-1.0019,-1.0019,-1.0216,-0.992,-0.992,-1.0216,-1.0019,-1.138,-1.3318,-1.3601,-1.5038,-1.6958,-2.1376,-2.038,-1.9455,-1.8754,-1.8652,-1.8572,-1.8387,-1.8349,-1.8183,-1.7648,-1.7552,-1.7375,-1.7012,-1.698,-1.7126,-1.7474,-1.7203,-1.7116,-1.7474,-1.7435,-1.7383,-1.7383,-1.7646,-1.7754,-1.7676,-1.7129,-1.6846,-1.6846,-1.6689,-1.6875,-1.7383,-1.7383,-1.7607,-1.794,-1.7079,-1.6306,-1.5675,-1.4752,-1.3889,-1.3097,-1.3097,-1.2928,-1.2687,-1.2687,-1.2687,-1.268,-1.2621,-1.2745,-1.298,-1.3301,-1.3228,-1.3067,-1.3397,-1.3309,-1.3148,-1.3411,-1.3536,-1.3638,-1.3909,-1.426,-1.4626,-1.4948,-1.527,-1.5526,-1.5577,-1.576,-1.5943,-1.6052,-1.6491,-1.6872,-1.6923,-1.715,-1.7326,-1.7326,-1.6466,-1.5514,-1.4651,-1.3494,-1.2344,-1.158,-1.1292,-1.1194,-1.1194,-1.1194,-1.1194,-1.1194,-1.1194,-1.1194,-1.1194,-1.1194,-1.1194,-1.1194,-1.1194,-1.1194,-1.1194,-1.1002,-1.09,-1.09,-1.0609,-1.0511,-1.0413,-1.0413,-1.0413,-1.0413,-1.0413,-1.0413,-1.0413,-1.0216,-1.0216,-1.0507,-1.0408,-1.1668,-1.3601,-1.4262,-1.5697,-1.7326,-2.2244,-2.1752,-2.1123,-1.9364,-1.9134,-1.8942,-1.8552,-1.8492,-1.8466,-1.8378,-1.8027,-1.793,-1.8225,-1.824,-1.8193,-1.793,-1.8018,-1.8018,-1.792,-1.7607,-1.7383,-1.7383,-1.707,-1.6719,-1.6338,-1.6963,-1.7295,-1.7295,-1.6533,-1.6582,-1.7383,-1.7383,-1.7607,-1.794,-1.6515,-1.5816,-1.5604,-1.4194,-1.3542,-1.3433,-1.3433,-1.3404,-1.3367,-1.3367,-1.3367,-1.3323,-1.3045,-1.2789,-1.2636,-1.2965,-1.3045,-1.3067,-1.3397,-1.347,-1.344,-1.3484,-1.3697,-1.3923,-1.3967,-1.4421,-1.4955,-1.5284,-1.5606,-1.5921,-1.6177,-1.6074,-1.6067,-1.6616,-1.6791,-1.6938,-1.7216,-1.7304,-1.7326,-1.7326,-1.6466,-1.5798,-1.5609,-1.3878,-1.2635,-1.2538,-1.177,-1.1194,-1.1194,-1.1194,-1.1194,-1.1194,-1.1194,-1.1194,-1.1194,-1.1194,-1.1194,-1.1194,-1.1194,-1.1194,-1.1194,-1.1194,-1.1194,-1.1194,-1.1096,-1.0806,-1.0413,-1.0413,-1.0413,-1.0413,-1.0413,-1.0511,-1.0708,-1.0413,-1.0507,-1.0801,-1.1663,-1.2721,-1.407,-1.6082,-1.7044,-1.7326,-2.2595,-2.2006,-2.1229,-1.9796,-1.951,-1.9337,-1.8772,-1.87,-1.8607,-1.8509,-1.8335,-1.8325,-1.8499,-1.8474,-1.8407,-1.817,-1.8279,-1.8203,-1.8008,-1.7842,-1.7734,-1.7734,-1.7549,-1.7353,-1.7158,-1.7305,-1.7383,-1.7383,-1.6992,-1.7119,-1.7734,-1.749,-1.7607,-1.794,-1.6872,-1.6376,-1.6298,-1.4752,-1.4114,-1.4049,-1.371,-1.3492,-1.3492,-1.3492,-1.3492,-1.3477,-1.3331,-1.3184,-1.3082,-1.3228,-1.3279,-1.3309,-1.3448,-1.3623,-1.377,-1.377,-1.3996,-1.4296,-1.4472,-1.4728,-1.5065,-1.5577,-1.5811,-1.6045,-1.6528,-1.6535,-1.6521,-1.6799,-1.6996,-1.7165,-1.7304,-1.7326,-1.7326,-1.7326,-1.6466,-1.5609,-1.5032,-1.3692,-1.2538,-1.1965,-1.1482,-1.1194,-1.1194,-1.1194,-1.1194,-1.1194,-1.1194,-1.1194,-1.1194,-1.1194,-1.1194,-1.1194,-1.1194,-1.1194,-1.1194,-1.1194,-1.1194,-1.1194,-1.1194,-1.1096,-1.0806,-1.0806,-1.0806,-1.0806,-1.0806,-1.09,-1.0998,-1.0708,-1.0801,-1.1096,-1.1955,-1.3397,-1.5121,-1.6749,-1.7326,-1.7326]},{"header":{"parameterUnit":"m.s-1","parameterCategory":1,"la1":30.6,"la2":28.766,"lo1":-90.7593,"lo2":-88.6598,"dy":0.0162,"dx":0.0183,"nx":116,"ny":114,"refTime":"2023-07-22T06:00:00:Z","depth":0,"parameterNumber":3,"parameterNumberName":"V-component_of_WINDS"},"data":[0.0,0.0,0.0,0.0,0.0,0.0,0.0,0.0,0.0,0.0,0.0,0.0,0.0,0.0,0.0,0.0,0.0,0.0,0.0,0.0,0.0,0.0,0.0,0.0,0.0,0.0,0.0,0.0,0.0,0.0,0.0,0.0,0.0,0.0,0.0,0.0,0.0,0.0,0.0,0.0,0.0,0.0,0.0,0.0,0.0,0.0,0.0,0.0,0.0,0.0,0.0,0.0,0.0,0.0,0.0,0.0,0.0,0.0,0.0,0.0,0.0,0.0,0.0,0.0,0.0,0.0,0.0,0.0,0.0,0.0,0.0,0.0,0.0,0.0,0.0,0.0,0.0,0.0,0.0,0.0,0.0,0.0,0.0,0.0,0.0,0.0,0.0,0.0,0.0,0.0,0.0,0.0,0.0,0.0,0.0,0.0,0.0,0.0,0.0,0.0,0.0,0.0,0.0,0.0,0.0,0.0,0.0,0.0,0.0,0.0,0.0,0.0,0.0,0.0,0.0,0.0,0.0,0.0,0.0,0.0,0.0,0.0,0.0,0.0,0.0,0.0,0.0,0.0,0.0,0.0,0.0,0.0,0.0,0.0,0.0,0.0,0.0,0.0,0.0,0.0,0.0,0.0,0.0,0.0,0.0,0.0,0.0,0.0,0.0,0.0,0.0,0.0,0.0,0.0,0.0,0.0,0.0,0.0,0.0,0.0,0.0,0.0,0.0,0.0,0.0,0.0,0.0,0.0,0.0,0.0,0.0,0.0,0.0,0.0,0.0,0.0,0.0,0.0,0.0,0.0,0.0,0.0,0.0,0.0,0.0,0.0,0.0,0.0,0.0,0.0,0.0,0.0,0.0,0.0,0.0,0.0,0.0,0.0,0.0,0.0,0.0,0.0,0.0,0.0,0.0,0.0,0.0,0.0,0.0,0.0,0.0,0.0,0.0,0.0,0.0,0.0,0.0,0.0,0.0,0.0,0.0,0.0,0.0,0.0,0.0,0.0,0.0,0.0,0.0,0.0,0.0,0.0,0.0,0.0,0.0,0.0,0.0,0.0,0.0,0.0,0.0,0.0,0.0,0.0,0.0,0.0,0.0,0.0,0.0,0.0,0.0,0.0,0.0,0.0,0.0,0.0,0.0,0.0,0.0,0.0,0.0,0.0,0.0,0.0,0.0,0.0,0.0,0.0,0.0,0.0,0.0,0.0,0.0,0.0,0.0,0.0,0.0,0.0,0.0,0.0,0.0,0.0,0.0,0.0,0.0,0.0,0.0,0.0,0.0,0.0,0.0,0.0,0.0,0.0,0.0,0.0,0.0,0.0,0.0,0.0,0.0,0.0,0.0,0.0,0.0,0.0,0.0,0.0,0.0,0.0,0.0,0.0,0.0,0.0,0.0,0.0,0.0,0.0,0.0,0.0,0.0,0.0,0.0,0.0,0.0,0.0,0.0,0.0,0.0,0.0,0.0,0.0,0.0,0.0,0.0,0.0,0.0,0.0,0.0,0.0,0.0,0.0,0.0,0.0,0.0,0.0,0.0,0.0,0.0,0.0,0.0,0.0,0.0,0.0,0.0,0.0,0.0,0.0,0.0,0.0,0.0,0.0,0.0,0.0,0.0,0.0,0.0,0.0,0.0,0.0,0.0,0.0,0.0,0.0,0.0,0.0,0.0,0.0,0.0,0.0,0.0,0.0,0.0,0.0,0.0,0.0,0.0,0.0,0.0,0.0,0.0,0.0,0.0,0.0,0.0,0.0,0.0,0.0,0.0,0.0,0.0,0.0,0.0,0.0,0.0,0.0,0.0,0.0,0.0,0.0,0.0,0.0,0.0,0.0,0.0,0.0,0.0,0.0,0.0,0.0,0.0,0.0,0.0,0.0,0.0,0.0,0.0,0.0,0.0,0.0,0.0,0.0,0.0,0.0,0.0,0.0,0.0,0.0,0.0,0.0,0.0,0.0,0.0,0.0,0.0,0.0,0.0,0.0,0.0,0.0,0.0,0.0,0.0,0.0,0.0,0.0,0.0,0.0,0.0,0.0,0.0,0.0,0.0,0.0,0.0,0.0,0.0,0.0,0.0,0.0,0.0,0.0,0.0,0.0,0.0,0.0,0.0,0.0,0.0,0.0,0.0,0.0,0.0,0.0,0.0,0.0,0.0,0.0,0.0,0.0,0.0,0.0,0.0,0.0,0.0,0.0,0.0,0.0,0.0,0.0,0.0,0.0,0.0,0.0,0.0,0.0,0.0,0.0,0.0,0.0,0.0,0.0,0.0,0.0,0.0,0.0,0.0,0.0,0.0,0.0,0.0,0.0,0.0,0.0,0.0,0.0,0.0,0.0,0.0,0.0,0.0,0.0,0.0,0.0,0.0,0.0,0.0,0.0,0.0,0.0,0.0,0.0,0.0,0.0,0.0,0.0,0.0,0.0,0.0,0.0,0.0,0.0,0.0,0.0,0.0,0.0,0.0,0.0,0.0,0.0,0.0,0.0,0.0,0.0,0.0,0.0,0.0,0.0,0.0,0.0,0.0,0.0,0.0,0.0,0.0,0.0,0.0,0.0,0.0,0.0,0.0,0.0,0.0,0.0,0.0,0.0,0.0,0.0,0.0,0.0,0.0,0.0,0.0,0.0,0.0,0.0,0.0,0.0,0.0,0.0,0.0,0.0,0.0,0.0,0.0,0.0,0.0,0.0,0.0,0.0,0.0,0.0,0.0,0.0,0.0,0.0,0.0,0.0,0.0,0.0,0.0,0.0,0.0,0.0,0.0,0.0,0.0,0.0,0.0,0.0,0.0,0.0,0.0,0.0,0.0,0.0,0.0,0.0,0.0,0.0,0.0,0.0,0.0,0.0,0.0,0.0,0.0,0.0,0.0,0.0,0.0,0.0,0.0,0.0,0.0,0.0,0.0,0.0,0.0,0.0,0.0,0.0,0.0,0.0,0.0,0.0,0.0,0.0,0.0,0.0,0.0,0.0,0.0,0.0,0.0,0.0,0.0,0.0,0.0,0.0,0.0,0.0,0.0,0.0,0.0,0.0,0.0,0.0,0.0,0.0,0.0,0.0,0.0,0.0,0.0,0.0,0.0,0.0,0.0,0.0,0.0,0.0,0.0,0.0,0.0,0.0,0.0,0.0,0.0,0.0,0.0,0.0,0.0,0.0,0.0,0.0,0.0,0.0,0.0,0.0,0.0,0.0,0.0,0.0,0.0,0.0,0.0,0.0,0.0,0.0,0.0,0.0,0.0,0.0,0.0,0.0,0.0,0.0,0.0,0.0,0.0,0.0,0.0,0.0,0.0,0.0,0.0,0.0,0.0,0.0,0.0,0.0,0.0,0.0,0.0,0.0,0.0,0.0,0.0,0.0,0.0,0.0,0.0,0.0,0.0,0.0,0.0,0.0,0.0,0.0,0.0,0.0,0.0,0.0,0.0,0.0,0.0,0.0,0.0,0.0,0.0,0.0,0.0,0.0,0.0,0.0,0.0,0.0,0.0,0.0,0.0,0.0,0.0,0.0,0.0,0.0,0.0,0.0,0.0,0.0,0.0,0.0,0.0,0.0,0.0,0.0,0.0,0.0,0.0,0.0,0.0,0.0,0.0,0.0,0.0,0.0,0.0,0.0,0.0,0.0,0.0,0.0,0.0,0.0,0.0,0.0,0.0,0.0,0.0,0.0,0.0,0.0,0.0,0.0,0.0,0.0,0.0,0.0,0.0,0.0,0.0,0.0,0.0,0.0,0.0,0.0,0.0,0.0,0.0,0.0,0.0,0.0,0.0,0.0,0.0,0.0,0.0,0.0,0.0,0.0,0.0,0.0,0.0,0.0,0.0,0.0,0.0,0.0,0.0,0.0,0.0,0.0,0.0,0.0,0.0,0.0,0.0,0.0,0.0,0.0,0.0,0.0,0.0,0.0,0.0,0.0,0.0,0.0,0.0,0.0,0.0,0.0,0.0,0.0,0.0,0.0,0.0,0.0,0.0,0.0,0.0,0.0,0.0,0.0,0.0,0.0,0.0,0.0,0.0,0.0,0.0,0.0,0.0,0.0,0.0,0.0,0.0,0.0,0.0,0.0,0.0,0.0,0.0,0.0,0.0,0.0,0.0,0.0,0.0,0.0,0.0,0.0,0.0,0.0,0.0,0.0,0.0,0.0,0.0,0.0,0.0,0.0,0.0,0.0,0.0,0.0,0.0,0.0,0.0,0.0,0.0,0.0,0.0,0.0,0.0,0.0,0.0,0.0,0.0,0.0,0.0,0.0,0.0,0.0,0.0,0.0,0.0,0.0,0.0,0.0,0.0,0.0,0.0,0.0,0.0,0.0,0.0,0.0,0.0,0.0,0.0,0.0,0.0,0.0,0.0,0.0,0.0,0.0,0.0,0.0,0.0,0.0,0.0,0.0,0.0,0.0,0.0,0.0,0.0,0.0,0.0,0.0,0.0,0.0,0.0,0.0,0.0,0.0,0.0,0.0,0.0,0.0,0.0,0.0,0.0,0.0,0.0,0.0,0.0,0.0,0.0,0.0,0.0,0.0,0.0,0.0,0.0,0.0,0.0,0.0,0.0,0.0,0.0,0.0,0.0,0.0,0.0,0.0,0.0,0.0,0.0,0.0,0.0,0.0,0.0,0.0,0.0,0.0,0.0,0.0,0.0,0.0,0.0,0.0,0.0,0.0,0.0,0.0,0.0,0.0,0.0,0.0,0.0,0.0,0.0,0.0,0.0,0.0,0.0,0.0,0.0,0.0,0.0,0.0,0.0,0.0,0.0,0.0,0.0,0.0,0.0,0.0,0.0,0.0,0.0,0.0,0.0,0.0,0.0,0.0,0.0,0.0,0.0,0.0,0.0,0.0,0.0,0.0,0.0,0.0,0.0,0.0,0.0,0.0,0.0,0.0,0.0,0.0,0.0,0.0,0.0,0.0,0.0,0.0,0.0,0.0,0.0,0.0,0.0,0.0,0.0,0.0,0.0,0.0,0.0,0.0,0.0,0.0,0.0,0.0,0.0,0.0,0.0,0.0,0.0,0.0,0.0,0.0,0.0,0.0,0.0,0.0,0.0,0.0,0.0,0.0,0.0,0.0,0.0,0.0,0.0,0.0,0.0,0.0,0.0,0.0,0.0,0.0,0.0,0.0,0.0,0.0,0.0,0.0,0.0,0.0,0.0,0.0,0.0,0.0,0.0,0.0,0.0,0.0,0.0,0.0,0.0,0.0,0.0,0.0,0.0,0.0,0.0,0.0,0.0,0.0,0.0,0.0,0.0,0.0,0.0,0.0,0.0,0.0,0.0,0.0,0.0,0.0,0.0,0.0,0.0,0.0,0.0,0.0,0.0,0.0,0.0,0.0,0.0,0.0,0.0,0.0,0.0,0.0,0.0,0.0,0.0,0.0,0.0,0.0,0.0,0.0,0.0,0.0,0.0,0.0,0.0,0.0,0.0,0.0,0.0,0.0,0.0,0.0,0.0,0.0,0.0,0.0,0.0,0.0,0.0,0.0,0.0,0.0,0.0,0.0,0.0,0.0,0.0,0.0,0.0,0.0,0.0,0.0,0.0,0.0,0.0,0.0,0.0,0.0,0.0,0.0,0.0,0.0,0.0,0.0,0.0,0.0,0.0,0.0,0.0,0.0,0.0,0.0,0.0,0.0,0.0,0.0,0.0,0.0,0.0,0.0,0.0,0.0,0.0,0.0,0.0,0.0,0.0,0.0,0.0,0.0,0.0,0.0,0.0,0.0,0.0,0.0,0.0,0.0,0.0,0.0,0.0,0.0,0.0,0.0,0.0,0.0,0.0,0.0,0.0,0.0,0.0,0.0,0.0,0.0,0.0,0.0,0.0,0.0,0.0,0.0,0.0,0.0,0.0,0.0,0.0,0.0,0.0,0.0,0.0,0.0,0.0,0.0,0.0,0.0,0.0,0.0,0.0,0.0,0.0,0.0,0.0,0.0,0.0,0.0,0.0,0.0,0.0,0.0,0.0,0.0,0.0,0.0,0.0,0.0,0.0,0.0,0.0,0.0,0.0,0.0,0.0,0.0,0.0,0.0,0.0,0.0,0.0,0.0,0.0,0.0,0.0,0.0,0.0,0.0,0.0,0.0,0.0,0.0,-2.1211,0.0,0.0,0.0,0.0,0.0,0.0,0.0,0.0,0.0,0.0,0.0,0.0,0.0,0.0,0.0,0.0,0.0,0.0,0.0,0.0,0.0,0.0,0.0,0.0,0.0,0.0,0.0,0.0,0.0,0.0,0.0,0.0,0.0,0.0,0.0,0.0,0.0,0.0,0.0,0.0,0.0,0.0,0.0,0.0,0.0,0.0,0.0,0.0,0.0,0.0,0.0,0.0,0.0,0.0,0.0,0.0,0.0,0.0,0.0,0.0,0.0,0.0,0.0,0.0,0.0,0.0,0.0,0.0,0.0,0.0,0.0,0.0,0.0,0.0,0.0,0.0,0.0,0.0,0.0,0.0,0.0,0.0,0.0,0.0,0.0,0.0,0.0,0.0,0.0,0.0,0.0,0.0,0.0,0.0,0.0,0.0,0.0,0.0,0.0,0.0,0.0,0.0,0.0,0.0,0.0,0.0,0.0,0.0,0.0,0.0,0.0,0.0,0.0,0.0,0.0,0.0,-2.2773,0.0,0.0,0.0,0.0,0.0,0.0,0.0,0.0,0.0,0.0,0.0,0.0,0.0,0.0,0.0,0.0,0.0,0.0,0.0,0.0,0.0,0.0,0.0,0.0,0.0,0.0,0.0,0.0,0.0,0.0,0.0,0.0,0.0,0.0,0.0,0.0,0.0,0.0,0.0,0.0,0.0,0.0,0.0,0.0,0.0,0.0,0.0,0.0,0.0,0.0,0.0,0.0,0.0,0.0,0.0,0.0,0.0,0.0,0.0,0.0,0.0,0.0,0.0,0.0,0.0,0.0,0.0,0.0,0.0,0.0,0.0,0.0,0.0,0.0,0.0,0.0,0.0,0.0,0.0,0.0,0.0,0.0,0.0,0.0,0.0,0.0,0.0,0.0,0.0,0.0,0.0,0.0,0.0,0.0,0.0,0.0,0.0,0.0,0.0,0.0,0.0,0.0,0.0,0.0,0.0,0.0,0.0,0.0,-2.3272,-2.3395,-2.3457,-2.3718,-2.3405,-2.2625,-2.2682,-2.262,-2.2485,0.0,0.0,0.0,0.0,0.0,0.0,0.0,0.0,0.0,0.0,0.0,0.0,0.0,0.0,0.0,0.0,0.0,0.0,0.0,0.0,0.0,0.0,0.0,0.0,0.0,0.0,0.0,0.0,0.0,0.0,0.0,0.0,0.0,0.0,0.0,0.0,0.0,0.0,0.0,-1.615,-1.6337,-1.6371,-1.6289,0.0,0.0,0.0,0.0,0.0,0.0,0.0,0.0,0.0,0.0,0.0,0.0,0.0,0.0,0.0,0.0,0.0,0.0,0.0,0.0,0.0,0.0,0.0,0.0,0.0,0.0,0.0,0.0,0.0,0.0,0.0,0.0,0.0,0.0,0.0,0.0,0.0,0.0,0.0,0.0,0.0,0.0,0.0,0.0,-1.6673,-1.8723,0.0,0.0,0.0,0.0,0.0,0.0,0.0,0.0,0.0,0.0,0.0,0.0,0.0,-2.3363,-2.4104,-2.3799,-2.4297,-2.5622,-2.4751,-2.461,-2.516,-2.5225,-2.4757,-2.394,-2.3894,0.0,-2.2096,-2.2395,0.0,0.0,0.0,0.0,0.0,0.0,0.0,0.0,0.0,0.0,0.0,0.0,0.0,0.0,0.0,0.0,0.0,0.0,0.0,0.0,0.0,0.0,0.0,0.0,0.0,0.0,0.0,0.0,0.0,0.0,0.0,0.0,0.0,0.0,0.0,0.0,-1.5719,-1.6326,-1.692,-1.7063,-1.7015,-1.6908,-1.6681,-1.6102,-1.5367,-1.5546,0.0,0.0,0.0,0.0,0.0,0.0,0.0,0.0,0.0,0.0,0.0,0.0,0.0,0.0,0.0,0.0,0.0,0.0,0.0,0.0,0.0,0.0,0.0,0.0,0.0,0.0,0.0,0.0,0.0,0.0,0.0,0.0,0.0,0.0,0.0,0.0,0.0,0.0,0.0,-1.8036,-1.8365,-1.8241,-1.9174,-2.0065,0.0,0.0,0.0,0.0,0.0,0.0,0.0,0.0,0.0,-2.4074,-2.4288,-2.4719,-2.5501,-2.5589,-2.6157,-2.7154,-2.672,-2.6644,-2.6882,-2.6699,-2.6184,-2.5363,-2.4913,-2.4331,-2.3697,-2.3042,-2.2649,-2.2449,0.0,0.0,0.0,0.0,-2.2923,-2.2923,0.0,0.0,0.0,0.0,0.0,0.0,0.0,0.0,0.0,0.0,0.0,0.0,0.0,0.0,0.0,0.0,0.0,0.0,0.0,0.0,0.0,0.0,0.0,0.0,0.0,0.0,0.0,0.0,-1.6209,-1.6788,-1.7518,-1.7555,-1.754,-1.7482,-1.7482,-1.6822,-1.5668,-1.5668,-1.545,0.0,0.0,0.0,0.0,0.0,0.0,0.0,0.0,0.0,0.0,0.0,0.0,0.0,0.0,0.0,0.0,0.0,0.0,0.0,0.0,0.0,0.0,0.0,0.0,0.0,0.0,0.0,0.0,0.0,0.0,0.0,0.0,0.0,0.0,0.0,0.0,0.0,0.0,-1.8838,-1.8936,-1.8115,-1.9249,-2.0273,0.0,0.0,0.0,0.0,0.0,0.0,-2.3472,-2.4021,-2.4834,-2.6029,-2.6187,-2.6545,-2.7226,-2.7693,-2.8307,-2.9109,-2.899,-2.8852,-2.8672,-2.8439,-2.7781,-2.6789,-2.6277,-2.5893,-2.5524,-2.3916,-2.2953,-2.2479,-2.2519,-2.2566,-2.2625,-2.2789,-2.2737,-2.2573,0.0,0.0,0.0,0.0,0.0,0.0,0.0,0.0,0.0,0.0,0.0,0.0,0.0,0.0,0.0,0.0,0.0,0.0,0.0,0.0,0.0,0.0,0.0,0.0,0.0,0.0,0.0,-1.6361,-1.6525,-1.6919,-1.7618,-1.7709,-1.7862,-1.807,-1.807,-1.7243,-1.5866,-1.5866,-1.5579,-1.5108,0.0,0.0,0.0,0.0,0.0,0.0,0.0,0.0,0.0,0.0,0.0,0.0,0.0,0.0,0.0,0.0,0.0,0.0,0.0,0.0,0.0,0.0,0.0,0.0,0.0,0.0,0.0,0.0,0.0,0.0,0.0,0.0,0.0,0.0,0.0,0.0,0.0,0.0,0.0,-1.9461,-1.9919,0.0,0.0,0.0,0.0,-2.2634,-2.3631,-2.4524,-2.5415,-2.5973,-2.6565,-2.7272,-2.8311,-2.9155,-2.9799,-3.021,-3.0995,-3.2089,-3.1445,-3.0945,-3.0575,-3.0542,-2.9719,-2.8296,-2.8279,-2.7848,-2.7035,-2.4845,-2.3567,-2.2979,-2.2979,-2.2588,-2.214,-2.2772,-2.2558,-2.2041,0.0,0.0,0.0,0.0,0.0,0.0,0.0,0.0,0.0,0.0,0.0,0.0,0.0,0.0,0.0,0.0,0.0,0.0,0.0,0.0,0.0,0.0,0.0,0.0,0.0,0.0,0.0,-1.814,-1.8115,-1.8842,-2.0212,-1.983,-1.9594,-1.9491,-1.9491,-1.8899,-1.7783,-1.7128,-1.6554,-1.6061,-1.5751,-1.494,0.0,0.0,0.0,0.0,0.0,0.0,0.0,0.0,0.0,0.0,0.0,0.0,0.0,0.0,0.0,0.0,0.0,0.0,0.0,0.0,0.0,0.0,0.0,0.0,0.0,0.0,0.0,0.0,0.0,0.0,0.0,0.0,0.0,0.0,0.0,0.0,0.0,-2.1264,-2.26,0.0,-2.3597,-2.423,-2.4766,-2.5025,-2.5689,-2.6428,-2.7242,-2.814,-2.8971,-2.9709,-3.082,-3.1581,-3.1815,-3.2576,-3.3161,-3.3598,-3.3129,-3.2817,-3.2702,-3.222,-3.143,-3.0444,-2.9963,-2.9334,-2.8555,-2.733,-2.5857,-2.4348,-2.4348,-2.3916,-2.3266,-2.3019,-2.3086,-2.3137,0.0,0.0,0.0,0.0,0.0,0.0,0.0,0.0,0.0,0.0,0.0,0.0,0.0,0.0,0.0,0.0,0.0,0.0,0.0,0.0,0.0,0.0,0.0,0.0,0.0,0.0,0.0,0.0,0.0,-2.0436,-2.2112,-2.1606,-2.1345,-2.1415,-2.1236,-2.0699,-1.992,-1.9068,-1.7966,-1.683,-1.6151,-1.5246,-1.4247,0.0,0.0,0.0,0.0,0.0,0.0,0.0,0.0,0.0,0.0,0.0,0.0,0.0,0.0,0.0,0.0,0.0,0.0,0.0,0.0,0.0,0.0,0.0,0.0,0.0,0.0,0.0,0.0,0.0,0.0,0.0,0.0,0.0,0.0,0.0,-2.2692,-2.3191,-2.479,-2.5877,-2.5922,-2.6719,-2.73,-2.7498,-2.8027,-2.8804,-2.9733,-3.0746,-3.1597,-3.2342,-3.3489,-3.399,-3.372,-3.4525,-3.4775,-3.4497,-3.4308,-3.3905,-3.3392,-3.2911,-3.215,-3.1179,-3.0683,-3.0228,-2.9748,-2.9284,-2.7959,-2.6187,-2.5938,-2.5243,-2.4348,-2.41,-2.4,-2.3868,0.0,0.0,0.0,0.0,0.0,0.0,0.0,0.0,0.0,0.0,0.0,0.0,0.0,0.0,0.0,0.0,0.0,0.0,0.0,0.0,0.0,0.0,0.0,0.0,0.0,0.0,0.0,0.0,0.0,0.0,0.0,-2.277,-2.3031,-2.3578,-2.3031,-2.2604,-2.219,-2.155,-1.9769,-1.745,-1.6387,-1.5836,-1.5491,0.0,0.0,0.0,0.0,0.0,0.0,0.0,0.0,0.0,0.0,0.0,0.0,0.0,0.0,0.0,0.0,0.0,0.0,0.0,0.0,0.0,0.0,0.0,0.0,0.0,0.0,0.0,0.0,0.0,0.0,0.0,0.0,0.0,-2.2194,-2.2686,-2.3644,-2.5244,-2.6351,-2.7122,-2.7265,-2.8369,-2.9312,-2.9962,-3.0622,-3.1561,-3.2879,-3.3558,-3.4288,-3.51,-3.612,-3.6334,-3.5595,-3.5991,-3.574,-3.4899,-3.4899,-3.4137,-3.2713,-3.2713,-3.1934,-3.0543,-3.0543,-3.0543,-3.0526,-3.0526,-2.9698,-2.8373,-2.7665,-2.6452,-2.5259,-2.5955,-2.5276,-2.4,0.0,0.0,0.0,0.0,0.0,0.0,0.0,0.0,0.0,0.0,0.0,0.0,0.0,0.0,0.0,0.0,0.0,0.0,0.0,0.0,0.0,0.0,0.0,0.0,0.0,0.0,0.0,0.0,0.0,0.0,0.0,0.0,-2.4091,-2.3484,-2.3365,-2.3058,-2.2534,-2.2384,-2.1433,-1.9975,-1.7723,-1.6192,-1.5142,0.0,0.0,0.0,0.0,0.0,0.0,0.0,0.0,0.0,0.0,0.0,0.0,0.0,0.0,0.0,0.0,0.0,0.0,0.0,0.0,0.0,0.0,0.0,0.0,0.0,0.0,0.0,0.0,0.0,0.0,0.0,0.0,-2.2571,-2.2627,-2.4485,-2.6319,-2.7667,-2.9425,-3.0728,-3.1283,-3.2159,-3.2837,-3.302,-3.3102,-3.3521,-3.4337,-3.4744,-3.5101,-3.53,-3.5959,-3.5938,-3.5224,-3.5235,-3.5146,-3.4899,-3.4899,-3.4402,-3.3491,-3.3491,-3.2696,-3.1279,-3.1279,-3.1007,-3.0526,-3.0526,-3.0278,-2.9864,-2.9118,-2.7942,-2.6634,-2.6319,-2.5276,-2.4083,0.0,0.0,0.0,0.0,0.0,0.0,0.0,0.0,0.0,0.0,0.0,0.0,0.0,0.0,0.0,0.0,0.0,0.0,0.0,0.0,0.0,0.0,0.0,0.0,0.0,0.0,0.0,0.0,0.0,0.0,0.0,0.0,0.0,-2.511,-2.5135,-2.4636,-2.3745,-2.3478,-2.2857,-2.1884,-1.9555,-1.7835,-1.6545,-1.479,-1.3975,-1.3657,-1.3166,-1.2938,-1.2836,-1.2986,0.0,0.0,0.0,0.0,0.0,0.0,0.0,0.0,0.0,0.0,0.0,0.0,0.0,0.0,0.0,0.0,0.0,0.0,0.0,0.0,0.0,0.0,0.0,0.0,-2.3917,-2.5002,-2.5558,-2.7003,-2.8634,-3.0301,-3.2049,-3.3244,-3.3713,-3.4636,-3.5276,-3.5276,-3.5118,-3.5307,-3.5922,-3.6132,-3.6235,-3.6229,-3.708,-3.6888,-3.5595,-3.6109,-3.5859,-3.4899,-3.5214,-3.48,-3.3789,-3.3789,-3.316,0.0,-3.1752,-3.1345,-3.0957,-3.0642,-3.0328,0.0,0.0,0.0,0.0,0.0,-2.612,-2.5392,0.0,0.0,0.0,0.0,0.0,0.0,0.0,0.0,0.0,0.0,0.0,0.0,0.0,0.0,0.0,0.0,0.0,0.0,0.0,0.0,0.0,0.0,0.0,0.0,0.0,0.0,0.0,0.0,0.0,0.0,0.0,0.0,0.0,0.0,-2.7409,-2.6622,-2.5205,-2.463,-2.4039,-2.3338,-2.162,-2.018,-1.8817,-1.6348,-1.5618,-1.58,-1.4502,-1.3816,-1.3478,-1.3542,0.0,0.0,0.0,0.0,0.0,0.0,0.0,0.0,0.0,0.0,0.0,0.0,0.0,0.0,0.0,0.0,0.0,0.0,0.0,0.0,0.0,0.0,0.0,0.0,-2.6384,-2.8397,-2.9819,-3.0088,-3.0889,-3.2823,-3.4061,-3.48,-3.5031,-3.5968,-3.6616,-3.6662,-3.6507,-3.678,-3.7515,0.0,0.0,0.0,0.0,-3.8385,-3.632,-3.7519,-3.7103,-3.5032,-3.5595,-3.5148,-3.3789,-3.3789,-3.3392,-3.2646,-3.2017,-3.1692,-3.1643,-3.104,-3.0328,-2.9715,-3.0212,-2.9996,-2.9268,-2.7976,-2.745,-2.7234,0.0,0.0,0.0,0.0,0.0,0.0,0.0,0.0,0.0,0.0,0.0,0.0,0.0,0.0,0.0,0.0,0.0,0.0,0.0,0.0,0.0,0.0,0.0,0.0,0.0,0.0,0.0,0.0,0.0,0.0,0.0,0.0,0.0,0.0,0.0,-2.6486,-2.5631,-2.5463,-2.4889,-2.4028,-2.3789,-2.2059,-1.9331,-1.7238,-1.6153,-1.5726,-1.4834,-1.4443,-1.4318,-1.4257,-1.3922,-1.3504,-1.3416,0.0,0.0,0.0,0.0,0.0,0.0,0.0,0.0,0.0,0.0,0.0,0.0,0.0,0.0,0.0,0.0,0.0,0.0,0.0,0.0,-2.7379,-2.8974,-3.0597,-3.2467,-3.3185,-3.3726,-3.4115,-3.4385,-3.476,-3.5314,-3.5691,-3.6117,-3.6677,-3.666,-3.7125,-3.8327,-3.8181,0.0,-3.8038,-3.8292,-3.7982,-3.6953,-3.6622,-3.6257,-3.5777,0.0,0.0,-3.3789,-3.3789,-3.3392,-3.268,-3.2547,-3.2481,-3.2481,-3.2332,-3.1835,-3.109,-3.0046,-2.9549,-2.9383,-2.9102,-2.8274,-2.7367,0.0,0.0,0.0,0.0,0.0,0.0,0.0,0.0,0.0,0.0,0.0,0.0,0.0,0.0,0.0,0.0,0.0,0.0,0.0,0.0,0.0,0.0,0.0,0.0,0.0,0.0,0.0,0.0,0.0,0.0,0.0,0.0,0.0,0.0,0.0,0.0,-2.6597,-2.6355,-2.5873,-2.5344,-2.4938,-2.3561,-2.1461,-1.961,-1.8494,-1.7788,-1.6351,-1.5494,-1.4972,-1.4785,-1.4444,-1.4165,-1.4138,-1.3858,-1.358,0.0,0.0,0.0,0.0,0.0,0.0,0.0,0.0,0.0,0.0,0.0,0.0,0.0,0.0,-2.2517,0.0,0.0,-2.7855,-2.9783,-3.115,-3.2467,-3.3799,-3.4562,-3.4996,-3.4996,-3.503,-3.5341,-3.6054,-3.6415,-3.6951,-3.7621,-3.7854,-3.827,-3.8931,-3.8843,-3.864,-3.8228,-3.8212,-3.7682,-3.6572,-3.692,-3.6738,-3.6009,-3.6373,-3.6174,-3.5446,-3.5065,-3.47,-3.4303,-3.3557,-3.3197,-3.3086,-3.2331,-3.1775,-3.1347,-3.0243,-2.984,-2.993,-2.9549,-2.8953,-2.8357,0.0,0.0,0.0,0.0,0.0,0.0,0.0,0.0,0.0,0.0,0.0,0.0,0.0,0.0,0.0,0.0,0.0,0.0,0.0,0.0,0.0,0.0,0.0,0.0,0.0,0.0,0.0,0.0,0.0,0.0,0.0,0.0,0.0,0.0,0.0,0.0,-2.758,-2.7104,-2.6792,-2.6572,-2.576,-2.4909,-2.3921,-2.1981,-2.0711,-1.9704,-1.7632,-1.6236,-1.5332,-1.5002,-1.4661,-1.4354,-1.4518,-1.4338,-1.4033,-1.4041,-1.4201,0.0,0.0,0.0,0.0,0.0,0.0,0.0,0.0,0.0,-2.0009,-2.156,-2.3358,-2.5157,-2.6934,-2.8843,-3.0582,-3.1884,-3.311,-3.4068,-3.4607,-3.516,-3.5459,-3.5325,-3.5627,-3.6054,-3.6616,-3.7191,-3.7838,-3.8495,-3.8914,-3.9148,-3.9272,-3.9139,-3.8742,-3.803,-3.8146,-3.7566,-3.6224,-3.7549,-3.7615,-3.6439,-3.75,-3.7698,-3.7069,-3.634,-3.6009,-3.5926,-3.4537,-3.3912,-3.3672,-3.243,-3.1827,-3.1647,-3.1041,-3.0816,-3.074,-2.9881,-2.9452,-2.927,0.0,0.0,0.0,0.0,0.0,0.0,0.0,0.0,0.0,0.0,0.0,0.0,0.0,0.0,0.0,0.0,0.0,0.0,0.0,0.0,0.0,0.0,0.0,0.0,0.0,0.0,0.0,0.0,0.0,0.0,0.0,0.0,0.0,0.0,0.0,0.0,0.0,-2.7557,-2.7254,-2.7023,-2.6617,-2.606,-2.5299,-2.2907,-2.0865,-1.9028,-1.6931,-1.5841,-1.5341,-1.4809,-1.433,-1.3956,-1.3878,-1.377,-1.361,-1.3263,0.0,-1.402,-1.402,-1.4523,-1.5302,-1.6356,-1.7328,-1.8472,0.0,0.0,-2.2419,-2.3741,-2.5368,-2.7116,-2.9143,-3.0982,-3.2617,-3.3933,-3.4786,-3.531,-3.5385,-3.5459,-3.528,-3.4666,-3.5641,-3.6368,-3.643,-3.7011,-3.7663,-3.8294,-3.8407,-3.8662,-3.9272,-3.8676,-3.7996,-3.7251,-3.7864,-3.7814,-3.6986,-3.7798,-3.8129,-3.7963,-3.7466,-3.7185,-3.7069,-3.634,-3.6009,-3.5959,-3.5035,-3.4528,-3.4366,-3.4202,-3.376,-3.317,-3.3072,-3.2646,-3.1954,-3.0609,-2.9707,-2.9231,0.0,0.0,0.0,0.0,0.0,0.0,0.0,0.0,0.0,0.0,0.0,0.0,0.0,0.0,0.0,0.0,0.0,0.0,0.0,0.0,0.0,0.0,0.0,0.0,0.0,0.0,0.0,0.0,0.0,0.0,0.0,0.0,0.0,0.0,0.0,0.0,0.0,-2.7603,-2.7312,-2.7046,-2.6747,-2.5858,-2.459,-2.2044,-2.0068,-1.8398,-1.6898,-1.5806,0.0,0.0,-1.4503,-1.442,-1.4449,-1.4256,-1.3962,-1.3819,-1.3962,0.0,-1.464,-1.5775,0.0,0.0,-1.9384,-2.11,-2.2369,-2.3563,-2.4741,-2.5954,-2.7982,-2.9916,-3.1111,-3.2952,-3.4442,0.0,-3.5325,-3.5504,-3.5504,-3.516,-3.4666,-3.3978,-3.4618,-3.5268,-3.5716,-3.6324,-3.6899,-3.7527,-3.799,-3.836,-3.8659,-3.8758,-3.8692,-3.8377,-3.8261,-3.8063,-3.7748,-3.8063,-3.8212,-3.8212,-3.8311,-3.8146,-3.7748,-3.7433,-3.682,-3.5959,-3.502,-3.4546,-3.4464,-3.3925,-3.347,-3.3161,-3.2738,-3.238,-3.2036,-3.116,-3.0631,-3.0353,0.0,0.0,0.0,0.0,0.0,0.0,0.0,0.0,0.0,0.0,0.0,0.0,0.0,0.0,0.0,0.0,0.0,0.0,0.0,0.0,0.0,0.0,0.0,0.0,0.0,0.0,0.0,0.0,0.0,0.0,0.0,0.0,0.0,0.0,0.0,0.0,0.0,0.0,-2.7193,-2.6912,-2.638,-2.5325,-2.3807,-2.1031,-1.9171,-1.7812,-1.6385,-1.534,0.0,0.0,-1.4348,-1.4451,-1.4563,-1.4386,-1.4117,-1.4117,-1.4313,-1.4729,-1.5881,0.0,0.0,-1.9922,-2.1848,-2.37,-2.4762,-2.5942,-2.7184,-2.8545,-3.0361,-3.198,-3.2835,-3.4053,-3.5011,-3.519,-3.522,-3.5295,-3.5474,-3.4592,-3.3754,-3.3275,-3.3295,-3.3603,-3.4352,-3.5428,-3.628,-3.6754,-3.7682,-3.8212,-3.8212,-3.8709,-3.899,-3.899,-3.8477,-3.8212,-3.8212,-3.8411,-3.851,-3.851,-3.9023,-3.9007,-3.8493,-3.8242,-3.7413,-3.6058,-3.5169,-3.4759,-3.4644,-3.3746,-3.3372,-3.3307,-3.2789,-3.2595,-3.2498,-3.1971,-3.154,-3.1148,0.0,0.0,0.0,0.0,0.0,0.0,0.0,0.0,0.0,0.0,0.0,0.0,0.0,0.0,0.0,0.0,0.0,0.0,0.0,0.0,0.0,0.0,0.0,0.0,0.0,0.0,0.0,0.0,0.0,0.0,0.0,0.0,0.0,0.0,0.0,0.0,0.0,0.0,-2.6745,-2.655,-2.5504,-2.4608,-2.349,-2.0273,-1.8396,-1.7231,-1.512,0.0,0.0,0.0,-1.346,-1.346,-1.3604,-1.3652,0.0,-1.3631,-1.4129,0.0,0.0,0.0,-2.0338,-2.2834,-2.4481,-2.5818,-2.7104,-2.8333,-2.9807,-3.1818,-3.2176,-3.2624,-3.414,-3.3978,-3.3769,-3.4397,-3.4502,-3.4741,-3.5415,-3.3814,-3.2557,-3.2542,-3.1736,-3.1476,0.0,-3.4544,-3.6025,-3.6025,-3.7384,-3.8212,-3.8212,-3.8228,-3.8245,-3.8245,-3.8228,-3.8212,-3.8212,-3.8907,-3.9239,-3.9239,-3.9309,-3.9309,-3.9222,-3.8421,-3.7416,-3.6332,-3.5668,-3.5307,-3.514,-3.4376,-3.4068,-3.4068,-3.4052,-3.4036,-3.3955,-3.3275,-3.2125,-3.1024,0.0,0.0,0.0,0.0,0.0,0.0,0.0,0.0,0.0,0.0,0.0,0.0,0.0,0.0,0.0,0.0,0.0,0.0,0.0,0.0,0.0,0.0,0.0,0.0,0.0,0.0,0.0,0.0,0.0,0.0,0.0,0.0,0.0,0.0,0.0,0.0,0.0,0.0,-2.5362,-2.5456,-2.4041,-2.3132,-2.2387,-1.9205,-1.7546,-1.675,0.0,0.0,0.0,0.0,0.0,0.0,-1.3573,-1.3621,-1.3705,-1.4201,-1.5404,-1.6973,0.0,0.0,-2.3326,-2.5172,-2.6896,-2.8239,-2.9078,-2.9862,-3.052,-3.08,-3.0588,-3.0284,-3.0438,-3.073,-3.1255,-3.2347,-3.326,-3.4053,-3.4726,-3.4247,-3.317,-3.139,-3.1921,0.0,0.0,0.0,0.0,-3.523,-3.6655,-3.7483,-3.7483,-3.8394,-3.8924,-3.8924,-3.8924,-3.8924,-3.8924,-3.9156,-3.9272,-3.9272,-3.8739,-3.8632,-3.8936,-3.7666,-3.7134,-3.7175,-3.5948,-3.56,-3.5938,-3.5156,-3.4813,-3.4813,-3.4813,-3.4522,-3.4068,-3.3841,-3.3161,-3.2336,0.0,0.0,0.0,0.0,0.0,0.0,0.0,0.0,0.0,0.0,0.0,0.0,0.0,0.0,0.0,0.0,0.0,0.0,0.0,0.0,0.0,0.0,0.0,0.0,0.0,0.0,0.0,0.0,0.0,0.0,0.0,0.0,0.0,0.0,0.0,0.0,0.0,0.0,0.0,-2.3202,-2.1993,-2.1212,-2.0505,-1.8113,-1.6918,0.0,0.0,0.0,0.0,0.0,0.0,0.0,-1.381,-1.4142,-1.462,-1.5679,-1.7132,-1.897,-2.123,-2.3595,-2.5858,-2.7416,-2.8908,-2.998,-3.0346,-3.0411,-3.025,-2.9862,-2.9008,-2.8229,-2.7824,-2.798,-2.8592,-2.9909,-3.1031,-3.2228,-3.3589,-3.3365,-3.2796,-3.2004,-3.2439,-3.2475,0.0,0.0,0.0,-3.4485,-3.6125,-3.7102,-3.7102,-3.8493,-3.9272,-3.9272,-3.9272,-3.9272,-3.9272,-3.9272,-3.9272,-3.9272,-3.8649,-3.8541,-3.8772,-3.7785,-3.7567,-3.7889,-3.6609,-3.6166,-3.6312,-3.5529,-3.5185,-3.5185,-3.5185,-3.5056,-3.4845,-3.4586,-3.4214,-3.3728,0.0,0.0,0.0,0.0,0.0,0.0,0.0,0.0,0.0,0.0,0.0,0.0,0.0,0.0,0.0,0.0,0.0,0.0,0.0,0.0,0.0,0.0,0.0,0.0,-1.8667,-1.9622,-2.0363,-2.0795,0.0,0.0,0.0,0.0,0.0,0.0,0.0,0.0,0.0,0.0,0.0,-2.0029,-1.9589,-1.8935,-1.8082,-1.705,0.0,0.0,0.0,0.0,0.0,0.0,0.0,0.0,0.0,-1.5216,-1.6358,-1.7951,-1.9348,-2.1082,-2.4368,-2.6321,-2.7867,-2.9481,-3.042,-3.0934,-3.0908,-2.9993,-2.9138,-2.9127,-2.7611,-2.6366,0.0,0.0,-2.5959,-2.735,-2.8233,-2.9654,-3.2258,-3.1554,-3.1634,0.0,0.0,0.0,0.0,0.0,0.0,-3.4005,0.0,-3.7119,-3.7152,-3.851,-3.9272,-3.9272,-3.9272,-3.9272,-3.9272,-3.9272,-3.9272,-3.9272,-3.9094,-3.8914,-3.8805,-3.8672,-3.8504,-3.8359,-3.763,-3.6967,-3.6351,-3.5606,-3.5299,-3.5299,-3.5299,-3.5704,-3.6222,-3.5461,-3.5185,-3.5088,0.0,0.0,0.0,0.0,0.0,0.0,0.0,0.0,0.0,0.0,0.0,0.0,0.0,0.0,0.0,0.0,0.0,0.0,0.0,0.0,0.0,0.0,0.0,0.0,0.0,-1.7443,-1.7775,-1.7996,0.0,0.0,0.0,0.0,0.0,0.0,0.0,0.0,0.0,0.0,0.0,-1.9574,0.0,-1.8046,-1.8061,0.0,0.0,0.0,0.0,0.0,0.0,0.0,0.0,0.0,0.0,-1.7162,-1.8588,-1.9799,-2.166,-2.379,-2.6291,-2.794,-2.9263,-3.0534,-3.0329,-2.9786,-2.9361,-2.82,-2.7013,-2.6507,-2.4621,-2.3087,0.0,0.0,0.0,-2.72,-2.9316,0.0,-3.3679,-3.4128,0.0,-3.3783,0.0,-3.5172,-3.501,-3.5959,0.0,0.0,-3.6787,-3.735,-3.7897,-3.8791,-3.9272,-3.9272,-3.9272,-3.9272,-3.9272,-3.9272,-3.9148,-3.8914,-3.886,-3.875,-3.8504,-3.8448,-3.8448,-3.8359,-3.763,-3.7517,-3.7809,-3.708,-3.6772,-3.6772,-3.6772,-3.6578,-3.6222,-3.5461,-3.5185,-3.5153,0.0,0.0,0.0,0.0,0.0,0.0,0.0,0.0,0.0,0.0,0.0,0.0,0.0,0.0,0.0,0.0,0.0,0.0,0.0,0.0,0.0,0.0,0.0,0.0,0.0,0.0,0.0,0.0,0.0,0.0,0.0,0.0,0.0,0.0,0.0,0.0,0.0,0.0,0.0,0.0,0.0,0.0,0.0,0.0,0.0,0.0,0.0,0.0,0.0,0.0,0.0,-1.784,-1.8341,-1.9797,-2.1545,-2.2615,0.0,-2.6446,-2.8116,-2.9376,-3.0343,-3.0891,-3.01,-2.8946,-2.8196,-2.6752,-2.5249,-2.4079,-2.258,0.0,0.0,0.0,0.0,0.0,0.0,0.0,-3.2407,-3.3752,-3.4695,0.0,-3.6037,0.0,-3.6591,-3.718,-3.7599,0.0,-3.7599,-3.7765,-3.8195,-3.8891,-3.9272,-3.9272,-3.9272,-3.9272,-3.9148,-3.9148,-3.9023,-3.8805,-3.8766,-3.86,-3.852,-3.8464,-3.8391,-3.8375,0.0,-3.7841,-3.789,-3.7485,-3.7323,-3.7323,-3.7323,-3.7274,-3.7128,-3.64,-3.6125,-3.6027,0.0,0.0,0.0,0.0,0.0,0.0,0.0,0.0,0.0,0.0,0.0,0.0,0.0,0.0,0.0,0.0,0.0,0.0,0.0,0.0,0.0,0.0,0.0,0.0,0.0,0.0,0.0,0.0,0.0,0.0,0.0,0.0,0.0,0.0,0.0,0.0,0.0,0.0,0.0,0.0,0.0,0.0,0.0,0.0,0.0,0.0,0.0,0.0,0.0,0.0,-1.9228,-1.9612,-2.0856,-2.2699,-2.4632,-2.5636,-2.7195,-2.8771,-2.9693,-3.0466,-3.1057,-3.0912,-2.9554,-2.8062,-2.7188,-2.5363,-2.3487,-2.2007,0.0,-2.0393,-1.9811,0.0,-2.1296,-2.2832,0.0,-2.7694,-3.0451,-3.2199,-3.4242,-3.6899,-3.7191,-3.7425,-3.8114,-3.8292,-3.8292,-3.8292,-3.8292,-3.8292,-3.8292,-3.8887,-3.9218,-3.9218,-3.9218,-3.9148,-3.8969,-3.8969,-3.8914,-3.875,-3.8672,-3.856,-3.8576,-3.8448,-3.8391,-3.8391,0.0,0.0,-3.7469,-3.7469,-3.7469,-3.7469,-3.7469,-3.7841,-3.8311,-3.7582,-3.7323,-3.7145,0.0,0.0,0.0,0.0,0.0,0.0,0.0,0.0,0.0,0.0,0.0,0.0,0.0,0.0,0.0,0.0,0.0,0.0,0.0,0.0,0.0,0.0,0.0,0.0,0.0,0.0,0.0,0.0,0.0,0.0,0.0,0.0,0.0,0.0,0.0,0.0,0.0,0.0,0.0,0.0,0.0,0.0,0.0,0.0,0.0,0.0,0.0,0.0,0.0,0.0,-2.0298,-2.1369,-2.2942,-2.4943,-2.6841,-2.7482,-2.8536,-2.9718,-3.0294,-3.0624,-3.0687,-3.0687,-2.8384,-2.6063,-2.5923,-2.3128,0.0,0.0,0.0,-1.9319,-1.9647,-2.0616,0.0,-2.4717,0.0,0.0,0.0,0.0,-3.4149,0.0,0.0,0.0,0.0,0.0,0.0,0.0,0.0,-3.8734,-3.8859,-3.8849,-3.886,-3.886,-3.886,-3.886,-3.886,-3.886,-3.8766,-3.8616,-3.8616,-3.856,-3.8448,-3.8391,-3.8391,-3.8391,-3.8391,0.0,-3.8213,-3.8213,-3.8213,-3.8213,-3.8213,-3.8294,-3.8311,-3.7582,-3.7323,-3.729,0.0,0.0,0.0,0.0,0.0,0.0,0.0,0.0,0.0,0.0,-1.2274,0.0,0.0,0.0,0.0,0.0,0.0,0.0,0.0,0.0,0.0,0.0,0.0,0.0,0.0,0.0,0.0,0.0,0.0,0.0,0.0,0.0,0.0,0.0,0.0,0.0,0.0,0.0,0.0,0.0,0.0,0.0,0.0,0.0,0.0,0.0,0.0,0.0,0.0,0.0,-1.9936,-2.1054,-2.3615,-2.5737,-2.7394,-2.7946,-2.8913,-2.9917,-3.047,-3.0899,-3.1111,-3.0894,-2.8529,-2.6038,-2.5162,0.0,0.0,0.0,-1.9493,-1.9369,-1.9596,0.0,0.0,0.0,0.0,0.0,0.0,0.0,0.0,0.0,0.0,0.0,0.0,0.0,0.0,0.0,0.0,-3.8766,-3.8914,-3.886,-3.8805,-3.8805,-3.8805,-3.875,-3.8711,-3.8711,-3.8616,-3.852,-3.852,-3.8448,-3.8391,-3.8391,-3.8391,-3.8391,-3.8391,0.0,-3.8391,-3.8391,-3.8391,-3.8391,-3.8391,-3.8391,-3.8359,-3.8003,-3.7873,-3.7825,0.0,0.0,0.0,0.0,0.0,0.0,0.0,-1.2323,-1.248,-1.248,-1.2578,-1.2627,-1.2529,-1.2578,0.0,0.0,0.0,0.0,0.0,0.0,0.0,0.0,0.0,0.0,0.0,0.0,0.0,0.0,0.0,0.0,0.0,0.0,0.0,0.0,0.0,0.0,0.0,0.0,0.0,0.0,0.0,0.0,0.0,0.0,0.0,0.0,0.0,0.0,0.0,0.0,-1.912,-1.9962,-2.2836,-2.5134,-2.6892,-2.7557,-2.8773,-2.9947,-3.0504,-3.1306,-3.1777,-3.1022,-2.8665,-2.6089,-2.4626,-2.218,0.0,0.0,-1.9325,-1.9632,-1.9611,0.0,0.0,0.0,0.0,0.0,0.0,0.0,0.0,0.0,0.0,0.0,0.0,0.0,0.0,0.0,0.0,0.0,-3.8694,-3.8694,-3.8694,-3.8694,-3.8694,-3.8655,-3.856,-3.856,-3.8504,-3.8391,-3.8391,-3.8391,-3.8391,-3.8391,-3.8391,-3.8391,-3.8391,0.0,0.0,-3.8391,-3.8391,-3.8391,-3.8391,-3.8391,-3.8391,-3.8391,-3.8448,-3.8479,0.0,0.0,0.0,0.0,0.0,0.0,0.0,-1.1819,-1.248,-1.248,-1.2529,-1.2578,-1.2686,-1.2774,0.0,0.0,0.0,0.0,0.0,0.0,0.0,0.0,0.0,0.0,0.0,0.0,0.0,0.0,0.0,0.0,0.0,0.0,0.0,0.0,0.0,0.0,0.0,0.0,0.0,0.0,0.0,0.0,0.0,0.0,0.0,0.0,0.0,0.0,0.0,0.0,0.0,-1.8581,-1.9861,-2.246,-2.5259,-2.6302,0.0,0.0,-3.0755,-3.1805,-3.2415,-3.0823,-2.7835,-2.5066,-2.4245,0.0,0.0,-1.928,-1.9376,-1.945,-1.9574,-1.995,0.0,0.0,0.0,0.0,0.0,0.0,0.0,0.0,0.0,0.0,0.0,0.0,0.0,0.0,0.0,0.0,-3.8448,-3.8448,-3.8448,-3.8448,-3.8448,-3.8448,-3.8391,-3.8391,-3.8391,-3.8391,-3.8391,-3.8391,-3.8391,-3.8391,-3.8391,-3.8391,-3.8391,0.0,0.0,-3.8391,-3.8391,-3.8391,-3.8391,-3.8391,-3.8391,-3.8391,-3.86,-3.8914,0.0,0.0,0.0,0.0,0.0,0.0,0.0,-1.2115,-1.2735,-1.2735,-1.2735,-1.2783,-1.2832,-1.2881,0.0,0.0,0.0,0.0,0.0,0.0,0.0,0.0,0.0,0.0,0.0,0.0,0.0,0.0,0.0,0.0,0.0,0.0,0.0,0.0,0.0,0.0,0.0,0.0,0.0,0.0,0.0,0.0,0.0,0.0,0.0,0.0,0.0,0.0,0.0,0.0,0.0,0.0,-1.8009,-1.9407,0.0,0.0,-2.6194,-2.8394,-2.9581,-3.1151,-3.225,-3.0978,-2.8102,-2.536,-2.4418,0.0,0.0,-1.9302,-1.9465,-1.9611,-1.9833,-2.005,-2.0428,0.0,0.0,0.0,0.0,0.0,0.0,0.0,0.0,0.0,0.0,0.0,0.0,0.0,0.0,0.0,-3.8391,-3.8391,-3.8391,-3.8391,-3.8391,-3.8391,-3.8391,-3.8391,-3.8391,-3.8391,-3.8391,-3.8391,-3.8391,-3.8391,-3.8391,-3.8391,-3.8391,0.0,0.0,-3.8391,-3.8391,-3.8391,-3.8391,-3.8391,-3.8391,-3.8391,-3.8655,-3.9023,0.0,0.0,0.0,0.0,0.0,0.0,-1.1284,-1.2253,-1.2881,-1.2881,-1.2881,-1.2978,-1.3113,-1.3113,-1.3152,-1.3296,0.0,0.0,0.0,0.0,0.0,0.0,0.0,0.0,0.0,0.0,0.0,0.0,0.0,0.0,0.0,0.0,0.0,0.0,0.0,0.0,0.0,0.0,0.0,0.0,0.0,0.0,0.0,0.0,0.0,0.0,0.0,0.0,0.0,0.0,0.0,0.0,0.0,0.0,0.0,0.0,-2.4173,-2.6409,-2.8017,-2.9803,-3.0935,-2.9714,-2.7382,-2.5058,0.0,0.0,0.0,-1.9302,-1.9523,-1.9762,-2.003,-2.0326,-2.0548,0.0,0.0,-2.1342,0.0,0.0,0.0,0.0,0.0,0.0,0.0,0.0,0.0,0.0,0.0,0.0,0.0,-3.8391,-3.8311,-3.8084,-3.8294,-3.8294,-3.8084,-3.8294,-3.8391,-3.8391,-3.8391,-3.8391,-3.8391,-3.8391,-3.8391,-3.8391,0.0,0.0,0.0,-3.8391,-3.8391,-3.8391,-3.8391,-3.8448,-3.856,-3.856,-3.8914,-3.9398,0.0,0.0,0.0,0.0,0.0,0.0,0.0,-1.2013,-1.2881,-1.2881,-1.2881,-1.3065,-1.3525,-1.3573,-1.38,-1.4258,0.0,0.0,0.0,0.0,0.0,0.0,0.0,0.0,0.0,0.0,0.0,0.0,0.0,0.0,0.0,0.0,0.0,0.0,0.0,0.0,0.0,0.0,0.0,0.0,0.0,0.0,0.0,0.0,0.0,0.0,0.0,0.0,0.0,0.0,0.0,0.0,0.0,0.0,0.0,0.0,-2.2634,-2.4641,-2.6217,-2.7655,-2.8315,-2.6652,-2.5106,-2.3566,0.0,0.0,-1.9302,-1.9302,-1.9609,-1.9949,-2.005,-2.0712,-2.1198,-2.1198,-2.1293,0.0,-2.275,0.0,0.0,0.0,0.0,0.0,0.0,0.0,0.0,0.0,0.0,0.0,0.0,-3.8391,-3.8068,-3.7355,-3.8019,-3.8051,-3.7339,-3.8051,-3.8391,-3.8391,-3.8391,-3.8391,-3.8391,-3.8391,-3.8391,0.0,0.0,0.0,0.0,-3.8391,-3.8391,-3.8391,-3.8391,-3.8655,-3.8969,-3.8969,-3.9556,-4.0305,0.0,0.0,0.0,0.0,0.0,0.0,0.0,-1.2013,-1.2881,-1.2881,-1.2881,-1.3065,-1.3573,-1.3621,-1.38,-1.4258,0.0,0.0,0.0,0.0,0.0,0.0,0.0,0.0,0.0,0.0,0.0,0.0,0.0,0.0,0.0,0.0,0.0,0.0,0.0,0.0,0.0,0.0,0.0,0.0,0.0,0.0,0.0,0.0,0.0,0.0,0.0,0.0,0.0,0.0,0.0,0.0,0.0,0.0,0.0,0.0,0.0,0.0,-2.4405,-2.5726,-2.6497,-2.5663,-2.4048,-2.2396,-2.1457,0.0,-1.9273,-1.9645,-1.9793,-2.0108,-2.0714,-2.1023,-2.1391,-2.1973,-2.2215,-2.2541,0.0,0.0,0.0,0.0,0.0,0.0,0.0,0.0,0.0,0.0,0.0,0.0,0.0,-3.7938,-3.7776,-3.8051,-3.7792,-3.7549,-3.7323,-3.7549,-3.7663,-3.7663,-3.8165,-3.8391,-3.8391,-3.8391,0.0,0.0,0.0,0.0,0.0,-3.8391,-3.8391,-3.8391,-3.8391,-3.8655,-3.9023,-3.9023,-3.9556,-4.0305,0.0,0.0,0.0,0.0,0.0,0.0,0.0,-1.1808,-1.2822,-1.2656,-1.2783,-1.3162,-1.38,-1.3836,-1.4118,-1.4812,0.0,0.0,0.0,0.0,0.0,0.0,0.0,0.0,0.0,0.0,0.0,0.0,0.0,0.0,0.0,0.0,0.0,0.0,0.0,0.0,0.0,0.0,0.0,0.0,0.0,0.0,-1.6233,0.0,0.0,0.0,0.0,0.0,0.0,0.0,0.0,0.0,0.0,0.0,0.0,0.0,-2.0073,0.0,0.0,-2.3194,-2.388,-2.3376,-2.2236,0.0,0.0,0.0,-1.9457,-1.9829,-2.0128,-2.0483,-2.1087,-2.1277,-2.1517,-2.1988,-2.2378,-2.2752,-2.3245,0.0,0.0,0.0,0.0,0.0,0.0,0.0,0.0,0.0,0.0,0.0,0.0,-3.7566,-3.7404,-3.7598,-3.7177,-3.6805,-3.6513,-3.7048,-3.7323,-3.7323,-3.8051,-3.8391,-3.8391,-3.8391,0.0,0.0,0.0,0.0,0.0,-3.86,-3.86,-3.8655,-3.8805,-3.9115,-3.9504,-3.9504,-3.9918,-4.0534,0.0,0.0,0.0,0.0,0.0,0.0,0.0,0.0,0.0,0.0,-1.2675,-1.3296,-1.4212,-1.4351,0.0,0.0,0.0,0.0,0.0,0.0,0.0,0.0,0.0,0.0,0.0,0.0,0.0,-1.5792,-1.5792,-1.5792,-1.5792,0.0,0.0,0.0,0.0,0.0,0.0,0.0,0.0,0.0,0.0,0.0,0.0,0.0,0.0,0.0,0.0,0.0,0.0,0.0,0.0,0.0,0.0,0.0,0.0,0.0,0.0,0.0,0.0,0.0,0.0,0.0,0.0,0.0,0.0,0.0,0.0,-1.9934,-2.0516,-2.1055,-2.1263,-2.1451,-2.1575,-2.1564,-2.2135,-2.2663,0.0,0.0,0.0,0.0,0.0,0.0,0.0,0.0,0.0,0.0,0.0,0.0,0.0,-3.7274,-3.6934,-3.6254,-3.6173,-3.5866,-3.5266,-3.6578,-3.7274,-3.7323,-3.8051,-3.8391,-3.8391,-3.8448,0.0,0.0,0.0,0.0,0.0,-3.9023,-3.9023,-3.9061,-3.9454,-3.9901,-4.0305,-4.0305,-4.0534,-4.0888,0.0,0.0,0.0,0.0,0.0,0.0,0.0,0.0,0.0,0.0,0.0,-1.3658,-1.4258,-1.4686,0.0,0.0,0.0,0.0,0.0,0.0,0.0,0.0,0.0,0.0,0.0,0.0,0.0,-1.5792,-1.5792,-1.5792,-1.5792,-1.5792,0.0,0.0,0.0,0.0,0.0,0.0,0.0,0.0,0.0,0.0,0.0,0.0,0.0,0.0,-1.6413,-1.7022,0.0,0.0,0.0,0.0,0.0,0.0,0.0,0.0,-1.9265,-1.9294,-1.9455,0.0,-1.9508,-1.94,-1.9333,0.0,0.0,0.0,0.0,0.0,0.0,0.0,0.0,-2.1823,-2.1792,-2.2849,-2.3679,-2.4359,-2.489,0.0,0.0,0.0,0.0,0.0,0.0,0.0,0.0,0.0,0.0,0.0,0.0,-3.6821,-3.6206,-3.5461,-3.491,-3.5072,-3.6027,-3.6384,-3.6805,-3.7323,-3.8051,-3.8391,-3.8391,-3.8711,0.0,0.0,0.0,0.0,-3.9454,-3.9454,-3.9454,-3.9454,-3.9558,-3.9901,-4.0305,-4.0305,-4.0534,-4.0888,0.0,0.0,0.0,0.0,0.0,0.0,0.0,0.0,0.0,0.0,0.0,0.0,0.0,0.0,0.0,0.0,0.0,0.0,0.0,0.0,0.0,0.0,0.0,0.0,0.0,0.0,0.0,0.0,0.0,-1.5969,0.0,0.0,0.0,0.0,0.0,0.0,0.0,0.0,0.0,0.0,-1.5969,0.0,0.0,0.0,0.0,0.0,-1.6489,-1.7202,0.0,-1.8377,-1.863,-1.8822,0.0,0.0,0.0,0.0,-1.9213,-1.925,-1.9435,-1.9435,-1.9325,-1.9139,-1.925,-1.942,0.0,0.0,0.0,0.0,0.0,0.0,0.0,0.0,0.0,0.0,-2.3455,0.0,0.0,0.0,0.0,0.0,0.0,0.0,0.0,0.0,0.0,0.0,0.0,0.0,0.0,-3.6173,-3.5445,-3.47,-3.4311,-3.4489,-3.5283,-3.5623,-3.6141,-3.6853,-3.7566,-3.8068,-3.8391,-3.8821,-3.9115,0.0,0.0,0.0,-3.9901,-3.9901,-3.9901,-3.9952,-4.0137,-4.0353,-4.06,-4.06,-4.0728,-4.0888,0.0,0.0,0.0,0.0,0.0,0.0,0.0,0.0,0.0,0.0,0.0,0.0,0.0,0.0,0.0,0.0,0.0,0.0,0.0,0.0,0.0,0.0,0.0,0.0,0.0,0.0,0.0,0.0,0.0,0.0,0.0,0.0,-1.6069,0.0,0.0,0.0,0.0,0.0,0.0,0.0,-1.5604,0.0,0.0,0.0,0.0,0.0,0.0,0.0,0.0,-1.8508,-1.8822,-1.9101,-1.9101,0.0,0.0,0.0,0.0,0.0,-1.9581,-1.9726,-1.9675,-1.9347,-1.9493,-1.9747,0.0,0.0,0.0,0.0,0.0,0.0,0.0,0.0,0.0,0.0,0.0,0.0,0.0,0.0,0.0,0.0,0.0,0.0,0.0,0.0,0.0,0.0,0.0,0.0,0.0,-3.5525,-3.4845,-3.4117,-3.4101,-3.4101,-3.4101,-3.4813,-3.5558,-3.6319,-3.6886,-3.7533,-3.8325,-3.875,-3.9212,0.0,0.0,0.0,-4.0387,-4.0387,-4.0387,-4.0453,-4.0776,-4.0888,-4.0888,-4.0888,-4.0888,-4.0888,0.0,0.0,0.0,0.0,0.0,0.0,0.0,0.0,0.0,0.0,0.0,0.0,0.0,0.0,0.0,0.0,0.0,0.0,0.0,0.0,0.0,0.0,0.0,0.0,0.0,0.0,0.0,0.0,0.0,0.0,-1.6667,-1.6362,-1.62,-1.6156,0.0,0.0,-1.6436,-1.6773,-1.6995,-1.705,-1.6744,0.0,0.0,0.0,0.0,0.0,0.0,0.0,0.0,-1.8823,-1.9064,-1.9101,-1.9228,0.0,0.0,0.0,0.0,0.0,-1.9435,-1.9747,-2.0104,-2.0035,-1.9894,-1.9929,0.0,0.0,0.0,0.0,0.0,0.0,0.0,0.0,0.0,0.0,0.0,0.0,0.0,0.0,0.0,0.0,0.0,0.0,0.0,0.0,0.0,0.0,0.0,0.0,0.0,-3.5234,-3.4845,-3.4117,-3.4101,-3.4101,-3.4101,-3.4813,-3.5558,-3.6303,-3.6416,-3.7004,-3.7998,-3.845,-3.9228,0.0,0.0,-4.0728,-4.084,-4.084,-4.084,-4.0823,-4.0888,-4.0888,-4.0888,-4.0888,-4.0888,-4.0888,0.0,0.0,0.0,0.0,0.0,0.0,0.0,0.0,0.0,0.0,0.0,0.0,0.0,0.0,0.0,0.0,0.0,0.0,0.0,0.0,0.0,0.0,0.0,0.0,0.0,0.0,0.0,0.0,0.0,-1.682,-1.6909,-1.6637,-1.6607,-1.6735,0.0,-1.7047,-1.7173,-1.7434,-1.7516,-1.7504,0.0,0.0,0.0,0.0,0.0,0.0,0.0,0.0,0.0,0.0,-1.9139,-1.9213,-1.9302,0.0,0.0,0.0,0.0,0.0,-1.9803,-1.998,-2.0243,-2.0462,-2.012,-1.9874,0.0,0.0,0.0,0.0,0.0,0.0,0.0,0.0,0.0,0.0,0.0,0.0,0.0,0.0,0.0,0.0,0.0,0.0,0.0,0.0,0.0,0.0,0.0,0.0,0.0,0.0,-3.4441,-3.4117,-3.4101,-3.4101,-3.4101,-3.4424,-3.4975,-3.5704,-3.5704,-3.6254,-3.7327,-3.8203,-3.8991,-3.9693,0.0,-4.0888,-4.0888,-4.0888,-4.0888,-4.0888,-4.0888,-4.0888,-4.0888,-4.0888,-4.0888,-4.0888,0.0,0.0,0.0,0.0,0.0,0.0,0.0,0.0,0.0,0.0,0.0,0.0,0.0,0.0,0.0,0.0,0.0,0.0,0.0,0.0,0.0,0.0,0.0,0.0,0.0,0.0,-1.7365,-1.7365,-1.7365,-1.731,-1.7201,-1.7284,-1.7338,0.0,0.0,0.0,-1.7787,-1.7908,-1.7948,-1.7933,0.0,0.0,0.0,0.0,0.0,0.0,0.0,0.0,0.0,0.0,0.0,0.0,0.0,0.0,0.0,-1.9457,-1.9732,-2.007,-2.0085,-2.0208,-2.0395,0.0,0.0,0.0,0.0,0.0,0.0,0.0,0.0,0.0,0.0,0.0,0.0,0.0,0.0,0.0,0.0,0.0,0.0,0.0,0.0,0.0,0.0,0.0,0.0,0.0,0.0,0.0,0.0,0.0,-3.4101,-3.4101,-3.4101,-3.4101,-3.4101,-3.4101,-3.4376,-3.4926,-3.5029,-3.5642,-3.6754,-3.7953,-3.8736,-3.931,-4.0449,-4.0888,-4.0888,-4.0888,-4.0888,-4.0888,-4.0888,-4.0888,-4.0888,-4.0888,-4.0888,-4.0888,0.0,0.0,0.0,0.0,0.0,0.0,0.0,0.0,0.0,0.0,0.0,0.0,0.0,0.0,0.0,0.0,0.0,0.0,0.0,0.0,0.0,0.0,0.0,0.0,0.0,-1.7747,-1.776,-1.776,-1.776,-1.776,-1.7747,-1.8539,-1.85,-1.7787,0.0,0.0,-1.7828,-1.8266,-1.8461,-1.8419,-1.8215,0.0,0.0,0.0,0.0,0.0,0.0,0.0,0.0,0.0,0.0,0.0,0.0,0.0,-1.9864,-1.9864,-2.033,-2.0663,-1.9925,-2.0239,-2.0679,-2.0326,0.0,0.0,0.0,0.0,0.0,0.0,0.0,0.0,0.0,0.0,0.0,0.0,0.0,0.0,0.0,0.0,0.0,0.0,0.0,0.0,0.0,0.0,0.0,0.0,0.0,0.0,0.0,0.0,0.0,-3.4101,-3.4101,-3.4101,-3.4101,-3.4101,-3.4133,-3.4165,-3.4579,-3.5346,-3.648,-3.7601,-3.8692,-3.9686,-4.0543,-4.0888,-4.0888,-4.0888,-4.0888,-4.0888,-4.0888,-4.0888,-4.0888,-4.0888,-4.0888,-4.0888,0.0,0.0,0.0,0.0,0.0,0.0,0.0,0.0,0.0,0.0,0.0,0.0,0.0,0.0,0.0,0.0,0.0,0.0,0.0,0.0,0.0,0.0,0.0,-1.8745,-1.8784,-1.8422,-1.8266,-1.8305,-1.8266,-1.8226,-1.8226,-1.8592,0.0,0.0,0.0,0.0,-1.863,-1.8898,-1.8936,-1.8884,-1.878,-1.8535,0.0,0.0,0.0,0.0,0.0,0.0,0.0,0.0,-1.9506,-1.9788,0.0,0.0,-2.0447,-2.0296,-2.0599,-2.0878,-2.0512,-2.0595,-2.0761,-2.0613,0.0,0.0,0.0,0.0,0.0,0.0,0.0,0.0,0.0,0.0,0.0,0.0,0.0,0.0,0.0,0.0,0.0,0.0,0.0,0.0,0.0,0.0,0.0,0.0,0.0,0.0,0.0,0.0,0.0,-3.3453,-3.3469,-3.368,-3.4101,-3.4101,-3.425,-3.4448,-3.4349,-3.4774,-3.5693,-3.7107,-3.818,-3.9077,-4.0336,-4.0888,-4.0888,-4.0888,-4.0888,-4.0888,-4.0888,-4.0888,-4.0888,-4.0888,-4.0888,-4.0888,0.0,0.0,0.0,0.0,0.0,0.0,0.0,0.0,0.0,0.0,0.0,0.0,0.0,0.0,0.0,0.0,0.0,0.0,0.0,0.0,0.0,0.0,0.0,-1.9228,-1.9465,-1.9026,-1.8822,-1.886,-1.8822,-1.8784,-1.8745,0.0,0.0,0.0,0.0,0.0,0.0,-1.9265,-1.9265,-1.9139,-1.9101,-1.8854,0.0,0.0,0.0,0.0,0.0,0.0,0.0,0.0,0.0,0.0,0.0,0.0,0.0,0.0,-2.0829,-2.0942,-2.0663,-2.0712,-2.0761,0.0,0.0,0.0,0.0,0.0,0.0,0.0,0.0,0.0,0.0,0.0,0.0,0.0,0.0,0.0,0.0,0.0,0.0,0.0,0.0,0.0,0.0,0.0,0.0,0.0,0.0,0.0,0.0,0.0,0.0,0.0,-3.274,-3.308,-3.3777,-3.3777,-3.4088,-3.4691,-3.4399,-3.4675,-3.5458,-3.7097,-3.8103,-3.8681,-4.0215,-4.0888,-4.0888,-4.0888,-4.0888,-4.0888,-4.0888,-4.0888,-4.0888,-4.0888,-4.0888,-4.0888,0.0,0.0,0.0,0.0,0.0,0.0,0.0,0.0,0.0,0.0,0.0,0.0,0.0,0.0,0.0,0.0,0.0,0.0,0.0,0.0,0.0,0.0,0.0,-1.9064,-1.9574,-1.9465,-1.9413,-1.9413,-1.9413,-1.9376,-1.9302,-1.9302,0.0,0.0,0.0,0.0,0.0,0.0,-1.9302,-1.9302,-1.9139,-1.9101,-1.9029,0.0,0.0,0.0,0.0,0.0,0.0,0.0,0.0,0.0,0.0,0.0,0.0,0.0,-2.0991,-2.0894,-2.0345,-2.0496,0.0,0.0,0.0,0.0,0.0,0.0,0.0,0.0,0.0,0.0,0.0,0.0,0.0,0.0,0.0,0.0,0.0,0.0,0.0,0.0,0.0,0.0,0.0,0.0,0.0,0.0,0.0,0.0,0.0,0.0,0.0,0.0,-3.1996,-3.2336,-3.3064,-3.308,-3.3616,-3.4691,-3.4675,-3.5085,-3.5878,-3.7755,-3.8594,-3.8681,-4.0215,-4.0888,-4.0888,-4.0888,-4.0888,-4.0888,-4.0888,-4.0888,-4.0888,-4.0888,-4.0888,-4.0888,0.0,0.0,0.0,0.0,0.0,0.0,0.0,0.0,0.0,0.0,0.0,0.0,0.0,0.0,0.0,0.0,0.0,0.0,0.0,0.0,0.0,0.0,0.0,0.0,0.0,0.0,-1.9545,-1.9413,-1.9413,-1.9376,0.0,0.0,0.0,-1.9376,0.0,0.0,0.0,0.0,-1.9339,-1.9302,-1.9139,-1.9101,-1.9087,0.0,0.0,0.0,0.0,0.0,0.0,0.0,0.0,0.0,0.0,0.0,0.0,-2.1464,-2.1355,-2.1245,-2.1039,0.0,0.0,0.0,0.0,0.0,0.0,0.0,0.0,0.0,0.0,0.0,0.0,0.0,0.0,0.0,0.0,0.0,0.0,0.0,0.0,0.0,0.0,0.0,0.0,0.0,0.0,0.0,0.0,0.0,0.0,0.0,0.0,0.0,-3.1251,-3.1591,-3.2319,-3.2336,-3.2992,-3.4318,-3.3784,-3.4292,-3.5878,-3.7502,-3.8385,-3.8681,-4.0215,-4.0888,-4.0888,-4.0888,-4.0888,-4.0888,-4.0888,-4.0888,-4.0888,-4.0888,-4.0888,-4.0888,0.0,0.0,0.0,0.0,0.0,0.0,0.0,0.0,0.0,0.0,0.0,0.0,0.0,0.0,0.0,0.0,0.0,0.0,0.0,0.0,0.0,0.0,0.0,0.0,0.0,-1.969,-1.9654,0.0,0.0,0.0,0.0,0.0,0.0,-1.9501,0.0,-1.9487,0.0,0.0,-1.9413,-1.9413,-1.9176,-1.9139,-1.9176,0.0,0.0,0.0,0.0,0.0,0.0,0.0,0.0,0.0,0.0,0.0,0.0,-2.1433,-2.1182,-2.0942,-2.0893,0.0,0.0,0.0,0.0,0.0,0.0,0.0,0.0,0.0,0.0,0.0,0.0,0.0,0.0,0.0,0.0,0.0,0.0,0.0,0.0,0.0,0.0,0.0,0.0,0.0,0.0,0.0,0.0,0.0,0.0,0.0,0.0,0.0,-3.036,-3.0846,-3.1575,-3.1575,-3.2269,-3.3711,-3.3215,-3.3878,-3.5591,-3.6823,-3.7693,-3.8232,-3.975,-4.0578,-4.0888,-4.0888,-4.0888,-4.0888,-4.0888,-4.0888,-4.0888,-4.0888,-4.0888,-4.0888,0.0,0.0,0.0,0.0,0.0,0.0,0.0,0.0,0.0,0.0,0.0,0.0,0.0,0.0,0.0,0.0,0.0,0.0,0.0,0.0,0.0,0.0,0.0,0.0,0.0,0.0,0.0,0.0,0.0,0.0,0.0,0.0,-1.9647,-1.9611,0.0,-1.9669,0.0,-1.9487,-1.9501,-1.9574,-1.9265,-1.9176,-1.9302,-1.9139,0.0,0.0,0.0,0.0,0.0,0.0,0.0,0.0,0.0,0.0,0.0,-2.1182,-2.0731,-2.0364,0.0,0.0,0.0,0.0,0.0,0.0,0.0,0.0,0.0,0.0,0.0,0.0,0.0,0.0,0.0,0.0,0.0,0.0,0.0,0.0,0.0,0.0,0.0,0.0,0.0,0.0,0.0,0.0,0.0,0.0,0.0,0.0,0.0,-2.8692,-2.9432,-3.0085,-3.0671,-3.0797,-3.1516,0.0,-3.2813,-3.3651,-3.5214,-3.5956,-3.6766,-3.7663,-3.9077,-4.0095,-4.0784,-4.0853,-4.0888,-4.0888,-4.0888,-4.0888,-4.0888,-4.0888,-4.0888,-4.0888,0.0,0.0,0.0,0.0,0.0,0.0,0.0,0.0,0.0,0.0,0.0,0.0,0.0,0.0,0.0,0.0,0.0,0.0,0.0,0.0,0.0,0.0,0.0,0.0,0.0,0.0,0.0,0.0,0.0,0.0,0.0,0.0,0.0,-1.969,0.0,-1.9869,-1.969,-1.9596,-1.9574,-1.9574,-1.9413,-1.9339,-1.9302,-1.9265,-1.9176,0.0,0.0,0.0,0.0,0.0,0.0,0.0,-2.1691,-2.1708,-2.1603,-2.1511,-2.1103,0.0,0.0,0.0,0.0,0.0,0.0,0.0,0.0,0.0,0.0,0.0,0.0,0.0,0.0,0.0,0.0,0.0,0.0,0.0,0.0,0.0,0.0,0.0,0.0,0.0,0.0,0.0,0.0,0.0,0.0,0.0,0.0,0.0,0.0,-2.7948,-2.8644,-2.9097,-2.9243,-2.981,-3.0822,0.0,-3.1558,-3.2652,-3.5214,-3.5956,-3.7042,-3.8405,-3.9301,-3.9802,-4.0008,-4.0629,-4.0888,-4.0888,-4.0888,-4.0888,-4.0888,-4.0888,-4.0888,-4.0888,0.0,0.0,0.0,0.0,0.0,0.0,0.0,0.0,0.0,0.0,0.0,0.0,0.0,0.0,0.0,0.0,0.0,0.0,0.0,0.0,0.0,0.0,0.0,0.0,0.0,0.0,0.0,0.0,0.0,0.0,0.0,0.0,0.0,-1.9711,0.0,-1.9995,-1.969,-1.9647,-1.9611,-1.9574,-1.9465,-1.9376,-1.9339,-1.9339,-1.9302,-1.9288,-1.9581,0.0,0.0,0.0,0.0,0.0,0.0,0.0,-2.1542,-2.1371,-2.1103,-2.0877,0.0,0.0,0.0,0.0,0.0,0.0,0.0,0.0,0.0,0.0,0.0,0.0,0.0,0.0,0.0,0.0,0.0,0.0,0.0,0.0,0.0,0.0,0.0,0.0,0.0,0.0,0.0,0.0,0.0,0.0,0.0,-2.7041,-2.7219,-2.7219,-2.7915,-2.8271,-2.8271,-2.8644,-2.9559,-3.0929,-3.0526,-3.1636,-3.4145,-3.5628,-3.6939,-3.8077,-3.8474,-3.9043,-3.9733,-4.0146,-4.0543,-4.0888,-4.0888,-4.0888,-4.0888,-4.0888,-4.0888,-4.0888,0.0,0.0,0.0,0.0,0.0,0.0,0.0,0.0,0.0,0.0,0.0,0.0,0.0,0.0,0.0,0.0,0.0,0.0,0.0,0.0,0.0,0.0,0.0,0.0,0.0,0.0,0.0,0.0,0.0,0.0,0.0,0.0,0.0,-1.9782,0.0,0.0,-1.969,-1.9647,-1.9611,-1.9611,-1.9487,-1.9413,-1.9413,-1.9413,-1.9413,-1.945,-1.9869,-2.0045,-2.0204,-2.0942,0.0,0.0,0.0,0.0,-2.1542,-2.1182,-2.0991,-2.0877,0.0,0.0,0.0,0.0,0.0,0.0,0.0,0.0,0.0,0.0,0.0,0.0,0.0,0.0,0.0,0.0,0.0,0.0,0.0,0.0,0.0,0.0,0.0,0.0,0.0,0.0,0.0,0.0,0.0,0.0,-2.5616,-2.6183,-2.6506,-2.6506,-2.717,-2.7543,-2.7543,-2.764,-2.8362,-2.9604,-2.9972,-3.1108,-3.2972,-3.5128,-3.6473,-3.7111,-3.737,-3.818,-3.9319,-3.9457,-3.9974,-4.0681,-4.0681,-4.0767,-4.0888,-4.0888,-4.0888,-4.0888,0.0,0.0,0.0,0.0,0.0,0.0,0.0,0.0,0.0,0.0,0.0,0.0,0.0,0.0,0.0,0.0,0.0,0.0,-2.0074,0.0,0.0,-2.01,-2.0361,0.0,0.0,0.0,0.0,0.0,0.0,0.0,0.0,0.0,0.0,-2.0139,0.0,0.0,0.0,-1.9647,-1.9632,-1.969,-1.9596,-1.9574,-1.9574,-1.9574,-1.9501,-1.9413,-1.9611,-1.9848,-2.017,-2.0679,-2.1055,0.0,0.0,0.0,-2.1589,-2.1559,-2.1183,0.0,0.0,0.0,0.0,0.0,0.0,0.0,0.0,0.0,0.0,0.0,0.0,0.0,0.0,0.0,0.0,0.0,0.0,0.0,0.0,0.0,0.0,0.0,0.0,0.0,0.0,0.0,0.0,0.0,0.0,0.0,-2.5616,-2.5697,-2.5762,-2.5762,-2.6458,-2.683,-2.683,-2.7413,-2.8059,-2.8779,-3.066,-3.2001,-3.2955,-3.4594,-3.5404,-3.5576,-3.6904,-3.7594,-3.7836,-3.8474,-3.9181,-3.9853,-3.9853,-4.0284,-4.0888,-4.0888,-4.0888,-4.0888,0.0,0.0,0.0,0.0,0.0,0.0,0.0,0.0,0.0,0.0,0.0,0.0,0.0,0.0,0.0,-1.9064,-1.9347,-1.9788,-2.0514,-2.0893,-2.0893,-2.0512,-2.0828,-2.0845,0.0,0.0,0.0,0.0,0.0,0.0,0.0,-2.099,-2.0728,0.0,0.0,0.0,0.0,0.0,-1.9797,-1.956,-1.9632,-1.9596,-1.9501,-1.9574,-1.9574,-1.9501,-1.9501,-1.9904,-2.0478,-2.0345,-2.0878,-2.154,-2.1401,0.0,0.0,0.0,-2.1371,0.0,0.0,0.0,0.0,0.0,0.0,0.0,0.0,0.0,0.0,0.0,0.0,0.0,0.0,0.0,0.0,0.0,0.0,0.0,0.0,0.0,0.0,0.0,0.0,0.0,0.0,0.0,0.0,0.0,0.0,-2.5616,-2.5616,-2.5616,-2.5616,-2.5616,-2.5924,-2.6085,-2.6085,-2.6393,-2.7224,-2.8682,-3.0375,-3.1558,-3.2317,-3.3404,-3.4369,-3.5249,-3.6335,-3.7077,-3.7508,-3.7836,-3.8405,-3.9112,-3.9526,-3.9905,-4.0267,-4.0716,-4.0888,-4.0888,0.0,0.0,0.0,0.0,0.0,0.0,0.0,0.0,0.0,0.0,0.0,0.0,0.0,0.0,0.0,0.0,-1.966,-2.007,-2.0761,-2.1182,-2.1276,-2.0942,-2.1245,-2.1276,-2.0893,0.0,0.0,0.0,0.0,0.0,-2.1661,-2.1166,-2.099,0.0,-2.1151,0.0,0.0,0.0,0.0,0.0,-1.9581,-1.9545,0.0,0.0,-1.9538,-1.9538,-1.9465,-1.9869,-2.041,-2.0158,-2.0682,-2.1432,-2.1214,-2.134,0.0,0.0,0.0,0.0,0.0,0.0,0.0,0.0,0.0,0.0,0.0,0.0,0.0,0.0,0.0,0.0,0.0,0.0,0.0,0.0,0.0,0.0,0.0,0.0,0.0,0.0,0.0,0.0,0.0,0.0,0.0,0.0,0.0,-2.5616,-2.5616,-2.5616,-2.5616,-2.5616,-2.5616,-2.5616,-2.5616,-2.5749,-2.6726,-2.8561,-2.9795,-3.0782,-3.1541,-3.2472,-3.3524,-3.4663,-3.5404,-3.6284,-3.7163,-3.6973,-3.7456,-3.8387,-3.9129,-3.9526,-3.9802,-4.0578,-4.0888,-4.0888,0.0,0.0,0.0,0.0,0.0,0.0,0.0,0.0,0.0,0.0,0.0,0.0,0.0,-1.9398,-1.9617,-2.02,-1.998,-2.007,-2.0761,-2.1417,-2.1631,-2.1308,-2.1601,0.0,-2.1648,0.0,0.0,0.0,0.0,0.0,-2.1325,-2.1277,-2.1433,-2.1721,-2.1103,-2.0613,-2.0174,0.0,0.0,0.0,0.0,0.0,0.0,0.0,0.0,0.0,0.0,0.0,-1.9581,-2.0243,-2.0514,-2.0681,-2.1371,-2.1511,-2.1417,0.0,0.0,0.0,0.0,0.0,0.0,0.0,0.0,0.0,0.0,0.0,0.0,0.0,0.0,0.0,0.0,0.0,0.0,0.0,0.0,0.0,0.0,0.0,0.0,0.0,0.0,0.0,0.0,0.0,0.0,0.0,0.0,-2.5616,-2.5616,-2.5616,-2.5616,-2.5616,-2.5616,-2.5616,-2.5616,-2.6118,-2.6925,-2.8049,-2.9059,-2.9972,-3.08,-3.2231,-3.2938,-3.3059,-3.3869,-3.5025,-3.6301,-3.5611,-3.618,-3.7611,-3.8353,-3.9077,-3.9802,-4.0578,-4.0888,-4.0888,0.0,0.0,0.0,0.0,0.0,0.0,0.0,0.0,0.0,0.0,0.0,0.0,0.0,-2.005,-2.0292,-2.0595,-2.091,-2.1197,-2.1417,-2.1857,-2.1991,-2.1631,-2.1945,-2.202,-2.1768,0.0,0.0,0.0,0.0,-2.1617,-2.1617,-2.1402,-2.1495,-2.1781,-2.134,-2.0991,-2.0748,-2.0345,0.0,0.0,0.0,0.0,0.0,0.0,0.0,0.0,0.0,0.0,0.0,-1.9624,-2.0158,-2.0812,-2.0714,-2.1023,-2.1417,-2.1464,-2.1402,-2.134,-2.1371,0.0,0.0,0.0,0.0,0.0,0.0,0.0,0.0,0.0,0.0,0.0,0.0,0.0,0.0,0.0,0.0,0.0,0.0,0.0,0.0,0.0,0.0,0.0,0.0,0.0,0.0,0.0,0.0,0.0,-2.5616,-2.5616,-2.5616,-2.5616,-2.5616,-2.5675,-2.5844,-2.6225,-2.6943,-2.8032,-2.8527,-2.9455,-3.0713,-3.1248,-3.199,-3.2886,-3.2697,-3.3749,-3.5559,-3.5301,-3.5801,-3.6801,-3.7577,-3.8043,-3.837,-3.9129,-3.9405,-3.9405,0.0,0.0,0.0,0.0,0.0,0.0,0.0,0.0,0.0,0.0,0.0,0.0,0.0,0.0,-2.0795,-2.0909,-2.1448,-2.1768,-2.1797,-2.2106,-2.218,-2.1932,-2.2152,-2.2152,-2.1869,0.0,0.0,0.0,0.0,0.0,0.0,0.0,-2.1587,-2.1797,-2.1464,0.0,0.0,0.0,0.0,-1.9949,0.0,0.0,-1.9302,0.0,0.0,0.0,0.0,0.0,0.0,0.0,0.0,0.0,-2.0429,-2.0861,-2.1386,-2.1355,-2.134,-2.134,-2.1371,0.0,0.0,0.0,0.0,0.0,0.0,0.0,0.0,0.0,0.0,0.0,0.0,0.0,0.0,0.0,0.0,0.0,0.0,0.0,0.0,0.0,0.0,0.0,0.0,0.0,0.0,0.0,0.0,0.0,-2.5616,-2.5616,-2.5654,-2.5749,-2.5749,-2.5917,-2.626,-2.6453,-2.6945,-2.7759,-2.8216,-2.8937,-2.9937,-3.0179,-3.0972,-3.2127,-3.1627,-3.2714,-3.4818,-3.4818,-3.5266,-3.6042,-3.7077,-3.7491,-3.7577,-3.8318,-3.875,-3.8957,0.0,0.0,0.0,0.0,0.0,0.0,0.0,0.0,0.0,0.0,0.0,0.0,0.0,0.0,0.0,-2.123,-2.1526,-2.1738,-2.1797,-2.2106,-2.2254,-2.2214,-2.2197,-2.2135,-2.1998,0.0,0.0,0.0,0.0,0.0,0.0,0.0,-2.1797,0.0,-2.1464,-2.1309,-2.1277,0.0,-2.0527,-2.0065,0.0,-1.9376,-1.9302,0.0,0.0,0.0,-1.9101,-1.9101,0.0,0.0,0.0,0.0,0.0,0.0,-2.1386,-2.1309,-2.134,-2.1386,0.0,0.0,0.0,0.0,0.0,0.0,0.0,0.0,0.0,0.0,0.0,0.0,0.0,0.0,0.0,0.0,0.0,0.0,0.0,0.0,0.0,0.0,0.0,0.0,0.0,0.0,0.0,0.0,0.0,-2.5616,-2.5616,-2.5616,-2.5749,-2.5974,-2.6026,-2.626,-2.6774,-2.6808,-2.6973,-2.7299,-2.8023,-2.8385,-2.842,-2.9144,-2.992,-3.0696,-3.0696,-3.1955,-3.4024,-3.4042,-3.4507,-3.5335,-3.6835,-3.7439,-3.7542,-3.8249,-3.8974,-3.9595,0.0,0.0,0.0,0.0,0.0,0.0,0.0,0.0,0.0,0.0,0.0,0.0,0.0,0.0,-2.1477,-2.1748,-2.1853,-2.1911,-2.194,-2.2044,-2.2073,-2.2044,-2.2044,-2.2044,0.0,0.0,0.0,0.0,0.0,0.0,0.0,0.0,0.0,0.0,-2.1708,-2.1617,-2.1526,-2.0663,0.0,0.0,-1.9711,-1.9435,0.0,0.0,0.0,0.0,0.0,-1.9101,0.0,0.0,-1.9839,-2.0189,0.0,0.0,0.0,-2.1325,-2.1309,-2.1309,-2.1325,0.0,0.0,0.0,0.0,0.0,0.0,0.0,0.0,0.0,0.0,0.0,0.0,0.0,0.0,0.0,0.0,0.0,0.0,0.0,0.0,0.0,0.0,0.0,0.0,0.0,0.0,0.0,-2.5616,-2.5616,-2.5616,-2.5787,-2.5917,-2.601,-2.6189,-2.6453,-2.6791,-2.6808,-2.6973,-2.7299,-2.7506,-2.7885,-2.8403,-2.861,-2.942,-3.0696,-3.0696,-3.1351,-3.2472,-3.3007,-3.4007,-3.5232,-3.5663,-3.6146,-3.6663,-3.6853,-3.706,-3.7232,0.0,0.0,0.0,0.0,0.0,0.0,0.0,0.0,0.0,0.0,0.0,0.0,0.0,0.0,0.0,-2.194,-2.1969,-2.1969,-2.1998,-2.1998,-2.1998,-2.1969,-2.1969,-2.194,0.0,0.0,0.0,0.0,0.0,0.0,0.0,0.0,0.0,0.0,0.0,0.0,0.0,0.0,0.0,0.0,-1.9894,0.0,0.0,-1.9273,-1.9101,0.0,0.0,0.0,-1.9398,-1.9782,-2.0154,0.0,0.0,0.0,0.0,0.0,0.0,-2.1309,0.0,0.0,0.0,0.0,0.0,0.0,0.0,-2.1115,0.0,0.0,0.0,0.0,0.0,0.0,0.0,0.0,0.0,0.0,0.0,0.0,0.0,0.0,0.0,0.0,0.0,0.0,0.0,-2.5616,-2.5616,-2.5637,-2.5749,-2.5917,-2.6118,-2.6314,-2.6487,-2.6725,-2.7023,-2.7023,-2.7105,-2.7299,-2.7299,-2.7523,-2.7937,-2.7937,-2.8765,-3.0196,-3.0196,-3.08,-3.1834,-3.2265,-3.3352,-3.4766,-3.5076,-3.5645,-3.6301,-3.6301,-3.6508,-3.6801,0.0,0.0,0.0,0.0,0.0,0.0,0.0,0.0,0.0,0.0,0.0,0.0,0.0,0.0,0.0,0.0,-2.194,-2.1969,-2.2084,-2.2039,-2.1998,-2.194,-2.1882,-2.1869,0.0,0.0,0.0,0.0,0.0,0.0,0.0,0.0,0.0,0.0,0.0,0.0,0.0,0.0,0.0,-2.1007,-2.0124,-1.9823,0.0,0.0,-1.9101,0.0,-1.9545,-1.969,-1.9762,-2.0231,-2.0702,0.0,0.0,0.0,0.0,0.0,-2.1309,0.0,0.0,0.0,0.0,0.0,0.0,0.0,-2.0548,-2.0888,-2.0627,0.0,0.0,0.0,0.0,0.0,0.0,0.0,0.0,0.0,0.0,0.0,0.0,0.0,0.0,0.0,0.0,-2.5098,-2.5519,-2.5616,-2.5616,-2.5712,-2.599,-2.601,-2.6279,-2.6774,-2.6825,-2.7006,-2.7299,-2.7299,-2.7299,-2.7299,-2.7299,-2.7299,-2.7299,-2.7299,-2.8092,-2.9506,-2.9506,-3.0368,-3.18,-3.18,-3.2697,-3.4162,-3.4818,-3.5576,-3.6301,-3.6301,-3.6749,-3.7353,-2.0212,0.0,0.0,0.0,0.0,0.0,0.0,0.0,0.0,0.0,0.0,0.0,0.0,0.0,0.0,0.0,-2.2136,-2.2265,-2.2554,-2.232,-2.2181,-2.2136,-2.194,-2.1811,-2.1797,0.0,0.0,0.0,0.0,0.0,0.0,0.0,0.0,0.0,0.0,0.0,0.0,0.0,0.0,-2.1371,-2.0243,0.0,-2.0035,-1.9347,-1.9101,-1.9139,-1.9545,-1.969,-1.9858,0.0,-2.2152,-2.2876,0.0,0.0,0.0,0.0,0.0,0.0,0.0,0.0,0.0,0.0,0.0,0.0,-2.1178,-2.1366,-2.1409,0.0,0.0,0.0,0.0,0.0,0.0,0.0,0.0,0.0,0.0,0.0,0.0,0.0,0.0,0.0,0.0,-2.4612,-2.4968,-2.5567,-2.5616,-2.5712,-2.599,-2.6208,-2.6487,-2.6791,-2.7055,-2.725,-2.7299,-2.7299,-2.7299,-2.7299,-2.7299,-2.7299,-2.7299,-2.7299,-2.8092,-2.9506,-2.9506,-3.0368,-3.18,-3.18,-3.2697,-3.4093,-3.4249,-3.5128,-3.6301,-3.6301,-3.6404,-3.6525,-2.0698,0.0,0.0,0.0,0.0,0.0,0.0,0.0,0.0,0.0,0.0,0.0,0.0,0.0,0.0,0.0,0.0,0.0,0.0,0.0,0.0,-2.2027,-2.1869,-2.1797,-2.1797,-2.1797,0.0,0.0,0.0,0.0,0.0,0.0,0.0,0.0,0.0,0.0,0.0,0.0,-2.1676,-2.1891,-2.0771,0.0,-2.0494,-2.0034,-1.9775,-1.9741,-2.0267,-2.0711,-2.1142,-2.1866,-2.2712,0.0,0.0,-2.2928,-2.2863,0.0,-2.2394,-2.2313,0.0,0.0,0.0,-2.1518,0.0,0.0,0.0,-2.1414,-2.1396,0.0,0.0,0.0,0.0,0.0,0.0,0.0,0.0,0.0,0.0,0.0,0.0,0.0,0.0,0.0,0.0,-2.4288,-2.4863,-2.5721,-2.5824,-2.5974,-2.6383,-2.6521,-2.6725,-2.7055,-2.7218,-2.7299,-2.7299,-2.7299,-2.7299,-2.7299,-2.7299,-2.7299,-2.7299,-2.7678,-2.8454,-2.9523,-2.992,-3.0748,-3.1834,-3.2196,-3.3041,-3.4093,-3.4093,-3.499,-3.6301,-3.6301,-3.6301,-3.6301,-2.1119,0.0,0.0,0.0,0.0,0.0,0.0,0.0,0.0,0.0,0.0,0.0,0.0,0.0,0.0,0.0,0.0,0.0,0.0,0.0,0.0,0.0,-2.1827,-2.1797,-2.1797,-2.1768,0.0,0.0,0.0,0.0,0.0,0.0,0.0,0.0,0.0,0.0,0.0,0.0,0.0,-2.2345,0.0,-2.1243,-2.1049,-2.0807,-2.0521,-2.03,-2.1044,-2.196,-2.2798,-2.2798,0.0,-2.3867,-2.3756,-2.3708,0.0,0.0,0.0,0.0,0.0,0.0,0.0,0.0,0.0,-2.2819,0.0,0.0,0.0,0.0,0.0,0.0,0.0,0.0,0.0,0.0,0.0,0.0,0.0,0.0,0.0,0.0,0.0,0.0,0.0,-2.4153,-2.5043,-2.5924,-2.6046,-2.6279,-2.6774,-2.6808,-2.694,-2.7282,-2.7299,-2.7299,-2.7299,-2.7299,-2.7299,-2.7299,-2.7299,-2.7299,-2.7316,-2.792,-2.8678,-2.9541,-3.0179,-3.0972,-3.1852,-3.2438,-3.3248,-3.4093,-3.4249,-3.5128,-3.6301,-3.6301,-3.6301,-3.6301,-2.1481,-2.1634,0.0,0.0,0.0,0.0,0.0,0.0,0.0,0.0,0.0,0.0,0.0,0.0,0.0,0.0,0.0,0.0,-2.2977,0.0,0.0,0.0,0.0,0.0,-2.1724,-2.1664,-2.1603,0.0,0.0,0.0,0.0,0.0,0.0,0.0,-2.1589,0.0,0.0,0.0,-2.2427,0.0,-2.2993,-2.2577,0.0,-2.1337,-2.0808,-2.0335,-2.1365,-2.2844,-2.4256,0.0,-2.4742,-2.526,0.0,-2.4369,0.0,0.0,0.0,0.0,0.0,0.0,0.0,0.0,-2.3351,0.0,0.0,0.0,0.0,0.0,0.0,0.0,0.0,0.0,0.0,0.0,0.0,0.0,0.0,0.0,0.0,0.0,0.0,0.0,0.0,0.0,-2.5444,-2.5961,-2.6208,-2.647,-2.6774,-2.6808,-2.694,-2.7282,-2.7299,-2.7299,-2.7299,-2.7299,-2.7299,-2.7299,-2.7299,-2.7299,-2.7299,-2.7385,-2.8178,-2.9506,-2.961,-3.0455,-3.18,-3.1886,-3.2783,-3.4145,-3.4818,-3.5576,-3.6301,-3.6301,-3.6301,-3.6301,-2.145,0.0,0.0,0.0,0.0,0.0,0.0,0.0,0.0,0.0,0.0,0.0,0.0,0.0,0.0,0.0,0.0,-2.2985,0.0,0.0,0.0,0.0,0.0,0.0,0.0,-2.1664,-2.1634,-2.1589,-2.1589,0.0,0.0,0.0,0.0,0.0,-2.21,0.0,-2.2638,0.0,0.0,0.0,0.0,0.0,0.0,-2.2492,-2.1983,-2.1753,-2.2025,-2.3165,-2.4482,0.0,-2.4984,0.0,0.0,0.0,0.0,0.0,0.0,0.0,0.0,0.0,0.0,0.0,0.0,0.0,-2.2965,0.0,-2.2552,0.0,0.0,0.0,0.0,0.0,0.0,0.0,0.0,0.0,0.0,0.0,0.0,0.0,0.0,0.0,0.0,0.0,0.0,0.0,0.0,-2.6317,-2.7038,-2.7087,-2.7169,-2.7299,-2.7299,-2.7299,-2.7299,-2.7299,-2.7299,-2.7299,-2.7299,-2.7523,-2.7954,-2.8385,-2.9161,-3.0213,-3.0644,-3.1196,-3.1834,-3.2265,-3.2817,-3.3524,-3.4731,-3.5645,-3.6301,-3.6301,-3.6301,-3.6301,-2.154,0.0,0.0,0.0,0.0,0.0,0.0,0.0,0.0,0.0,0.0,0.0,-2.3383,-2.3407,0.0,0.0,0.0,-2.3028,0.0,0.0,-2.2544,0.0,0.0,0.0,0.0,0.0,-2.1768,-2.1724,0.0,0.0,0.0,0.0,0.0,0.0,0.0,-2.2735,-2.3237,0.0,0.0,-2.4499,-2.4709,-2.4563,-2.4126,-2.3099,-2.2814,-2.2961,-2.2762,-2.3608,-2.479,-2.479,-2.5163,0.0,-2.5616,0.0,0.0,0.0,0.0,0.0,-2.4641,0.0,0.0,0.0,0.0,0.0,0.0,0.0,0.0,0.0,0.0,0.0,0.0,0.0,0.0,0.0,0.0,0.0,0.0,0.0,0.0,0.0,0.0,0.0,0.0,0.0,0.0,-2.562,-2.5751,-2.6236,-2.7247,-2.7299,-2.7299,-2.7299,-2.7299,-2.7299,-2.7299,-2.7489,-2.7592,-2.7592,-2.7799,-2.8178,-2.8713,-2.9265,-3.0007,-3.0872,-3.1392,-3.1738,-3.1963,-3.2501,-3.2789,-3.3041,-3.4369,-3.5335,-3.6025,-3.6232,-3.6301,-3.6301,-2.1969,-2.2039,0.0,0.0,0.0,0.0,0.0,0.0,0.0,0.0,0.0,0.0,0.0,0.0,0.0,0.0,0.0,-2.2642,-2.2712,0.0,-2.2186,0.0,0.0,-2.2096,0.0,0.0,0.0,-2.1998,-2.1797,0.0,0.0,0.0,0.0,0.0,0.0,-2.241,-2.2523,-2.3883,-2.4466,-2.4547,-2.5292,-2.4742,-2.3464,0.0,-2.2863,-2.3479,-2.3481,0.0,0.0,-2.5567,-2.56,0.0,0.0,0.0,0.0,0.0,0.0,0.0,0.0,0.0,0.0,-2.6404,0.0,0.0,0.0,0.0,-2.4505,0.0,0.0,0.0,0.0,0.0,0.0,0.0,0.0,0.0,0.0,0.0,0.0,0.0,0.0,0.0,0.0,0.0,0.0,-2.5618,-2.5956,-2.6454,-2.7247,-2.7299,-2.7299,-2.7299,-2.7299,-2.7299,-2.7299,-2.8006,-2.8368,-2.8368,-2.9092,-2.9455,-2.9472,-2.9489,-3.0126,-3.1194,-3.123,-3.1617,-3.2283,-3.2318,-3.2544,-3.299,-3.38,-3.4576,-3.5318,-3.6042,-3.6301,-3.6301,0.0,0.0,0.0,0.0,0.0,0.0,0.0,-2.3737,0.0,0.0,0.0,0.0,0.0,0.0,-2.3831,0.0,0.0,-2.2799,-2.2842,-2.2571,0.0,0.0,0.0,-2.2124,0.0,0.0,0.0,-2.1797,-2.1556,-2.1678,0.0,0.0,0.0,0.0,0.0,-2.3365,0.0,0.0,0.0,0.0,0.0,-2.5017,-2.4013,0.0,0.0,-2.3578,-2.4016,-2.4774,0.0,-2.5616,-2.5616,-2.5616,-2.5616,-2.5616,-2.5519,-2.5017,-2.5033,0.0,0.0,0.0,-2.5706,-2.5982,0.0,0.0,0.0,0.0,0.0,0.0,0.0,0.0,0.0,0.0,0.0,0.0,0.0,0.0,0.0,0.0,0.0,0.0,0.0,0.0,0.0,0.0,0.0,-2.4362,-2.5016,-2.5712,-2.6471,-2.7006,-2.7299,-2.7299,-2.7299,-2.7299,-2.7299,-2.754,-2.792,-2.8403,-2.8661,-2.9317,-3.0282,-3.0282,-3.089,-3.1932,-3.1932,-3.2207,-3.2619,-3.2619,-3.2578,-3.2632,-3.394,-3.4449,-3.4611,-3.5852,-3.6301,-3.6301,-2.2515,0.0,0.0,0.0,0.0,0.0,0.0,0.0,0.0,0.0,-2.5524,0.0,-2.5785,0.0,-2.4427,0.0,-2.3501,-2.312,-2.2859,-2.2721,0.0,-2.2456,-2.2364,0.0,0.0,0.0,0.0,-2.1961,-2.1617,-2.1808,0.0,0.0,0.0,0.0,0.0,0.0,0.0,0.0,-2.5616,0.0,0.0,-2.5049,0.0,0.0,-2.3702,-2.4041,0.0,-2.517,-2.5881,-2.5881,-2.5807,-2.5749,-2.5749,-2.5749,-2.5615,-2.507,-2.5359,-2.5803,-2.5506,-2.5843,0.0,-2.6279,-2.6273,0.0,-2.5545,0.0,0.0,0.0,0.0,0.0,0.0,0.0,0.0,0.0,0.0,0.0,0.0,-2.2712,0.0,0.0,0.0,0.0,0.0,0.0,-2.2995,-2.3736,-2.4557,-2.5333,0.0,0.0,-2.7299,-2.7299,-2.7299,-2.7299,-2.7299,-2.7927,-2.8494,-2.898,-2.9632,-3.0484,-3.1462,-3.1462,-3.1878,-3.2669,-3.2669,-3.2781,-3.3001,-3.3001,-3.2941,-3.3051,-3.4306,-3.4774,-3.4849,-3.5935,-3.6301,-3.6301,0.0,0.0,0.0,0.0,-2.2868,0.0,0.0,0.0,-2.5662,0.0,-2.6527,-2.6545,-2.6545,-2.5749,-2.4945,-2.418,-2.394,0.0,-2.2789,-2.2754,0.0,0.0,-2.2549,-2.2538,-2.2754,0.0,0.0,0.0,0.0,0.0,0.0,0.0,0.0,0.0,-2.37,0.0,-2.4923,-2.5424,-2.5616,-2.5589,-2.5114,-2.4957,-2.5008,-2.533,-2.5246,-2.4992,-2.4957,-2.5594,-2.6418,-2.6418,-2.6208,-2.601,-2.601,-2.601,-2.5974,-2.5712,-2.601,-2.6418,-2.6418,-2.659,-2.6858,-2.7169,0.0,0.0,0.0,0.0,-2.6868,0.0,0.0,0.0,0.0,0.0,0.0,0.0,0.0,0.0,0.0,0.0,0.0,0.0,0.0,0.0,0.0,-2.2712,-2.2978,-2.3684,-2.4522,0.0,0.0,0.0,-2.7299,-2.7299,-2.7299,-2.733,-2.7313,-2.9085,-2.998,-3.0033,-3.1884,-3.2759,-3.2795,-3.2795,-3.2983,-3.3291,-3.3291,-3.3321,-3.3321,-3.3321,-3.3592,-3.4095,-3.4916,-3.5492,-3.5917,-3.6232,-3.6343,-3.6343,-2.3409,-2.4005,-2.4419,0.0,-2.3641,-2.329,0.0,0.0,0.0,0.0,-2.6809,-2.7082,-2.7082,-2.6342,-2.5806,-2.5569,-2.5023,0.0,0.0,0.0,0.0,-2.2504,-2.296,-2.3249,-2.3289,-2.3523,0.0,-2.3221,0.0,0.0,-2.2995,0.0,0.0,0.0,0.0,0.0,-2.4957,-2.5625,-2.5881,-2.5901,-2.5776,-2.582,0.0,0.0,-2.6202,-2.6286,-2.6082,-2.6182,-2.6418,-2.6418,-2.6349,-2.6279,-2.6279,-2.6279,-2.6279,-2.6208,-2.6279,-2.6418,-2.6418,-2.6453,-2.659,-2.6875,-2.694,-2.6922,0.0,0.0,0.0,0.0,0.0,0.0,0.0,0.0,0.0,0.0,0.0,0.0,0.0,0.0,0.0,0.0,0.0,0.0,-2.2815,-2.2712,-2.2798,-2.2961,-2.4247,0.0,0.0,0.0,0.0,-2.7299,-2.7299,-2.739,-2.76,-2.8649,-2.9576,-3.0391,-3.1462,-3.2273,-3.2795,-3.2795,-3.2983,-3.3291,-3.3291,-3.3437,-3.368,-3.368,-3.3967,-3.4447,-3.5277,-3.6179,-3.7055,-3.6829,-3.6759,-3.6759,-2.4178,0.0,0.0,-2.5057,0.0,0.0,-2.5495,0.0,0.0,-2.7095,-2.7276,0.0,-2.7299,-2.6902,-2.635,-2.5678,-2.5247,0.0,0.0,0.0,0.0,-2.3038,-2.3346,-2.3522,-2.3636,-2.3384,0.0,-2.3034,0.0,0.0,-2.3103,0.0,0.0,0.0,0.0,-2.5196,0.0,-2.606,-2.6173,-2.6189,-2.6314,0.0,0.0,-2.6742,-2.6875,-2.699,-2.6842,-2.6775,-2.6775,-2.6775,-2.6708,-2.6573,-2.6573,-2.6573,-2.6539,-2.6453,-2.6607,-2.6775,-2.6624,-2.6691,-2.6808,-2.699,-2.7023,-2.7038,-2.7103,-2.7103,-2.707,0.0,0.0,0.0,0.0,0.0,0.0,0.0,0.0,0.0,0.0,0.0,0.0,0.0,-2.4729,0.0,-2.3954,-2.3465,-2.3323,-2.3695,0.0,0.0,0.0,0.0,0.0,-2.7465,-2.7826,-2.8119,-2.8382,-2.9703,-3.0653,-3.1265,-3.2184,-3.2857,-3.3243,-3.3243,-3.3332,-3.3522,-3.3522,-3.3625,-3.3825,-3.4192,-3.4686,-3.5381,-3.639,-3.7272,-3.8,-3.7578,-3.7208,-3.6952,0.0,0.0,0.0,0.0,0.0,0.0,0.0,-2.6919,0.0,-2.8092,0.0,-2.7402,-2.7299,-2.7299,-2.6713,-2.5264,0.0,-2.4505,-2.2953,-2.3426,-2.3788,-2.3788,-2.3739,-2.3824,-2.4098,-2.3061,0.0,0.0,0.0,0.0,0.0,0.0,0.0,0.0,0.0,0.0,0.0,-2.6505,-2.6418,0.0,-2.6725,-2.6825,-2.6891,-2.7186,-2.7299,-2.7299,-2.7299,-2.7299,-2.7299,-2.7299,-2.7105,-2.6858,-2.6858,-2.6858,-2.6825,-2.659,-2.6892,-2.725,-2.694,-2.7087,-2.7299,-2.7299,-2.7282,-2.7267,-2.724,-2.7208,-2.7192,-2.7111,-2.7062,-2.7028,0.0,0.0,0.0,0.0,0.0,0.0,0.0,0.0,0.0,0.0,0.0,0.0,0.0,-2.4624,-2.433,0.0,0.0,0.0,0.0,0.0,0.0,-2.7701,-2.8511,-2.9148,-2.9526,0.0,-3.2272,-3.2409,-3.3351,-3.3807,-3.3807,-3.3807,-3.3807,-3.3807,-3.3917,-3.3972,-3.4027,-3.4835,-3.5679,-3.6567,-3.7735,-3.8401,-3.8676,-3.8303,-3.7685,-3.7161,0.0,0.0,0.0,0.0,0.0,-2.842,-2.9023,-2.8489,-2.7885,-2.754,-2.7902,-2.7971,-2.7368,-2.7299,-2.6919,-2.6006,-2.5919,0.0,0.0,0.0,0.0,-2.3788,-2.4396,-2.5033,-2.5695,-2.5255,-2.4897,0.0,0.0,0.0,0.0,0.0,0.0,0.0,0.0,0.0,-2.6774,-2.6505,0.0,-2.6708,-2.6774,-2.6973,-2.7218,-2.7299,-2.7299,-2.7299,-2.7299,-2.7299,-2.7299,-2.7299,-2.725,-2.7218,-2.7218,-2.7218,-2.7218,-2.7154,-2.7218,-2.7299,-2.7218,-2.725,-2.7299,-2.7299,-2.7233,-2.7274,-2.7792,-2.7879,-2.7811,-2.7673,-2.7742,-2.7641,-2.7028,0.0,0.0,0.0,0.0,0.0,0.0,0.0,0.0,0.0,0.0,0.0,0.0,0.0,0.0,0.0,0.0,0.0,0.0,0.0,0.0,0.0,-2.8687,0.0,0.0,0.0,-3.2657,-3.3533,-3.3707,-3.3807,-3.3807,-3.3807,-3.3807,-3.3844,-3.4504,-3.477,-3.4871,-3.5716,-3.6541,-3.7367,-3.8261,-3.8627,-3.8707,-3.8627,-3.8303,-3.7897,0.0,0.0,0.0,0.0,0.0,0.0,0.0,-2.9317,0.0,-2.8023,-2.7489,-2.7075,-2.6713,-2.704,-2.6816,-2.5643,-2.554,-2.4885,-2.3323,-2.3581,-2.3788,-2.3788,-2.4574,0.0,-2.5523,-2.5403,-2.5232,-2.5005,0.0,0.0,0.0,0.0,0.0,0.0,0.0,-2.7218,0.0,0.0,0.0,-2.7055,-2.7055,-2.7169,-2.7299,-2.7299,-2.7299,-2.7299,-2.7299,-2.725,-2.7201,-2.7201,-2.7201,-2.7201,-2.7201,-2.7201,-2.7201,-2.7201,-2.7201,-2.7201,-2.7137,-2.7154,-2.724,-2.7635,-2.767,-2.7792,-2.8458,-2.8594,-2.8523,-2.8416,-2.8452,-2.8438,-2.8117,-2.776,0.0,0.0,0.0,0.0,0.0,0.0,0.0,0.0,0.0,0.0,0.0,0.0,0.0,0.0,0.0,0.0,0.0,0.0,0.0,0.0,0.0,0.0,0.0,0.0,0.0,-3.3807,-3.3807,-3.3807,-3.3807,-3.3807,-3.3807,-3.3825,-3.4211,-3.4605,-3.5082,-3.6395,-3.7386,-3.8157,-3.856,-3.8707,-3.8762,-3.9166,-3.92,-3.9075,0.0,-2.9644,0.0,0.0,-3.0162,0.0,-2.9075,-2.992,-3.0075,-2.8385,-2.7247,-2.6471,-2.6143,-2.6678,-2.6419,-2.4885,-2.4747,-2.4178,-2.2771,-2.3237,-2.3633,-2.3788,-2.4419,-2.4902,-2.5229,-2.5074,-2.5074,0.0,0.0,0.0,0.0,0.0,0.0,0.0,0.0,0.0,0.0,0.0,-2.7299,-2.7299,-2.7299,-2.7299,-2.7299,-2.7299,-2.7299,-2.7299,-2.7299,-2.7201,-2.7103,-2.7103,-2.7103,-2.7103,-2.707,-2.7103,-2.7135,-2.7103,-2.7135,-2.7152,-2.7072,-2.704,-2.7177,-2.7758,-2.7981,-2.8237,-2.8932,-2.9202,-2.9285,-2.9248,-2.9093,-2.9062,-2.9251,-2.8727,0.0,0.0,0.0,0.0,0.0,0.0,0.0,0.0,0.0,0.0,0.0,0.0,0.0,0.0,0.0,0.0,0.0,0.0,0.0,0.0,0.0,-3.1636,-3.2852,0.0,-3.3899,-3.4064,-3.388,-3.3807,-3.3807,-3.3807,-3.3899,-3.4082,-3.4247,-3.489,-3.5871,-3.7202,-3.823,-3.8964,-3.8964,-3.9056,-3.9294,-3.9918,-4.0047,-3.996,0.0,0.0,0.0,0.0,0.0,0.0,0.0,-3.0593,-2.9903,-2.7678,-2.7851,-2.7661,-2.6264,-2.6178,-2.5592,-2.4046,-2.3908,-2.3564,-2.2737,-2.2754,-2.3081,-2.3753,-2.3857,-2.4563,-2.5971,-2.535,-2.5333,0.0,0.0,0.0,0.0,0.0,0.0,0.0,0.0,0.0,0.0,-2.7299,-2.7299,-2.7299,-2.7299,-2.7299,-2.7299,-2.7299,-2.7299,-2.7299,-2.7299,-2.7201,-2.7103,-2.7103,-2.7103,-2.7103,-2.704,-2.7137,-2.725,-2.7135,-2.7184,-2.7282,-2.725,-2.7201,-2.712,-2.7188,-2.7588,-2.8219,-2.8932,-2.9573,-3.0006,-3.0006,-2.9465,-2.9194,-2.9871,-2.9381,-2.9146,0.0,0.0,0.0,0.0,0.0,0.0,0.0,0.0,0.0,0.0,0.0,0.0,0.0,0.0,0.0,0.0,0.0,0.0,-2.9779,0.0,-3.2093,-3.3678,-3.3752,-3.4174,-3.4862,-3.4156,-3.3807,-3.3807,-3.3807,-3.4211,-3.4917,-3.5716,-3.6945,-3.8377,-3.8524,-3.9056,-3.979,-3.979,-4.023,-4.0891,-4.0965,-4.0524,-4.001,0.0,0.0,0.0,0.0,0.0,0.0,0.0,-3.0903,-2.9954,-2.813,-2.818,-2.8006,-2.6937,-2.6385,-2.5678,-2.4626,-2.4063,-2.3667,-2.3374,-2.333,-2.3674,-2.4488,-2.4895,-2.5399,-2.6048,-2.6251,-2.6475,0.0,0.0,0.0,0.0,0.0,0.0,0.0,0.0,-2.7299,-2.7299,-2.7299,-2.7299,-2.7299,-2.7299,-2.7299,-2.7299,-2.7299,-2.7299,-2.7282,-2.7201,-2.712,-2.7023,-2.7023,-2.7023,-2.7055,-2.7055,-2.712,-2.7184,-2.7135,-2.7135,-2.7255,-2.762,-2.7673,-2.7845,-2.8732,-2.9102,-2.9454,-3.0258,-3.0607,-3.0768,-3.0768,-3.0531,-3.0395,-3.0717,-3.0514,-3.0412,0.0,0.0,0.0,0.0,0.0,0.0,0.0,0.0,0.0,0.0,0.0,0.0,0.0,0.0,0.0,0.0,0.0,0.0,-3.0739,0.0,-3.2669,-3.3788,-3.3807,-3.3972,-3.4284,-3.3954,-3.4064,-3.4523,-3.4523,-3.4981,-3.5844,-3.6652,-3.7661,-3.8744,-3.9221,-3.9882,-4.0616,-4.0616,-4.0836,-4.1167,-4.1644,-4.1625,-4.1387,-3.1829,0.0,-3.1106,0.0,-3.1296,-3.1039,-3.1337,-3.1074,-3.0226,-2.8527,-2.8559,-2.8265,-2.7043,-2.6454,-2.5816,-2.5074,-2.4488,-2.4132,-2.4132,-2.4121,-2.4333,-2.4942,-2.5416,0.0,-2.5973,-2.6585,-2.6963,-2.707,-2.6588,0.0,0.0,0.0,0.0,0.0,-2.7218,-2.7218,-2.7233,-2.7233,-2.725,-2.7299,-2.7299,-2.7299,-2.7299,-2.7299,-2.7282,-2.7233,-2.7135,-2.7038,-2.6992,-2.7007,-2.7007,-2.7007,-2.7055,-2.7103,-2.7152,-2.7103,-2.7135,-2.7223,-2.7639,-2.7879,-2.827,-2.9289,-2.9827,-3.0243,-3.0811,-3.106,-3.119,-3.119,-3.119,-3.119,-3.119,-3.119,-3.119,-3.119,0.0,0.0,0.0,0.0,0.0,0.0,-2.9316,-2.9024,-2.843,0.0,0.0,0.0,0.0,0.0,0.0,0.0,0.0,0.0,0.0,0.0,0.0,-3.3807,-3.3917,-3.4156,-3.4218,-3.4694,-3.5524,-3.5745,-3.6205,-3.6813,-3.7555,-3.8303,-3.9093,-3.9662,-4.0506,-4.146,-4.146,-4.1607,-4.1882,-4.2433,-4.2506,-4.2304,-3.1517,-3.1517,-3.15,-3.1517,-3.1517,-3.1261,-3.0546,-3.1062,-3.081,-2.8595,-2.9007,-2.8593,-2.6275,-2.6065,-2.5816,-2.5074,-2.4988,-2.4988,-2.4988,-2.4988,-2.4976,0.0,0.0,-2.5236,-2.5897,-2.59,-2.6258,-2.7007,0.0,0.0,-2.7007,0.0,-2.7007,-2.7007,-2.7007,-2.7023,-2.7103,-2.7103,-2.7184,-2.7299,-2.7299,-2.7299,-2.7299,-2.7299,-2.7233,-2.7103,-2.7103,-2.7023,-2.6926,-2.7038,-2.7055,-2.7007,-2.7007,-2.7154,-2.7282,-2.7135,-2.7184,-2.7282,-2.7152,-2.7603,-2.8084,-2.8032,-2.9064,-3.0108,-3.0125,-3.0683,-3.119,-3.119,-3.119,-3.119,-3.119,-3.119,-3.119,-3.119,0.0,0.0,0.0,0.0,0.0,0.0,-3.0843,-3.0596,-3.0939,0.0,0.0,0.0,0.0,0.0,0.0,0.0,0.0,-3.254,-3.2596,0.0,-3.3788,-3.3807,-3.4211,-3.4972,-3.524,-3.5838,-3.6712,-3.7485,-3.7875,-3.7904,-3.8442,-3.9148,-3.9882,-3.99,-4.0836,-4.2286,-4.2286,-4.2763,-4.3461,-4.3461,-4.2983,-4.2304,-3.1619,-3.1517,-3.1517,-3.1428,-3.1462,-3.1432,-3.1103,-3.1257,-3.0946,-2.9736,-2.938,-2.8732,-2.7503,-2.659,-2.5932,0.0,-2.5133,-2.5065,0.0,-2.563,-2.5901,-2.6509,-2.6447,-2.6502,-2.6727,-2.6727,-2.6815,-2.7007,0.0,0.0,0.0,-2.7007,-2.7007,-2.7007,-2.7007,-2.7023,-2.7103,-2.7103,-2.7184,-2.7299,-2.7299,-2.7299,-2.7299,-2.7299,-2.7233,-2.7103,-2.7055,-2.6975,-2.6942,-2.7181,-2.7258,-2.7321,-2.7595,-2.7509,-2.7282,-2.725,-2.7282,-2.7371,-2.7689,-2.793,-2.8322,-2.9274,-2.981,-3.0226,-3.0777,-3.1043,-3.119,-3.119,-3.119,-3.119,-3.119,-3.119,-3.119,-3.119,-3.1487,0.0,0.0,0.0,0.0,0.0,-3.1403,-3.1038,0.0,-3.087,0.0,0.0,0.0,0.0,0.0,0.0,0.0,0.0,-3.3308,0.0,-3.4614,-3.4989,-3.5498,-3.6173,-3.6982,-3.8121,-3.9508,-3.9701,-4.0132,-4.0694,-4.0624,-4.1082,-4.1792,-4.1595,-4.2158,-4.3112,-4.3112,-4.3259,-4.3497,-4.3497,-4.3332,-4.3039,-3.1487,-3.1402,-3.1385,-3.1312,-3.1368,-3.13,-3.0955,-3.0781,-3.0374,-2.9493,-2.9002,-2.8423,-2.7709,-2.6853,0.0,-2.6353,-2.5863,-2.5794,-2.6336,-2.6356,-2.6578,-2.7137,-2.7072,-2.7006,-2.6956,0.0,0.0,-2.6892,-2.6892,-2.6892,-2.6892,-2.6892,-2.6892,-2.6892,-2.6942,-2.7007,-2.7038,-2.7103,-2.7184,-2.733,-2.7421,-2.7359,-2.7264,-2.7465,-2.74,-2.7181,-2.7261,-2.7279,-2.723,-2.7457,-2.756,-2.7636,-2.7926,-2.7818,-2.7539,-2.7539,-2.7539,-2.7652,-2.8078,-2.8441,-2.8887,-2.9918,-3.0332,-3.0632,-3.1133,-3.1213,-3.119,-3.119,-3.119,-3.119,-3.119,-3.119,-3.119,-3.119,-3.16,-3.1932,-3.1932,0.0,0.0,0.0,0.0,0.0,0.0,-3.1879,-3.2224,0.0,0.0,0.0,0.0,0.0,0.0,-3.2705,-3.3679,0.0,-3.4796,-3.5759,-3.6752,-3.7766,-3.9161,-4.0443,-4.1552,-4.1397,-4.165,-4.214,-4.1817,-4.2089,-4.2686,-4.2506,-4.2926,-4.3682,-4.3548,-4.3582,-4.3682,-4.3566,-4.3497,-4.3424,-3.119,-3.119,0.0,0.0,-3.119,0.0,-3.0294,-2.9905,-2.9316,-2.8286,-2.8117,-2.7811,-2.7128,-2.6943,-2.6909,-2.6975,0.0,0.0,0.0,-2.6975,-2.6959,-2.6926,-2.6893,-2.6842,-2.6725,-2.6742,-2.6691,-2.6691,-2.6691,-2.6691,-2.6691,-2.6691,-2.6691,-2.6742,-2.6842,-2.6959,-2.7007,-2.707,-2.7184,-2.7345,-2.76,-2.7474,-2.7213,-2.7783,-2.7725,-2.7396,-2.7683,-2.776,-2.7713,-2.7869,-2.7926,-2.7954,-2.8037,-2.8065,-2.8037,-2.801,-2.7982,-2.8057,-2.8296,-2.8916,-2.961,-2.9969,-3.0615,-3.119,-3.119,-3.123,-3.123,-3.119,-3.123,-3.123,-3.119,-3.123,-3.123,-3.123,-3.1841,-3.2334,-3.2334,0.0,0.0,0.0,0.0,0.0,0.0,-3.3698,-3.3771,0.0,0.0,0.0,0.0,0.0,-3.2072,-3.3059,-3.3873,-3.4461,-3.4771,-3.6396,-3.8116,-3.983,-4.159,-4.2626,-4.2966,-4.2642,-4.2553,-4.2587,-4.231,-4.2462,-4.285,-4.2821,-4.3323,-4.3986,-4.3682,-4.3716,-4.3974,-4.3615,-4.3497,-4.3497,0.0,0.0,-3.119,-3.119,-3.119,-3.114,-3.097,-3.0239,-2.9698,-2.9621,-2.8588,-2.7792,-2.7622,-2.708,-2.6742,-2.6775,-2.6775,-2.6808,-2.6926,-2.6926,-2.6959,-2.6975,-2.6992,-2.6942,-2.6942,-2.6876,-2.6792,-2.6691,-2.6691,-2.6691,-2.6691,-2.6792,-2.6842,-2.6842,-2.6893,-2.6975,-2.707,-2.7195,-2.7369,-2.7557,-2.7789,-2.7783,-2.7725,-2.7869,-2.7811,-2.7683,-2.7789,-2.776,-2.7742,-2.8037,-2.8156,-2.8264,-2.8525,-2.8644,-2.8601,-2.8065,-2.7926,-2.795,-2.7941,-2.831,-2.8815,-2.942,-3.0381,-3.119,-3.119,-3.1389,-3.1524,-3.1252,-3.1389,-3.1487,-3.1269,-3.1428,-3.1582,-3.1582,-3.2196,-3.2666,-3.2666,-3.3099,0.0,0.0,-3.3422,-3.3491,-3.3587,-3.3807,-3.4212,0.0,0.0,0.0,0.0,-3.4375,-3.4143,-3.4797,-3.5212,-3.6062,-3.7404,-3.8814,-4.067,-4.2936,-4.2768,-4.3422,-4.4685,-4.3935,-4.3971,-4.4601,-4.4275,-4.4203,-4.4297,-4.4083,-4.413,-4.426,-4.3999,-4.3942,-4.3974,-4.3615,-4.3497,-4.3497,-3.119,-3.119,-3.119,-3.119,-3.119,-3.1213,-3.1206,-3.018,-2.9533,-2.9878,-2.8401,-2.7435,-2.7755,-2.7148,-2.6691,-2.6691,-2.6691,-2.6742,-2.6792,-2.6792,-2.6825,-2.6859,-2.6859,-2.6859,-2.6859,-2.6825,-2.6775,-2.6691,-2.6691,-2.6691,-2.6691,-2.6775,-2.6792,-2.6792,-2.6876,-2.6942,-2.7023,-2.7276,-2.7461,-2.7587,-2.7971,-2.8027,-2.7886,-2.8165,-2.812,-2.7971,-2.8128,-2.8128,-2.8156,-2.8352,-2.8438,-2.8515,-2.8694,-2.9022,-2.9264,-2.8892,-2.8533,-2.8291,-2.8461,-2.8911,-2.9569,-3.0489,-3.1091,-3.1504,-3.1674,-3.1694,-3.1694,-3.1694,-3.1841,-3.1932,-3.1731,-3.186,-3.1967,-3.1967,-3.2435,-3.2795,-3.2795,-3.3147,0.0,-3.3393,-3.3829,-3.4045,-3.3762,-3.4689,-3.538,-3.5515,-3.5604,0.0,-3.6314,-3.5923,-3.5547,-3.518,-3.6066,-3.7192,-3.8601,-4.0861,-4.2679,-4.4017,-4.3959,-4.4418,-4.5277,-4.4819,-4.4857,-4.5297,-4.5109,-4.4934,-4.4776,-4.465,-4.4572,-4.4546,-4.4151,-4.4079,-4.4151,-4.3664,-4.3497,-4.3497,-3.119,-3.119,-3.119,-3.119,-3.119,-3.1218,-3.1202,-2.9743,-2.8907,-2.9632,-2.8218,-2.7317,-2.7807,-2.7283,-2.686,-2.6708,-2.6691,-2.6691,-2.6691,-2.6691,-2.6691,-2.6691,-2.6691,-2.6691,-2.6691,-2.6691,-2.6691,-2.6691,-2.6691,-2.6691,-2.6691,-2.6742,-2.6742,-2.6742,-2.6842,-2.6926,-2.7007,-2.7373,-2.7587,-2.7659,-2.821,-2.8237,-2.7989,-2.8474,-2.8456,-2.8228,-2.8492,-2.8587,-2.8612,-2.8687,-2.8694,-2.8694,-2.8694,-2.9166,-2.9704,-2.9634,-2.9261,-2.8982,-2.9428,-3.0101,-3.0924,-3.2033,-3.2021,-3.1896,-3.2214,-3.2056,-3.1967,-3.2248,-3.2351,-3.2351,-3.2317,-3.2351,-3.2385,-3.2385,-3.2684,-3.2876,-3.2876,0.0,-3.3447,-3.3574,-3.441,-3.4798,-3.4318,-3.5889,-3.671,-3.6175,-3.6716,-3.7159,-3.7272,-3.7272,-3.6736,-3.5553,-3.6881,-3.8232,-3.9565,-4.2526,-4.4074,-4.4208,-4.4953,-4.5297,-4.5297,-4.5297,-4.5297,-4.5297,-4.5297,-4.5151,-4.4868,-4.4868,-4.4868,-4.4819,-4.4308,-4.4221,-4.4327,-4.3777,-4.3548,-4.3497,-3.119,-3.119,-3.119,-3.119,-3.119,-3.1218,-3.1202,-2.8844,-2.7688,-2.9476,-2.9416,-2.8938,-2.8199,-2.8047,-2.764,-2.6759,-2.6691,-2.6691,-2.6691,-2.6691,-2.6691,-2.6691,-2.6691,-2.6691,-2.6691,-2.6691,-2.6691,-2.6691,-2.6691,-2.6691,-2.6691,-2.6825,-2.6876,-2.6876,-2.6893,-2.7105,-2.7434,-2.7582,-2.7864,-2.8219,-2.8458,-2.8536,-2.8484,-2.8587,-2.8587,-2.8518,-2.8587,-2.8587,-2.8612,-2.8737,-2.8761,-2.8694,-2.8761,-2.8834,-2.8869,-2.8793,-2.9174,-2.9771,-3.0532,-3.1092,-3.1578,-3.2156,-3.2231,-3.2196,-3.2283,-3.2468,-3.2568,-3.2351,-3.2535,-3.2634,-3.2351,-3.2535,-3.2731,-3.2731,-3.3068,-3.3304,-3.3304,0.0,-3.3647,-3.4335,-3.4757,-3.522,-3.5864,-3.6621,-3.7363,-3.8011,-3.7711,-3.7832,-3.8556,-3.8594,-3.8537,-3.8383,-3.846,-3.9697,-4.2202,-4.3405,-4.438,-4.5105,-4.5239,-4.5297,-4.5297,-4.5297,-4.5297,-4.5297,-4.5297,-4.5256,-4.5235,-4.5235,-4.5235,-4.5173,-4.4819,-4.4546,-4.4374,-4.403,-4.3749,-4.3497,-3.119,-3.119,-3.119,-3.119,-3.119,-3.1218,-3.1202,-2.8645,-2.7044,-2.7961,-2.8795,-2.9453,-2.9781,-2.8356,-2.7216,-2.6725,-2.6691,-2.6691,-2.6691,-2.6691,-2.6691,-2.6691,-2.6691,-2.6691,-2.6691,-2.6691,-2.6691,-2.6691,-2.6691,-2.6691,-2.6691,-2.6742,-2.6792,-2.6792,-2.6792,-2.6908,-2.7103,-2.7522,-2.7818,-2.8017,-2.8414,-2.8587,-2.8587,-2.8587,-2.8587,-2.8587,-2.8587,-2.8587,-2.8612,-2.8662,-2.8662,-2.8662,-2.8687,-2.8978,-2.9297,-2.9246,-2.95,-3.0087,-3.131,-3.1776,-3.2062,-3.2746,-3.2716,-3.2619,-3.283,-3.2844,-3.2813,-3.288,-3.3006,-3.3068,-3.2912,-3.3006,-3.3129,-3.3129,-3.3286,0.0,0.0,-3.3773,-3.4232,-3.4765,-3.5837,-3.6589,-3.6652,-3.7886,-3.8656,-3.8658,-3.8878,-3.9185,-3.9586,-3.9624,-3.9871,-4.0329,-4.0711,-4.174,-4.3443,-4.4284,-4.4895,-4.5297,-4.5297,-4.5297,-4.5297,-4.5297,-4.5297,-4.5297,-4.5297,-4.5297,-4.5297,-4.5297,-4.5297,-4.5275,-4.4934,-4.4726,-4.4572,-4.4151,-4.391,-4.3749,-3.119,-3.119,-3.119,-3.119,-3.119,-3.1218,-3.1202,-2.924,-2.7748,-2.7748,-2.8171,-2.9155,-3.1008,-2.9127,-2.7453,-2.6742,-2.6691,-2.6691,-2.6691,-2.6691,-2.6691,-2.6691,-2.6691,-2.6691,-2.6691,-2.6691,-2.6691,-2.6691,-2.6691,-2.6691,-2.6691,-2.6791,-2.6758,-2.6691,-2.6791,-2.6858,-2.6971,-2.7474,-2.7789,-2.7961,-2.8414,-2.8587,-2.8587,-2.8587,-2.8587,-2.8587,-2.8587,-2.8587,-2.8612,-2.8612,-2.8612,-2.8612,-2.8612,-2.9029,-2.9518,-2.9518,-2.9789,-3.0387,-3.1799,-3.2343,-3.2632,-3.3248,-3.3178,-3.3019,-3.3334,-3.3178,-3.3019,-3.3334,-3.3393,-3.3393,-3.3393,-3.3393,-3.3393,-3.3393,0.0,0.0,0.0,-3.4431,-3.5107,-3.5514,-3.6997,-3.7953,-3.7868,-3.9331,-4.0108,-3.9671,-4.0326,-4.0728,-4.0748,-4.0826,-4.1227,-4.2068,-4.2737,-4.3386,-4.3997,-4.4857,-4.5297,-4.5297,-4.5297,-4.5297,-4.5297,-4.5297,-4.5297,-4.5297,-4.5297,-4.5297,-4.5297,-4.5297,-4.5297,-4.5256,-4.5023,-4.4868,-4.4726,-4.4279,-4.4048,-4.3942,-3.119,-3.119,-3.119,-3.119,-3.119,-3.1218,-3.1202,-3.1031,-3.0874,-3.0857,-2.8536,-2.7969,-3.0878,-3.0979,-2.9723,-2.6922,-2.6708,-2.6691,-2.6691,-2.6691,-2.6691,-2.6691,-2.6691,-2.6691,-2.6691,-2.6691,-2.6691,-2.6691,-2.6691,-2.6691,-2.6691,-2.7021,-2.6989,-2.6725,-2.7021,-2.7338,-2.7624,-2.7672,-2.8017,-2.8536,-2.8587,-2.8587,-2.8587,-2.8587,-2.8587,-2.8587,-2.8587,-2.8587,-2.8612,-2.8669,-2.8662,-2.8612,-2.8669,-2.8699,-2.8677,-2.8677,-2.9753,-3.1093,-3.1962,-3.2741,-3.3339,-3.3393,-3.3364,-3.3364,-3.3393,-3.3364,-3.3364,-3.3393,-3.3393,-3.3393,-3.3393,-3.3393,-3.3393,-3.3393,0.0,0.0,-3.4516,-3.5422,-3.6376,-3.7129,-3.7851,-3.885,-4.0297,-4.0835,-4.1408,-4.2071,-4.2272,-4.2357,-4.2419,-4.2482,-4.2926,-4.3806,-4.3883,-4.394,-4.4017,-4.4857,-4.5297,-4.5297,-4.5297,-4.5297,-4.5297,-4.5297,-4.5297,-4.5297,-4.5297,-4.5297,-4.5297,-4.5297,-4.5297,-4.5297,-4.5256,-4.5068,-4.4751,-4.4465,-4.4221,-4.3942,-3.119,-3.119,-3.119,-3.119,-3.119,-3.1213,-3.1184,-3.1206,-3.1215,-3.1202,-3.0183,-2.9912,-3.1062,-3.1201,-3.0005,-2.6944,-2.6708,-2.6691,-2.6691,-2.6691,-2.6691,-2.6691,-2.6691,-2.6691,-2.6691,-2.6691,-2.6691,-2.6691,-2.6691,-2.6691,-2.6691,-2.6825,-2.6923,-2.7021,-2.7149,-2.74,-2.7713,-2.7869,-2.8093,-2.8299,-2.8518,-2.8587,-2.8587,-2.8587,-2.8587,-2.8587,-2.8587,-2.8587,-2.8612,-2.8637,-2.8612,-2.8612,-2.8637,-2.8612,-2.8811,-2.9807,-3.0876,-3.1908,-3.2723,-3.3176,-3.3393,-3.3393,-3.3393,-3.3393,-3.3393,-3.3393,-3.3393,-3.3393,-3.381,-3.4154,-3.4154,-3.4552,-3.4896,-3.4896,0.0,-3.591,-3.5421,-3.6699,-3.7879,-3.8405,-3.9223,-4.0314,-4.1647,-4.1874,-4.2071,-4.2393,-4.2458,-4.2525,-4.2591,-4.317,-4.3632,-4.3935,-4.4493,-4.4819,-4.4819,-4.5125,-4.5297,-4.5297,-4.5297,-4.5297,-4.5297,-4.5297,-4.5297,-4.5297,-4.5297,-4.5297,-4.5297,-4.5297,-4.5297,-4.5297,-4.5297,-4.5087,-4.4751,-4.4493,-4.4221,-4.3942,-3.119,-3.119,-3.119,-3.119,-3.119,-3.119,-3.119,-3.1179,-3.1215,-3.1185,-3.0364,-3.0165,-3.1098,-3.0352,-2.8955,-2.6877,-2.6691,-2.6691,-2.6725,-2.6691,-2.6691,-2.6691,-2.6691,-2.6691,-2.6691,-2.6691,-2.6691,-2.6691,-2.6691,-2.6691,-2.6691,-2.6791,-2.6923,-2.7053,-2.7276,-2.7474,-2.773,-2.7992,-2.8156,-2.8299,-2.8518,-2.8587,-2.8587,-2.8587,-2.8587,-2.8587,-2.8587,-2.8587,-2.8587,-2.8587,-2.8587,-2.8587,-2.8587,-2.8775,-2.93,-3.0894,-3.1763,-3.2379,-3.3176,-3.3393,-3.3393,-3.3393,-3.3393,-3.3393,-3.3393,-3.361,-3.3791,-3.3791,-3.4425,-3.4987,-3.4987,-3.5439,-3.5892,-3.6146,-3.693,-3.7426,-3.7085,-3.8566,-3.9769,-3.9973,-4.0741,-4.1637,-4.2711,-4.281,-4.2924,-4.317,-4.3236,-4.3304,-4.3371,-4.3988,-4.4315,-4.4271,-4.4908,-4.5254,-4.5275,-4.5297,-4.5297,-4.5297,-4.5297,-4.5297,-4.5297,-4.5297,-4.5297,-4.5297,-4.5297,-4.5297,-4.5297,-4.5297,-4.5297,-4.5297,-4.5297,-4.5087,-4.4751,-4.4493,-4.4221,-4.3942,-3.119,-3.119,-3.119,-3.119,-3.119,-3.119,-3.119,-3.121,-3.1206,-3.1189,-2.8568,-2.7824,-3.0864,-2.8486,-2.6684,-2.6684,-2.6708,-2.6725,-2.6736,-2.6753,-2.6722,-2.6725,-2.6708,-2.6691,-2.6691,-2.6691,-2.6691,-2.6691,-2.6691,-2.6691,-2.6691,-2.7053,-2.7021,-2.6725,-2.7413,-2.7701,-2.7748,-2.801,-2.8299,-2.8605,-2.8605,-2.8605,-2.8587,-2.8587,-2.8587,-2.8587,-2.8587,-2.8587,-2.8587,-2.8587,-2.8587,-2.8587,-2.8605,-2.9156,-3.0115,-3.1727,-3.2198,-3.2379,-3.3176,-3.3393,-3.3393,-3.3393,-3.3393,-3.3393,-3.3411,-3.4027,-3.4606,-3.4624,-3.5258,-3.582,-3.582,-3.5838,-3.6091,-3.687,-3.7972,-3.8989,-3.9711,-4.1073,-4.2006,-4.2006,-4.2252,-4.2754,-4.3625,-4.3701,-4.4042,-4.4838,-4.4943,-4.5014,-4.5084,-4.5103,-4.5103,-4.5103,-4.5103,-4.5125,-4.5192,-4.5275,-4.5297,-4.5297,-4.5297,-4.5297,-4.5297,-4.5297,-4.5297,-4.5297,-4.5297,-4.5297,-4.5297,-4.5297,-4.5297,-4.5297,-4.5297,-4.5087,-4.4751,-4.4493,-4.4221,-4.3942,-3.1185,-3.119,-3.119,-3.119,-3.119,-3.119,-3.119,-3.1196,-3.042,-2.8322,-2.7252,-2.7027,-2.7938,-2.7219,-2.6697,-2.6708,-2.6691,-2.759,-2.9729,-2.985,-2.9418,-2.8367,-2.7266,-2.6691,-2.6691,-2.6691,-2.6691,-2.6691,-2.6691,-2.6691,-2.6691,-2.6791,-2.7196,-2.7858,-2.8324,-2.8976,-2.9686,-2.9996,-2.9854,-2.9427,-2.9427,-2.9101,-2.8587,-2.8587,-2.8587,-2.8587,-2.8587,-2.8587,-2.8587,-2.8587,-2.8587,-2.8721,-2.9264,-2.9989,-3.084,-3.189,-3.2596,-3.3085,-3.3339,-3.3393,-3.3393,-3.3393,-3.3393,-3.3556,-3.4117,-3.4443,-3.4769,-3.5331,-3.6073,-3.6635,-3.6635,-3.7558,-3.8391,-3.8645,-4.0072,-4.1034,-4.0685,-4.1901,-4.2852,-4.2833,-4.312,-4.3644,-4.4459,-4.4535,-4.4649,-4.4876,-4.4943,-4.501,-4.4943,-4.5057,-4.508,-4.5014,-4.508,-4.5125,-4.5125,-4.5192,-4.5235,-4.5297,-4.5297,-4.5297,-4.5297,-4.5297,-4.5297,-4.5297,-4.5297,-4.5297,-4.5297,-4.5297,-4.5297,-4.5297,-4.5297,-4.4976,-4.4519,-4.4411,-4.4084,-4.3615,-3.1207,-3.1202,-3.119,-3.119,-3.119,-3.119,-3.119,-3.1218,-3.0531,-2.8716,-2.8473,-2.8488,-2.8475,-2.7398,-2.6704,-2.6708,-2.6691,-2.7469,-2.9295,-2.9795,-2.9706,-2.9028,-2.8095,-2.7604,-2.7604,-2.73,-2.7148,-2.7148,-2.6843,-2.6843,-2.7148,-2.7148,-2.764,-2.8596,-2.8947,-2.9548,-3.033,-3.0675,-3.0405,-2.9816,-2.9816,-2.9318,-2.8587,-2.8587,-2.8587,-2.8587,-2.8587,-2.8811,-2.9083,-2.9083,-2.9083,-2.9264,-3.0387,-3.0858,-3.122,-3.2343,-3.3013,-3.3393,-3.3393,-3.3628,-3.3882,-3.3882,-3.3882,-3.4099,-3.4896,-3.5331,-3.5693,-3.6164,-3.716,-3.7938,-3.7938,-3.8971,-3.9948,-4.0256,-4.147,-4.2332,-4.2166,-4.3137,-4.3849,-4.3875,-4.4039,-4.4364,-4.4857,-4.4895,-4.4895,-4.4895,-4.4919,-4.4943,-4.4895,-4.4986,-4.4991,-4.4943,-4.4991,-4.5014,-4.5057,-4.5125,-4.5192,-4.5275,-4.5297,-4.5297,-4.5297,-4.5297,-4.5297,-4.5297,-4.5297,-4.5297,-4.5297,-4.5297,-4.5297,-4.5297,-4.5297,-4.4929,-4.4402,-4.4374,-4.398,-4.3463,-3.1415,-3.1308,-3.1185,-3.1185,-3.1207,-3.119,-3.119,-3.121,-3.121,-3.1207,-3.0972,-3.0803,-3.0802,-2.8339,-2.6708,-2.6708,-2.696,-2.7052,-2.6919,-2.7891,-2.8645,-2.9059,-2.9076,-2.9096,-2.9011,-2.8213,-2.7823,-2.7926,-2.7165,-2.7182,-2.7926,-2.7926,-2.8332,-2.9113,-2.9419,-2.9796,-3.0226,-3.0604,-3.0471,-3.0007,-3.0007,-2.9536,-2.8804,-2.8804,-2.8804,-2.8804,-2.8714,-2.9174,-2.9816,-2.9816,-2.9816,-3.0061,-3.1691,-3.1691,-3.1401,-3.294,-3.3393,-3.3393,-3.3393,-3.3991,-3.4624,-3.4697,-3.4769,-3.5023,-3.5747,-3.6472,-3.7033,-3.716,-3.8373,-3.9405,-3.9478,-4.0111,-4.0854,-4.1596,-4.2316,-4.3039,-4.3801,-4.4476,-4.4895,-4.4895,-4.4895,-4.4895,-4.4895,-4.4895,-4.4895,-4.4895,-4.4895,-4.4895,-4.4895,-4.4895,-4.4895,-4.4895,-4.4895,-4.4919,-4.4991,-4.5057,-4.5125,-4.5192,-4.5275,-4.5297,-4.5297,-4.5297,-4.5297,-4.5297,-4.5297,-4.5297,-4.5297,-4.5297,-4.5297,-4.5297,-4.5297,-4.4929,-4.4383,-4.4318,-4.3905,-4.334,-3.3127,-3.2009,-3.1189,-3.1211,-3.1213,-3.119,-3.119,-3.1196,-3.1201,-3.1189,-2.9156,-2.769,-2.7694,-2.7111,-2.6692,-2.6692,-2.8861,-2.9734,-2.8557,-2.9783,-3.034,-2.9871,-2.9871,-2.9583,-2.8991,-2.8213,-2.8112,-2.8738,-2.796,-2.7977,-2.8738,-2.8738,-2.9127,-2.9892,-3.0543,-3.1196,-3.1841,-3.2491,-3.2358,-3.1673,-3.1673,-3.1202,-3.0477,-3.0477,-3.0477,-3.0387,-2.9771,-2.9644,-2.9816,-2.9816,-2.9816,-3.0061,-3.1691,-3.2071,-3.2125,-3.3103,-3.3393,-3.3393,-3.3393,-3.3991,-3.4751,-3.5385,-3.6019,-3.6508,-3.6689,-3.6852,-3.7341,-3.8608,-3.9152,-3.9568,-4.0166,-4.0926,-4.1487,-4.165,-4.2794,-4.3708,-4.3893,-4.4476,-4.4895,-4.4895,-4.4895,-4.4895,-4.4895,-4.4895,-4.4895,-4.4895,-4.4895,-4.4895,-4.4895,-4.4895,-4.4895,-4.4895,-4.4895,-4.4895,-4.4919,-4.501,-4.508,-4.5192,-4.5275,-4.5297,-4.5297,-4.5297,-4.5297,-4.5297,-4.5297,-4.5275,-4.5233,-4.5275,-4.5275,-4.5213,-4.5213,-4.4857,-4.4318,-4.425,-4.3791,-4.3214,-3.3551,-3.2629,-3.17,-3.1271,-3.12,-3.1213,-3.1179,-3.1219,-3.1207,-3.1206,-2.9804,-2.8294,-2.685,-2.7992,-2.8834,-2.8861,-3.0304,-3.0857,-3.0091,-3.0438,-3.0489,-3.0125,-3.0446,-3.0446,-3.0057,-2.8941,-2.8569,-2.9011,-2.8569,-2.8772,-2.9516,-2.9516,-2.9922,-3.0671,-3.1198,-3.1777,-3.2351,-3.2894,-3.2757,-3.2198,-3.2198,-3.1709,-3.0985,-3.0985,-3.0985,-3.093,-3.0514,-3.0604,-3.0985,-3.1383,-3.1256,-3.1148,-3.2379,-3.2506,-3.2361,-3.3158,-3.3393,-3.3484,-3.3882,-3.457,-3.5385,-3.6164,-3.6979,-3.7558,-3.7558,-3.7848,-3.8373,-3.9224,-3.9985,-4.0619,-4.1017,-4.1741,-4.2266,-4.2266,-4.3061,-4.3721,-4.3881,-4.4346,-4.4707,-4.487,-4.4895,-4.4895,-4.4895,-4.4895,-4.4895,-4.4895,-4.4895,-4.4895,-4.4895,-4.4895,-4.4895,-4.4895,-4.4895,-4.4895,-4.4895,-4.4967,-4.5033,-4.5103,-4.517,-4.5192,-4.5192,-4.5192,-4.5192,-4.5192,-4.5192,-4.5192,-4.5148,-4.5213,-4.5213,-4.5148,-4.5192,-4.4808,-4.425,-4.4143,-4.3675,-4.305,-3.3393,-3.3095,-3.2378,-3.1523,-3.1197,-3.1063,-3.1059,-3.115,-3.1179,-3.1193,-3.1181,-3.0247,-2.7761,-2.9709,-3.1216,-3.1202,-3.1196,-3.1199,-3.1202,-3.0506,-3.0108,-3.0108,-3.0565,-3.0751,-3.0615,-2.9668,-2.9178,-2.9178,-2.8907,-2.9228,-3.0108,-3.0108,-3.0497,-3.123,-3.162,-3.2003,-3.2317,-3.2749,-3.2721,-3.2415,-3.2415,-3.1999,-3.1401,-3.1401,-3.1401,-3.1383,-3.1238,-3.1546,-3.2125,-3.2922,-3.2741,-3.2343,-3.3158,-3.294,-3.2542,-3.3194,-3.3502,-3.3755,-3.4425,-3.5294,-3.62,-3.6997,-3.7794,-3.8427,-3.8554,-3.9007,-3.946,-3.9731,-4.0818,-4.1759,-4.1886,-4.2448,-4.2882,-4.2882,-4.3178,-4.3508,-4.3786,-4.4136,-4.4511,-4.4777,-4.487,-4.4895,-4.4895,-4.4895,-4.4895,-4.4895,-4.4895,-4.4895,-4.4895,-4.4895,-4.4895,-4.4895,-4.4895,-4.4895,-4.4895,-4.4962,-4.4967,-4.4967,-4.5057,-4.508,-4.5103,-4.5103,-4.5103,-4.5103,-4.5103,-4.5103,-4.5103,-4.5148,-4.5148,-4.5061,-4.5084,-4.4714,-4.4143,-4.3893,-4.3422,-4.2882,-3.3291,-3.3336,-3.2998,-3.2227,-3.1225,-3.0609,-3.0573,-3.0929,-3.1194,-3.12,-3.1224,-3.1055,-3.0633,-3.0965,-3.1196,-3.1213,-3.1207,-3.1207,-3.1196,-3.0497,-3.0108,-3.0108,-2.9567,-2.8958,-2.8298,-2.9381,-2.9956,-2.9956,-2.8636,-2.8721,-3.0108,-3.0108,-3.0497,-3.123,-3.1896,-3.2248,-3.2351,-3.3037,-3.3309,-3.3248,-3.3248,-3.3176,-3.3085,-3.3085,-3.3085,-3.2977,-3.2288,-3.1655,-3.1274,-3.2089,-3.2288,-3.2343,-3.3158,-3.3339,-3.3266,-3.3375,-3.39,-3.4461,-3.457,-3.5693,-3.7015,-3.783,-3.8627,-3.9405,-4.0039,-3.9786,-3.9767,-4.1126,-4.156,-4.1922,-4.2611,-4.2828,-4.2882,-4.2882,-4.3178,-4.3406,-4.3474,-4.4016,-4.443,-4.4457,-4.4707,-4.4895,-4.4895,-4.4895,-4.4895,-4.4895,-4.4895,-4.4895,-4.4895,-4.4895,-4.4895,-4.4895,-4.4895,-4.4895,-4.4895,-4.4895,-4.4895,-4.4895,-4.4919,-4.501,-4.5103,-4.5103,-4.5103,-4.5103,-4.5103,-4.508,-4.5033,-4.5103,-4.5061,-4.4991,-4.4695,-4.4364,-4.3955,-4.3301,-4.2995,-4.2882,-3.303,-3.2934,-3.2534,-3.2147,-3.1222,-3.05,-3.0484,-3.0666,-3.0814,-3.0804,-3.0818,-3.0801,-3.0788,-3.1053,-3.1093,-3.0847,-3.1032,-3.1213,-3.119,-3.0903,-3.0717,-3.0717,-3.0395,-3.0057,-2.9719,-2.9973,-3.0108,-3.0108,-2.9431,-2.9651,-3.0717,-3.0294,-3.0497,-3.123,-3.1731,-3.1967,-3.1986,-3.2749,-3.305,-3.3099,-3.3304,-3.3393,-3.3393,-3.3393,-3.3393,-3.3357,-3.2995,-3.2632,-3.2379,-3.2741,-3.2868,-3.294,-3.3284,-3.3719,-3.4081,-3.4081,-3.4643,-3.5385,-3.582,-3.6453,-3.7286,-3.8554,-3.9134,-3.9713,-4.0908,-4.0926,-4.089,-4.1578,-4.2067,-4.2484,-4.2828,-4.2882,-4.2882,-4.2882,-4.3178,-4.3474,-4.3656,-4.4095,-4.4457,-4.4655,-4.4802,-4.4895,-4.4895,-4.4895,-4.4895,-4.4895,-4.4895,-4.4895,-4.4895,-4.4895,-4.4895,-4.4895,-4.4895,-4.4895,-4.4895,-4.4895,-4.4895,-4.4895,-4.4895,-4.4919,-4.501,-4.501,-4.501,-4.501,-4.501,-4.4967,-4.4943,-4.5033,-4.4991,-4.4919,-4.4617,-4.4165,-4.3605,-4.3069,-4.2882,-4.2882]}]]